<?xml version="1.0" encoding="UTF-8" standalone="no" ?>
<gpx xmlns="http://www.topografix.com/GPX/1/1" xmlns:xsi="http://www.w3.org/2001/XMLSchema-instance" xsi:schemaLocation="http://www.topografix.com/GPX/1/1 http://www.topografix.com/GPX/1/1/gpx.xsd" version="1.1" creator="VisuGPX - https://www.visugpx.com">
  <metadata>
    <name>Entre Célé et Lot</name>
    <desc><![CDATA[Long, mais shortcut possible
belles vues sur St Cirq Lapopie
Dolmen près du VARY haut !
]]></desc>
  </metadata>
  <trk>
    <name><![CDATA[Raccourci]]></name>
    <trkseg>
      <trkpt lat="44.49953" lon="1.68817">
        <ele>247</ele>
      </trkpt>
      <trkpt lat="44.49954" lon="1.68789">
        <ele>246.8</ele>
      </trkpt>
      <trkpt lat="44.49945" lon="1.68687">
        <ele>247.2</ele>
      </trkpt>
      <trkpt lat="44.49916" lon="1.68586">
        <ele>246.9</ele>
      </trkpt>
      <trkpt lat="44.49911" lon="1.68568">
        <ele>247</ele>
      </trkpt>
      <trkpt lat="44.49777" lon="1.6865">
        <ele>248.7</ele>
      </trkpt>
      <trkpt lat="44.49744" lon="1.6867">
        <ele>253.1</ele>
      </trkpt>
      <trkpt lat="44.49721" lon="1.68667">
        <ele>257.1</ele>
      </trkpt>
      <trkpt lat="44.49691" lon="1.68646">
        <ele>255.9</ele>
      </trkpt>
      <trkpt lat="44.49671" lon="1.68621">
        <ele>255.6</ele>
      </trkpt>
      <trkpt lat="44.49613" lon="1.68574">
        <ele>260.7</ele>
      </trkpt>
      <trkpt lat="44.4958" lon="1.68536">
        <ele>268.7</ele>
      </trkpt>
      <trkpt lat="44.49548" lon="1.68493">
        <ele>264.2</ele>
      </trkpt>
      <trkpt lat="44.49523" lon="1.68474">
        <ele>265.9</ele>
      </trkpt>
      <trkpt lat="44.49458" lon="1.68443">
        <ele>275.6</ele>
      </trkpt>
      <trkpt lat="44.49433" lon="1.68428">
        <ele>277.4</ele>
      </trkpt>
      <trkpt lat="44.49411" lon="1.68399">
        <ele>281.9</ele>
      </trkpt>
      <trkpt lat="44.49343" lon="1.68287">
        <ele>280.2</ele>
      </trkpt>
      <trkpt lat="44.49261" lon="1.68191">
        <ele>288.7</ele>
      </trkpt>
      <trkpt lat="44.49199" lon="1.68166">
        <ele>295.2</ele>
      </trkpt>
      <trkpt lat="44.49133" lon="1.68096">
        <ele>302.9</ele>
      </trkpt>
      <trkpt lat="44.49118" lon="1.68057">
        <ele>302.5</ele>
      </trkpt>
      <trkpt lat="44.49103" lon="1.67989">
        <ele>304.1</ele>
      </trkpt>
      <trkpt lat="44.49092" lon="1.67893">
        <ele>306.5</ele>
      </trkpt>
      <trkpt lat="44.49054" lon="1.67824">
        <ele>313.8</ele>
      </trkpt>
      <trkpt lat="44.48975" lon="1.67671">
        <ele>319.8</ele>
      </trkpt>
      <trkpt lat="44.48967" lon="1.67624">
        <ele>322.7</ele>
      </trkpt>
      <trkpt lat="44.48975" lon="1.67571">
        <ele>322.6</ele>
      </trkpt>
      <trkpt lat="44.48991" lon="1.67504">
        <ele>320</ele>
      </trkpt>
      <trkpt lat="44.4899" lon="1.67486">
        <ele>319.6</ele>
      </trkpt>
      <trkpt lat="44.48977" lon="1.67456">
        <ele>320.1</ele>
      </trkpt>
      <trkpt lat="44.4895" lon="1.6741">
        <ele>318.1</ele>
      </trkpt>
      <trkpt lat="44.48929" lon="1.67331">
        <ele>313.4</ele>
      </trkpt>
      <trkpt lat="44.48914" lon="1.67293">
        <ele>313.4</ele>
      </trkpt>
      <trkpt lat="44.48906" lon="1.6728">
        <ele>312.2</ele>
      </trkpt>
    </trkseg>
  </trk>
  <trk>
    <name><![CDATA[Entre Célé et Lot_2]]></name>
    <trkseg>
      <trkpt lat="44.49976" lon="1.6885">
        <ele>270</ele>
        <time>2016-03-23T15:46:01Z</time>
      </trkpt>
      <trkpt lat="44.49976" lon="1.6885">
        <ele>268</ele>
        <time>2016-03-23T15:46:02Z</time>
      </trkpt>
      <trkpt lat="44.49978" lon="1.68852">
        <ele>265</ele>
        <time>2016-03-23T11:41:20Z</time>
      </trkpt>
      <trkpt lat="44.49978" lon="1.68852">
        <ele>265</ele>
        <time>2016-03-23T11:41:20Z</time>
      </trkpt>
      <trkpt lat="44.49978" lon="1.68852">
        <ele>265</ele>
        <time>2016-03-23T11:41:54Z</time>
      </trkpt>
      <trkpt lat="44.49978" lon="1.68852">
        <ele>265</ele>
        <time>2016-03-23T11:41:55Z</time>
      </trkpt>
      <trkpt lat="44.49978" lon="1.68852">
        <ele>266</ele>
        <time>2016-03-23T11:42:17Z</time>
      </trkpt>
      <trkpt lat="44.49978" lon="1.68852">
        <ele>266</ele>
        <time>2016-03-23T11:42:27Z</time>
      </trkpt>
      <trkpt lat="44.49978" lon="1.68852">
        <ele>266</ele>
        <time>2016-03-23T11:42:51Z</time>
      </trkpt>
      <trkpt lat="44.49978" lon="1.68852">
        <ele>266</ele>
        <time>2016-03-23T11:42:52Z</time>
      </trkpt>
      <trkpt lat="44.4995" lon="1.68906">
        <ele>258</ele>
        <time>2016-03-23T11:44:49Z</time>
      </trkpt>
      <trkpt lat="44.49947" lon="1.68912">
        <ele>258</ele>
        <time>2016-03-23T11:44:50Z</time>
      </trkpt>
      <trkpt lat="44.49945" lon="1.68917">
        <ele>258</ele>
        <time>2016-03-23T11:44:54Z</time>
      </trkpt>
      <trkpt lat="44.4994" lon="1.68923">
        <ele>258</ele>
        <time>2016-03-23T11:45:01Z</time>
      </trkpt>
      <trkpt lat="44.49936" lon="1.68928">
        <ele>258</ele>
        <time>2016-03-23T11:45:05Z</time>
      </trkpt>
      <trkpt lat="44.49933" lon="1.68935">
        <ele>258</ele>
        <time>2016-03-23T11:45:10Z</time>
      </trkpt>
      <trkpt lat="44.49904" lon="1.69069">
        <ele>255</ele>
        <time>2016-03-23T11:46:53Z</time>
      </trkpt>
      <trkpt lat="44.49903" lon="1.6907">
        <ele>256</ele>
        <time>2016-03-23T11:46:54Z</time>
      </trkpt>
      <trkpt lat="44.499" lon="1.69076">
        <ele>255</ele>
        <time>2016-03-23T11:46:58Z</time>
      </trkpt>
      <trkpt lat="44.49896" lon="1.69086">
        <ele>254</ele>
        <time>2016-03-23T11:47:09Z</time>
      </trkpt>
      <trkpt lat="44.49895" lon="1.69097">
        <ele>254</ele>
        <time>2016-03-23T11:47:11Z</time>
      </trkpt>
      <trkpt lat="44.49895" lon="1.69103">
        <ele>254</ele>
        <time>2016-03-23T11:47:13Z</time>
      </trkpt>
      <trkpt lat="44.49895" lon="1.6911">
        <ele>254</ele>
        <time>2016-03-23T11:47:15Z</time>
      </trkpt>
      <trkpt lat="44.49892" lon="1.6912">
        <ele>255</ele>
        <time>2016-03-23T11:47:17Z</time>
      </trkpt>
      <trkpt lat="44.49889" lon="1.69125">
        <ele>256</ele>
        <time>2016-03-23T11:47:18Z</time>
      </trkpt>
      <trkpt lat="44.49889" lon="1.69134">
        <ele>258</ele>
        <time>2016-03-23T11:47:22Z</time>
      </trkpt>
      <trkpt lat="44.49888" lon="1.69141">
        <ele>259</ele>
        <time>2016-03-23T11:47:26Z</time>
      </trkpt>
      <trkpt lat="44.49887" lon="1.69147">
        <ele>261</ele>
        <time>2016-03-23T11:47:31Z</time>
      </trkpt>
      <trkpt lat="44.49885" lon="1.69155">
        <ele>262</ele>
        <time>2016-03-23T11:47:50Z</time>
      </trkpt>
      <trkpt lat="44.49883" lon="1.69164">
        <ele>264</ele>
        <time>2016-03-23T11:47:52Z</time>
      </trkpt>
      <trkpt lat="44.49881" lon="1.69172">
        <ele>264</ele>
        <time>2016-03-23T11:47:54Z</time>
      </trkpt>
      <trkpt lat="44.49877" lon="1.6918">
        <ele>263</ele>
        <time>2016-03-23T11:47:56Z</time>
      </trkpt>
      <trkpt lat="44.49875" lon="1.69187">
        <ele>262</ele>
        <time>2016-03-23T11:47:57Z</time>
      </trkpt>
      <trkpt lat="44.49872" lon="1.692">
        <ele>261</ele>
        <time>2016-03-23T11:47:59Z</time>
      </trkpt>
      <trkpt lat="44.4987" lon="1.69209">
        <ele>259</ele>
        <time>2016-03-23T11:48:00Z</time>
      </trkpt>
      <trkpt lat="44.49868" lon="1.69225">
        <ele>258</ele>
        <time>2016-03-23T11:48:04Z</time>
      </trkpt>
      <trkpt lat="44.49865" lon="1.69237">
        <ele>258</ele>
        <time>2016-03-23T11:48:06Z</time>
      </trkpt>
      <trkpt lat="44.49861" lon="1.69245">
        <ele>258</ele>
        <time>2016-03-23T11:48:08Z</time>
      </trkpt>
      <trkpt lat="44.4986" lon="1.69252">
        <ele>259</ele>
        <time>2016-03-23T11:48:10Z</time>
      </trkpt>
      <trkpt lat="44.4986" lon="1.6926">
        <ele>261</ele>
        <time>2016-03-23T11:48:14Z</time>
      </trkpt>
      <trkpt lat="44.49865" lon="1.69258">
        <ele>261</ele>
        <time>2016-03-23T11:48:19Z</time>
      </trkpt>
      <trkpt lat="44.49863" lon="1.69264">
        <ele>263</ele>
        <time>2016-03-23T11:48:21Z</time>
      </trkpt>
      <trkpt lat="44.49862" lon="1.69274">
        <ele>264</ele>
        <time>2016-03-23T11:48:24Z</time>
      </trkpt>
      <trkpt lat="44.49859" lon="1.69282">
        <ele>264</ele>
        <time>2016-03-23T11:48:30Z</time>
      </trkpt>
      <trkpt lat="44.49855" lon="1.69289">
        <ele>264</ele>
        <time>2016-03-23T11:48:34Z</time>
      </trkpt>
      <trkpt lat="44.49853" lon="1.69295">
        <ele>264</ele>
        <time>2016-03-23T11:48:40Z</time>
      </trkpt>
      <trkpt lat="44.49848" lon="1.69299">
        <ele>264</ele>
        <time>2016-03-23T11:48:48Z</time>
      </trkpt>
      <trkpt lat="44.49845" lon="1.69307">
        <ele>263</ele>
        <time>2016-03-23T11:48:52Z</time>
      </trkpt>
      <trkpt lat="44.49841" lon="1.69315">
        <ele>262</ele>
        <time>2016-03-23T11:48:57Z</time>
      </trkpt>
      <trkpt lat="44.49836" lon="1.69321">
        <ele>262</ele>
        <time>2016-03-23T11:49:05Z</time>
      </trkpt>
      <trkpt lat="44.49833" lon="1.69329">
        <ele>262</ele>
        <time>2016-03-23T11:49:08Z</time>
      </trkpt>
      <trkpt lat="44.49829" lon="1.69337">
        <ele>263</ele>
        <time>2016-03-23T11:49:11Z</time>
      </trkpt>
      <trkpt lat="44.49825" lon="1.69341">
        <ele>264</ele>
        <time>2016-03-23T11:49:15Z</time>
      </trkpt>
      <trkpt lat="44.49822" lon="1.69348">
        <ele>265</ele>
        <time>2016-03-23T11:49:18Z</time>
      </trkpt>
      <trkpt lat="44.49816" lon="1.69357">
        <ele>267</ele>
        <time>2016-03-23T11:49:20Z</time>
      </trkpt>
      <trkpt lat="44.49811" lon="1.69364">
        <ele>268</ele>
        <time>2016-03-23T11:49:22Z</time>
      </trkpt>
      <trkpt lat="44.49807" lon="1.69369">
        <ele>270</ele>
        <time>2016-03-23T11:49:26Z</time>
      </trkpt>
      <trkpt lat="44.49802" lon="1.69375">
        <ele>272</ele>
        <time>2016-03-23T11:49:32Z</time>
      </trkpt>
      <trkpt lat="44.49801" lon="1.6938">
        <ele>272</ele>
        <time>2016-03-23T11:49:36Z</time>
      </trkpt>
      <trkpt lat="44.49797" lon="1.69385">
        <ele>272</ele>
        <time>2016-03-23T11:49:42Z</time>
      </trkpt>
      <trkpt lat="44.49794" lon="1.69389">
        <ele>272</ele>
        <time>2016-03-23T11:49:44Z</time>
      </trkpt>
      <trkpt lat="44.49791" lon="1.69396">
        <ele>273</ele>
        <time>2016-03-23T11:49:46Z</time>
      </trkpt>
      <trkpt lat="44.49787" lon="1.69401">
        <ele>273</ele>
        <time>2016-03-23T11:49:52Z</time>
      </trkpt>
      <trkpt lat="44.49783" lon="1.69406">
        <ele>273</ele>
        <time>2016-03-23T11:49:58Z</time>
      </trkpt>
      <trkpt lat="44.49779" lon="1.69412">
        <ele>274</ele>
        <time>2016-03-23T11:50:00Z</time>
      </trkpt>
      <trkpt lat="44.49776" lon="1.69419">
        <ele>274</ele>
        <time>2016-03-23T11:50:05Z</time>
      </trkpt>
      <trkpt lat="44.4977" lon="1.69425">
        <ele>274</ele>
        <time>2016-03-23T11:50:08Z</time>
      </trkpt>
      <trkpt lat="44.49767" lon="1.6943">
        <ele>274</ele>
        <time>2016-03-23T11:50:09Z</time>
      </trkpt>
      <trkpt lat="44.49762" lon="1.69435">
        <ele>274</ele>
        <time>2016-03-23T11:50:13Z</time>
      </trkpt>
      <trkpt lat="44.4976" lon="1.69441">
        <ele>275</ele>
        <time>2016-03-23T11:50:16Z</time>
      </trkpt>
      <trkpt lat="44.49758" lon="1.69447">
        <ele>275</ele>
        <time>2016-03-23T11:50:19Z</time>
      </trkpt>
      <trkpt lat="44.4976" lon="1.69442">
        <ele>275</ele>
        <time>2016-03-23T11:50:21Z</time>
      </trkpt>
      <trkpt lat="44.49755" lon="1.69446">
        <ele>276</ele>
        <time>2016-03-23T11:50:30Z</time>
      </trkpt>
      <trkpt lat="44.49752" lon="1.69451">
        <ele>277</ele>
        <time>2016-03-23T11:50:33Z</time>
      </trkpt>
      <trkpt lat="44.49747" lon="1.69458">
        <ele>277</ele>
        <time>2016-03-23T11:50:36Z</time>
      </trkpt>
      <trkpt lat="44.49744" lon="1.69464">
        <ele>277</ele>
        <time>2016-03-23T11:50:37Z</time>
      </trkpt>
      <trkpt lat="44.49741" lon="1.69469">
        <ele>277</ele>
        <time>2016-03-23T11:50:40Z</time>
      </trkpt>
      <trkpt lat="44.49744" lon="1.69463">
        <ele>277</ele>
        <time>2016-03-23T11:50:41Z</time>
      </trkpt>
      <trkpt lat="44.49736" lon="1.69469">
        <ele>276</ele>
        <time>2016-03-23T11:50:45Z</time>
      </trkpt>
      <trkpt lat="44.49732" lon="1.69475">
        <ele>275</ele>
        <time>2016-03-23T11:50:47Z</time>
      </trkpt>
      <trkpt lat="44.49728" lon="1.69479">
        <ele>275</ele>
        <time>2016-03-23T11:50:50Z</time>
      </trkpt>
      <trkpt lat="44.49722" lon="1.69482">
        <ele>275</ele>
        <time>2016-03-23T11:50:53Z</time>
      </trkpt>
      <trkpt lat="44.49716" lon="1.69487">
        <ele>276</ele>
        <time>2016-03-23T11:51:04Z</time>
      </trkpt>
      <trkpt lat="44.49712" lon="1.69491">
        <ele>277</ele>
        <time>2016-03-23T11:51:07Z</time>
      </trkpt>
      <trkpt lat="44.49707" lon="1.69494">
        <ele>278</ele>
        <time>2016-03-23T11:51:09Z</time>
      </trkpt>
      <trkpt lat="44.49701" lon="1.69495">
        <ele>279</ele>
        <time>2016-03-23T11:51:13Z</time>
      </trkpt>
      <trkpt lat="44.49697" lon="1.69499">
        <ele>278</ele>
        <time>2016-03-23T11:51:17Z</time>
      </trkpt>
      <trkpt lat="44.49692" lon="1.69502">
        <ele>278</ele>
        <time>2016-03-23T11:51:20Z</time>
      </trkpt>
      <trkpt lat="44.49687" lon="1.69501">
        <ele>277</ele>
        <time>2016-03-23T11:51:25Z</time>
      </trkpt>
      <trkpt lat="44.49683" lon="1.69504">
        <ele>276</ele>
        <time>2016-03-23T11:51:30Z</time>
      </trkpt>
      <trkpt lat="44.49651" lon="1.69507">
        <ele>275</ele>
        <time>2016-03-23T11:51:56Z</time>
      </trkpt>
      <trkpt lat="44.49648" lon="1.69513">
        <ele>275</ele>
        <time>2016-03-23T11:51:57Z</time>
      </trkpt>
      <trkpt lat="44.49641" lon="1.69516">
        <ele>274</ele>
        <time>2016-03-23T11:52:00Z</time>
      </trkpt>
      <trkpt lat="44.49635" lon="1.69522">
        <ele>274</ele>
        <time>2016-03-23T11:52:05Z</time>
      </trkpt>
      <trkpt lat="44.49629" lon="1.69528">
        <ele>274</ele>
        <time>2016-03-23T11:52:08Z</time>
      </trkpt>
      <trkpt lat="44.49632" lon="1.69522">
        <ele>273</ele>
        <time>2016-03-23T11:52:10Z</time>
      </trkpt>
      <trkpt lat="44.49628" lon="1.69515">
        <ele>272</ele>
        <time>2016-03-23T11:52:17Z</time>
      </trkpt>
      <trkpt lat="44.49624" lon="1.69518">
        <ele>271</ele>
        <time>2016-03-23T11:52:20Z</time>
      </trkpt>
      <trkpt lat="44.49618" lon="1.69517">
        <ele>269</ele>
        <time>2016-03-23T11:52:23Z</time>
      </trkpt>
      <trkpt lat="44.49616" lon="1.6951">
        <ele>267</ele>
        <time>2016-03-23T11:52:28Z</time>
      </trkpt>
      <trkpt lat="44.49611" lon="1.6951">
        <ele>266</ele>
        <time>2016-03-23T11:52:32Z</time>
      </trkpt>
      <trkpt lat="44.49606" lon="1.69512">
        <ele>267</ele>
        <time>2016-03-23T11:52:36Z</time>
      </trkpt>
      <trkpt lat="44.49601" lon="1.69511">
        <ele>268</ele>
        <time>2016-03-23T11:52:40Z</time>
      </trkpt>
      <trkpt lat="44.49596" lon="1.69509">
        <ele>270</ele>
        <time>2016-03-23T11:52:45Z</time>
      </trkpt>
      <trkpt lat="44.49592" lon="1.69511">
        <ele>271</ele>
        <time>2016-03-23T11:52:48Z</time>
      </trkpt>
      <trkpt lat="44.49587" lon="1.69512">
        <ele>272</ele>
        <time>2016-03-23T11:52:50Z</time>
      </trkpt>
      <trkpt lat="44.49583" lon="1.6951">
        <ele>272</ele>
        <time>2016-03-23T11:52:53Z</time>
      </trkpt>
      <trkpt lat="44.49577" lon="1.69509">
        <ele>271</ele>
        <time>2016-03-23T11:52:58Z</time>
      </trkpt>
      <trkpt lat="44.49571" lon="1.69508">
        <ele>271</ele>
        <time>2016-03-23T11:53:05Z</time>
      </trkpt>
      <trkpt lat="44.49566" lon="1.69507">
        <ele>271</ele>
        <time>2016-03-23T11:53:10Z</time>
      </trkpt>
      <trkpt lat="44.49561" lon="1.69511">
        <ele>272</ele>
        <time>2016-03-23T11:53:13Z</time>
      </trkpt>
      <trkpt lat="44.49556" lon="1.69508">
        <ele>272</ele>
        <time>2016-03-23T11:53:18Z</time>
      </trkpt>
      <trkpt lat="44.49553" lon="1.69513">
        <ele>273</ele>
        <time>2016-03-23T11:53:22Z</time>
      </trkpt>
      <trkpt lat="44.49547" lon="1.69515">
        <ele>274</ele>
        <time>2016-03-23T11:53:27Z</time>
      </trkpt>
      <trkpt lat="44.49542" lon="1.69517">
        <ele>275</ele>
        <time>2016-03-23T11:53:31Z</time>
      </trkpt>
      <trkpt lat="44.49538" lon="1.69515">
        <ele>274</ele>
        <time>2016-03-23T11:53:34Z</time>
      </trkpt>
      <trkpt lat="44.49532" lon="1.69515">
        <ele>274</ele>
        <time>2016-03-23T11:53:38Z</time>
      </trkpt>
      <trkpt lat="44.49527" lon="1.69516">
        <ele>274</ele>
        <time>2016-03-23T11:53:41Z</time>
      </trkpt>
      <trkpt lat="44.49502" lon="1.69494">
        <ele>278</ele>
        <time>2016-03-23T11:54:07Z</time>
      </trkpt>
      <trkpt lat="44.49498" lon="1.69497">
        <ele>281</ele>
        <time>2016-03-23T11:54:09Z</time>
      </trkpt>
      <trkpt lat="44.49492" lon="1.69503">
        <ele>283</ele>
        <time>2016-03-23T11:54:13Z</time>
      </trkpt>
      <trkpt lat="44.49488" lon="1.69498">
        <ele>286</ele>
        <time>2016-03-23T11:54:16Z</time>
      </trkpt>
      <trkpt lat="44.49484" lon="1.69496">
        <ele>289</ele>
        <time>2016-03-23T11:54:21Z</time>
      </trkpt>
      <trkpt lat="44.49477" lon="1.69496">
        <ele>287</ele>
        <time>2016-03-23T11:54:26Z</time>
      </trkpt>
      <trkpt lat="44.49474" lon="1.69495">
        <ele>286</ele>
        <time>2016-03-23T11:54:42Z</time>
      </trkpt>
      <trkpt lat="44.49474" lon="1.69495">
        <ele>286</ele>
        <time>2016-03-23T11:54:43Z</time>
      </trkpt>
      <trkpt lat="44.49467" lon="1.69495">
        <ele>285</ele>
        <time>2016-03-23T11:54:59Z</time>
      </trkpt>
      <trkpt lat="44.49462" lon="1.69497">
        <ele>285</ele>
        <time>2016-03-23T11:55:01Z</time>
      </trkpt>
      <trkpt lat="44.49455" lon="1.69499">
        <ele>286</ele>
        <time>2016-03-23T11:55:04Z</time>
      </trkpt>
      <trkpt lat="44.4945" lon="1.69501">
        <ele>287</ele>
        <time>2016-03-23T11:55:06Z</time>
      </trkpt>
      <trkpt lat="44.49446" lon="1.69499">
        <ele>288</ele>
        <time>2016-03-23T11:55:11Z</time>
      </trkpt>
      <trkpt lat="44.4944" lon="1.695">
        <ele>290</ele>
        <time>2016-03-23T11:55:15Z</time>
      </trkpt>
      <trkpt lat="44.49436" lon="1.69502">
        <ele>291</ele>
        <time>2016-03-23T11:55:18Z</time>
      </trkpt>
      <trkpt lat="44.49432" lon="1.69507">
        <ele>292</ele>
        <time>2016-03-23T11:55:20Z</time>
      </trkpt>
      <trkpt lat="44.49426" lon="1.69513">
        <ele>294</ele>
        <time>2016-03-23T11:55:25Z</time>
      </trkpt>
      <trkpt lat="44.49422" lon="1.69519">
        <ele>295</ele>
        <time>2016-03-23T11:55:28Z</time>
      </trkpt>
      <trkpt lat="44.49417" lon="1.69524">
        <ele>295</ele>
        <time>2016-03-23T11:55:35Z</time>
      </trkpt>
      <trkpt lat="44.49411" lon="1.69527">
        <ele>296</ele>
        <time>2016-03-23T11:55:39Z</time>
      </trkpt>
      <trkpt lat="44.49406" lon="1.69529">
        <ele>297</ele>
        <time>2016-03-23T11:55:43Z</time>
      </trkpt>
      <trkpt lat="44.49402" lon="1.69528">
        <ele>296</ele>
        <time>2016-03-23T11:55:49Z</time>
      </trkpt>
      <trkpt lat="44.49399" lon="1.69523">
        <ele>296</ele>
        <time>2016-03-23T11:55:53Z</time>
      </trkpt>
      <trkpt lat="44.49395" lon="1.69525">
        <ele>296</ele>
        <time>2016-03-23T11:55:58Z</time>
      </trkpt>
      <trkpt lat="44.4939" lon="1.69522">
        <ele>296</ele>
        <time>2016-03-23T11:56:03Z</time>
      </trkpt>
      <trkpt lat="44.49386" lon="1.69518">
        <ele>296</ele>
        <time>2016-03-23T11:56:07Z</time>
      </trkpt>
      <trkpt lat="44.49381" lon="1.69511">
        <ele>299</ele>
        <time>2016-03-23T11:56:12Z</time>
      </trkpt>
      <trkpt lat="44.49377" lon="1.69509">
        <ele>301</ele>
        <time>2016-03-23T11:56:15Z</time>
      </trkpt>
      <trkpt lat="44.49373" lon="1.69505">
        <ele>303</ele>
        <time>2016-03-23T11:56:19Z</time>
      </trkpt>
      <trkpt lat="44.49367" lon="1.69503">
        <ele>304</ele>
        <time>2016-03-23T11:56:28Z</time>
      </trkpt>
      <trkpt lat="44.49348" lon="1.69486">
        <ele>304</ele>
        <time>2016-03-23T11:56:54Z</time>
      </trkpt>
      <trkpt lat="44.49344" lon="1.69482">
        <ele>304</ele>
        <time>2016-03-23T11:56:57Z</time>
      </trkpt>
      <trkpt lat="44.49339" lon="1.69478">
        <ele>304</ele>
        <time>2016-03-23T11:57:04Z</time>
      </trkpt>
      <trkpt lat="44.49334" lon="1.69475">
        <ele>304</ele>
        <time>2016-03-23T11:57:10Z</time>
      </trkpt>
      <trkpt lat="44.49331" lon="1.69469">
        <ele>305</ele>
        <time>2016-03-23T11:57:15Z</time>
      </trkpt>
      <trkpt lat="44.49327" lon="1.69464">
        <ele>305</ele>
        <time>2016-03-23T11:57:20Z</time>
      </trkpt>
      <trkpt lat="44.49324" lon="1.69457">
        <ele>306</ele>
        <time>2016-03-23T11:57:24Z</time>
      </trkpt>
      <trkpt lat="44.49321" lon="1.69452">
        <ele>306</ele>
        <time>2016-03-23T11:57:30Z</time>
      </trkpt>
      <trkpt lat="44.49317" lon="1.69446">
        <ele>307</ele>
        <time>2016-03-23T11:57:35Z</time>
      </trkpt>
      <trkpt lat="44.49315" lon="1.69441">
        <ele>308</ele>
        <time>2016-03-23T11:57:39Z</time>
      </trkpt>
      <trkpt lat="44.49313" lon="1.69435">
        <ele>308</ele>
        <time>2016-03-23T11:57:43Z</time>
      </trkpt>
      <trkpt lat="44.4931" lon="1.69427">
        <ele>309</ele>
        <time>2016-03-23T11:57:47Z</time>
      </trkpt>
      <trkpt lat="44.49307" lon="1.69421">
        <ele>310</ele>
        <time>2016-03-23T11:57:52Z</time>
      </trkpt>
      <trkpt lat="44.49305" lon="1.69414">
        <ele>310</ele>
        <time>2016-03-23T11:57:58Z</time>
      </trkpt>
      <trkpt lat="44.49301" lon="1.69409">
        <ele>310</ele>
        <time>2016-03-23T11:58:04Z</time>
      </trkpt>
      <trkpt lat="44.49298" lon="1.69404">
        <ele>310</ele>
        <time>2016-03-23T11:58:09Z</time>
      </trkpt>
      <trkpt lat="44.49296" lon="1.69398">
        <ele>310</ele>
        <time>2016-03-23T11:58:12Z</time>
      </trkpt>
      <trkpt lat="44.49292" lon="1.69393">
        <ele>309</ele>
        <time>2016-03-23T11:58:17Z</time>
      </trkpt>
      <trkpt lat="44.4929" lon="1.69387">
        <ele>309</ele>
        <time>2016-03-23T11:58:22Z</time>
      </trkpt>
      <trkpt lat="44.49286" lon="1.69383">
        <ele>310</ele>
        <time>2016-03-23T11:58:30Z</time>
      </trkpt>
      <trkpt lat="44.49283" lon="1.69377">
        <ele>310</ele>
        <time>2016-03-23T11:58:34Z</time>
      </trkpt>
      <trkpt lat="44.49279" lon="1.69372">
        <ele>311</ele>
        <time>2016-03-23T11:58:37Z</time>
      </trkpt>
      <trkpt lat="44.49276" lon="1.69368">
        <ele>312</ele>
        <time>2016-03-23T11:58:41Z</time>
      </trkpt>
      <trkpt lat="44.49264" lon="1.69355">
        <ele>312</ele>
        <time>2016-03-23T11:58:59Z</time>
      </trkpt>
      <trkpt lat="44.49262" lon="1.69349">
        <ele>311</ele>
        <time>2016-03-23T11:59:00Z</time>
      </trkpt>
      <trkpt lat="44.49257" lon="1.69344">
        <ele>312</ele>
        <time>2016-03-23T11:59:03Z</time>
      </trkpt>
      <trkpt lat="44.49252" lon="1.6934">
        <ele>312</ele>
        <time>2016-03-23T11:59:07Z</time>
      </trkpt>
      <trkpt lat="44.49247" lon="1.69339">
        <ele>311</ele>
        <time>2016-03-23T11:59:16Z</time>
      </trkpt>
      <trkpt lat="44.49242" lon="1.69334">
        <ele>311</ele>
        <time>2016-03-23T11:59:21Z</time>
      </trkpt>
      <trkpt lat="44.49237" lon="1.69331">
        <ele>313</ele>
        <time>2016-03-23T11:59:25Z</time>
      </trkpt>
      <trkpt lat="44.49233" lon="1.69328">
        <ele>314</ele>
        <time>2016-03-23T11:59:31Z</time>
      </trkpt>
      <trkpt lat="44.49228" lon="1.69326">
        <ele>314</ele>
        <time>2016-03-23T11:59:38Z</time>
      </trkpt>
      <trkpt lat="44.49222" lon="1.69321">
        <ele>316</ele>
        <time>2016-03-23T11:59:42Z</time>
      </trkpt>
      <trkpt lat="44.49218" lon="1.69318">
        <ele>317</ele>
        <time>2016-03-23T11:59:46Z</time>
      </trkpt>
      <trkpt lat="44.49213" lon="1.69317">
        <ele>318</ele>
        <time>2016-03-23T11:59:51Z</time>
      </trkpt>
      <trkpt lat="44.49209" lon="1.69315">
        <ele>318</ele>
        <time>2016-03-23T11:59:55Z</time>
      </trkpt>
      <trkpt lat="44.49205" lon="1.69312">
        <ele>317</ele>
        <time>2016-03-23T12:00:01Z</time>
      </trkpt>
      <trkpt lat="44.492" lon="1.69309">
        <ele>317</ele>
        <time>2016-03-23T12:00:05Z</time>
      </trkpt>
      <trkpt lat="44.49196" lon="1.69307">
        <ele>316</ele>
        <time>2016-03-23T12:00:09Z</time>
      </trkpt>
      <trkpt lat="44.49191" lon="1.69305">
        <ele>316</ele>
        <time>2016-03-23T12:00:13Z</time>
      </trkpt>
      <trkpt lat="44.49186" lon="1.69304">
        <ele>316</ele>
        <time>2016-03-23T12:00:17Z</time>
      </trkpt>
      <trkpt lat="44.49181" lon="1.69301">
        <ele>317</ele>
        <time>2016-03-23T12:00:21Z</time>
      </trkpt>
      <trkpt lat="44.49176" lon="1.69301">
        <ele>317</ele>
        <time>2016-03-23T12:00:26Z</time>
      </trkpt>
      <trkpt lat="44.49171" lon="1.69299">
        <ele>318</ele>
        <time>2016-03-23T12:00:30Z</time>
      </trkpt>
      <trkpt lat="44.49166" lon="1.69297">
        <ele>319</ele>
        <time>2016-03-23T12:00:35Z</time>
      </trkpt>
      <trkpt lat="44.49157" lon="1.69297">
        <ele>319</ele>
        <time>2016-03-23T12:00:43Z</time>
      </trkpt>
      <trkpt lat="44.49153" lon="1.69296">
        <ele>320</ele>
        <time>2016-03-23T12:00:47Z</time>
      </trkpt>
      <trkpt lat="44.49148" lon="1.69295">
        <ele>320</ele>
        <time>2016-03-23T12:00:52Z</time>
      </trkpt>
      <trkpt lat="44.49143" lon="1.69293">
        <ele>321</ele>
        <time>2016-03-23T12:00:58Z</time>
      </trkpt>
      <trkpt lat="44.49138" lon="1.69291">
        <ele>321</ele>
        <time>2016-03-23T12:01:03Z</time>
      </trkpt>
      <trkpt lat="44.49134" lon="1.6929">
        <ele>320</ele>
        <time>2016-03-23T12:01:07Z</time>
      </trkpt>
      <trkpt lat="44.49129" lon="1.69289">
        <ele>320</ele>
        <time>2016-03-23T12:01:11Z</time>
      </trkpt>
      <trkpt lat="44.49124" lon="1.69285">
        <ele>319</ele>
        <time>2016-03-23T12:01:15Z</time>
      </trkpt>
      <trkpt lat="44.49119" lon="1.69282">
        <ele>319</ele>
        <time>2016-03-23T12:01:19Z</time>
      </trkpt>
      <trkpt lat="44.49114" lon="1.69279">
        <ele>318</ele>
        <time>2016-03-23T12:01:24Z</time>
      </trkpt>
      <trkpt lat="44.4911" lon="1.69274">
        <ele>318</ele>
        <time>2016-03-23T12:01:28Z</time>
      </trkpt>
      <trkpt lat="44.49106" lon="1.69271">
        <ele>318</ele>
        <time>2016-03-23T12:01:32Z</time>
      </trkpt>
      <trkpt lat="44.49073" lon="1.69233">
        <ele>316</ele>
        <time>2016-03-23T12:02:10Z</time>
      </trkpt>
      <trkpt lat="44.49071" lon="1.69235">
        <ele>315</ele>
        <time>2016-03-23T12:02:11Z</time>
      </trkpt>
      <trkpt lat="44.49067" lon="1.69233">
        <ele>314</ele>
        <time>2016-03-23T12:02:15Z</time>
      </trkpt>
      <trkpt lat="44.49062" lon="1.6923">
        <ele>314</ele>
        <time>2016-03-23T12:02:19Z</time>
      </trkpt>
      <trkpt lat="44.49057" lon="1.69224">
        <ele>314</ele>
        <time>2016-03-23T12:02:24Z</time>
      </trkpt>
      <trkpt lat="44.49052" lon="1.6922">
        <ele>317</ele>
        <time>2016-03-23T12:02:29Z</time>
      </trkpt>
      <trkpt lat="44.49046" lon="1.69219">
        <ele>318</ele>
        <time>2016-03-23T12:02:36Z</time>
      </trkpt>
      <trkpt lat="44.49042" lon="1.69216">
        <ele>319</ele>
        <time>2016-03-23T12:02:41Z</time>
      </trkpt>
      <trkpt lat="44.49038" lon="1.69212">
        <ele>319</ele>
        <time>2016-03-23T12:02:45Z</time>
      </trkpt>
      <trkpt lat="44.49034" lon="1.69208">
        <ele>318</ele>
        <time>2016-03-23T12:02:49Z</time>
      </trkpt>
      <trkpt lat="44.49031" lon="1.69203">
        <ele>317</ele>
        <time>2016-03-23T12:02:54Z</time>
      </trkpt>
      <trkpt lat="44.49027" lon="1.69197">
        <ele>317</ele>
        <time>2016-03-23T12:02:59Z</time>
      </trkpt>
      <trkpt lat="44.49024" lon="1.69192">
        <ele>318</ele>
        <time>2016-03-23T12:03:03Z</time>
      </trkpt>
      <trkpt lat="44.4902" lon="1.6919">
        <ele>317</ele>
        <time>2016-03-23T12:03:09Z</time>
      </trkpt>
      <trkpt lat="44.49016" lon="1.69184">
        <ele>316</ele>
        <time>2016-03-23T12:03:13Z</time>
      </trkpt>
      <trkpt lat="44.48961" lon="1.69128">
        <ele>317</ele>
        <time>2016-03-23T12:04:02Z</time>
      </trkpt>
      <trkpt lat="44.4896" lon="1.69128">
        <ele>319</ele>
        <time>2016-03-23T12:04:03Z</time>
      </trkpt>
      <trkpt lat="44.48958" lon="1.69136">
        <ele>318</ele>
        <time>2016-03-23T12:04:09Z</time>
      </trkpt>
      <trkpt lat="44.48953" lon="1.69136">
        <ele>319</ele>
        <time>2016-03-23T12:04:14Z</time>
      </trkpt>
      <trkpt lat="44.48948" lon="1.69137">
        <ele>319</ele>
        <time>2016-03-23T12:04:19Z</time>
      </trkpt>
      <trkpt lat="44.48943" lon="1.69136">
        <ele>317</ele>
        <time>2016-03-23T12:04:23Z</time>
      </trkpt>
      <trkpt lat="44.48938" lon="1.69134">
        <ele>315</ele>
        <time>2016-03-23T12:04:27Z</time>
      </trkpt>
      <trkpt lat="44.48934" lon="1.69133">
        <ele>314</ele>
        <time>2016-03-23T12:04:31Z</time>
      </trkpt>
      <trkpt lat="44.48929" lon="1.69134">
        <ele>313</ele>
        <time>2016-03-23T12:04:35Z</time>
      </trkpt>
      <trkpt lat="44.48923" lon="1.69134">
        <ele>312</ele>
        <time>2016-03-23T12:04:40Z</time>
      </trkpt>
      <trkpt lat="44.48917" lon="1.69133">
        <ele>312</ele>
        <time>2016-03-23T12:04:45Z</time>
      </trkpt>
      <trkpt lat="44.48912" lon="1.69135">
        <ele>311</ele>
        <time>2016-03-23T12:04:49Z</time>
      </trkpt>
      <trkpt lat="44.48908" lon="1.69133">
        <ele>311</ele>
        <time>2016-03-23T12:04:53Z</time>
      </trkpt>
      <trkpt lat="44.48903" lon="1.69134">
        <ele>311</ele>
        <time>2016-03-23T12:04:58Z</time>
      </trkpt>
      <trkpt lat="44.48897" lon="1.69133">
        <ele>311</ele>
        <time>2016-03-23T12:05:03Z</time>
      </trkpt>
      <trkpt lat="44.48892" lon="1.69132">
        <ele>310</ele>
        <time>2016-03-23T12:05:06Z</time>
      </trkpt>
      <trkpt lat="44.48888" lon="1.69135">
        <ele>310</ele>
        <time>2016-03-23T12:05:12Z</time>
      </trkpt>
      <trkpt lat="44.48885" lon="1.6913">
        <ele>311</ele>
        <time>2016-03-23T12:05:13Z</time>
      </trkpt>
      <trkpt lat="44.48881" lon="1.69127">
        <ele>311</ele>
        <time>2016-03-23T12:05:16Z</time>
      </trkpt>
      <trkpt lat="44.48877" lon="1.69123">
        <ele>312</ele>
        <time>2016-03-23T12:05:20Z</time>
      </trkpt>
      <trkpt lat="44.48876" lon="1.69122">
        <ele>313</ele>
        <time>2016-03-23T12:05:44Z</time>
      </trkpt>
      <trkpt lat="44.48876" lon="1.69122">
        <ele>314</ele>
        <time>2016-03-23T12:05:45Z</time>
      </trkpt>
      <trkpt lat="44.48876" lon="1.69122">
        <ele>314</ele>
        <time>2016-03-23T12:06:14Z</time>
      </trkpt>
      <trkpt lat="44.48876" lon="1.69122">
        <ele>315</ele>
        <time>2016-03-23T12:06:15Z</time>
      </trkpt>
      <trkpt lat="44.48876" lon="1.69122">
        <ele>316</ele>
        <time>2016-03-23T12:06:31Z</time>
      </trkpt>
      <trkpt lat="44.48876" lon="1.69122">
        <ele>316</ele>
        <time>2016-03-23T12:06:32Z</time>
      </trkpt>
      <trkpt lat="44.48853" lon="1.69127">
        <ele>317</ele>
        <time>2016-03-23T12:06:53Z</time>
      </trkpt>
      <trkpt lat="44.48846" lon="1.6913">
        <ele>318</ele>
        <time>2016-03-23T12:06:58Z</time>
      </trkpt>
      <trkpt lat="44.48841" lon="1.69128">
        <ele>319</ele>
        <time>2016-03-23T12:07:01Z</time>
      </trkpt>
      <trkpt lat="44.48836" lon="1.69127">
        <ele>319</ele>
        <time>2016-03-23T12:07:06Z</time>
      </trkpt>
      <trkpt lat="44.48832" lon="1.69128">
        <ele>319</ele>
        <time>2016-03-23T12:07:09Z</time>
      </trkpt>
      <trkpt lat="44.48828" lon="1.69131">
        <ele>318</ele>
        <time>2016-03-23T12:07:13Z</time>
      </trkpt>
      <trkpt lat="44.48822" lon="1.69131">
        <ele>317</ele>
        <time>2016-03-23T12:07:20Z</time>
      </trkpt>
      <trkpt lat="44.48817" lon="1.69134">
        <ele>316</ele>
        <time>2016-03-23T12:07:25Z</time>
      </trkpt>
      <trkpt lat="44.48812" lon="1.69138">
        <ele>315</ele>
        <time>2016-03-23T12:07:29Z</time>
      </trkpt>
      <trkpt lat="44.48807" lon="1.69138">
        <ele>314</ele>
        <time>2016-03-23T12:07:33Z</time>
      </trkpt>
      <trkpt lat="44.48801" lon="1.69139">
        <ele>314</ele>
        <time>2016-03-23T12:07:37Z</time>
      </trkpt>
      <trkpt lat="44.48796" lon="1.6914">
        <ele>314</ele>
        <time>2016-03-23T12:07:41Z</time>
      </trkpt>
      <trkpt lat="44.48792" lon="1.6914">
        <ele>315</ele>
        <time>2016-03-23T12:07:45Z</time>
      </trkpt>
      <trkpt lat="44.48787" lon="1.69143">
        <ele>316</ele>
        <time>2016-03-23T12:07:49Z</time>
      </trkpt>
      <trkpt lat="44.48784" lon="1.69147">
        <ele>317</ele>
        <time>2016-03-23T12:07:52Z</time>
      </trkpt>
      <trkpt lat="44.48779" lon="1.69147">
        <ele>318</ele>
        <time>2016-03-23T12:07:56Z</time>
      </trkpt>
      <trkpt lat="44.48775" lon="1.69151">
        <ele>318</ele>
        <time>2016-03-23T12:08:02Z</time>
      </trkpt>
      <trkpt lat="44.48771" lon="1.69155">
        <ele>318</ele>
        <time>2016-03-23T12:08:06Z</time>
      </trkpt>
      <trkpt lat="44.48766" lon="1.69159">
        <ele>318</ele>
        <time>2016-03-23T12:08:11Z</time>
      </trkpt>
      <trkpt lat="44.48764" lon="1.69165">
        <ele>318</ele>
        <time>2016-03-23T12:08:14Z</time>
      </trkpt>
      <trkpt lat="44.4876" lon="1.6917">
        <ele>318</ele>
        <time>2016-03-23T12:08:18Z</time>
      </trkpt>
      <trkpt lat="44.48757" lon="1.69176">
        <ele>318</ele>
        <time>2016-03-23T12:08:20Z</time>
      </trkpt>
      <trkpt lat="44.48753" lon="1.69183">
        <ele>318</ele>
        <time>2016-03-23T12:08:28Z</time>
      </trkpt>
      <trkpt lat="44.48749" lon="1.69183">
        <ele>319</ele>
        <time>2016-03-23T12:08:32Z</time>
      </trkpt>
      <trkpt lat="44.48744" lon="1.69189">
        <ele>320</ele>
        <time>2016-03-23T12:08:35Z</time>
      </trkpt>
      <trkpt lat="44.48741" lon="1.69194">
        <ele>321</ele>
        <time>2016-03-23T12:08:37Z</time>
      </trkpt>
      <trkpt lat="44.48739" lon="1.69201">
        <ele>321</ele>
        <time>2016-03-23T12:08:41Z</time>
      </trkpt>
      <trkpt lat="44.48723" lon="1.69211">
        <ele>322</ele>
        <time>2016-03-23T12:08:58Z</time>
      </trkpt>
      <trkpt lat="44.48719" lon="1.69213">
        <ele>322</ele>
        <time>2016-03-23T12:09:02Z</time>
      </trkpt>
      <trkpt lat="44.48714" lon="1.69216">
        <ele>323</ele>
        <time>2016-03-23T12:09:05Z</time>
      </trkpt>
      <trkpt lat="44.4871" lon="1.69221">
        <ele>323</ele>
        <time>2016-03-23T12:09:12Z</time>
      </trkpt>
      <trkpt lat="44.48705" lon="1.69225">
        <ele>324</ele>
        <time>2016-03-23T12:09:17Z</time>
      </trkpt>
      <trkpt lat="44.48701" lon="1.69229">
        <ele>324</ele>
        <time>2016-03-23T12:09:20Z</time>
      </trkpt>
      <trkpt lat="44.48697" lon="1.69233">
        <ele>324</ele>
        <time>2016-03-23T12:09:24Z</time>
      </trkpt>
      <trkpt lat="44.48691" lon="1.69236">
        <ele>324</ele>
        <time>2016-03-23T12:09:29Z</time>
      </trkpt>
      <trkpt lat="44.48687" lon="1.6924">
        <ele>325</ele>
        <time>2016-03-23T12:09:34Z</time>
      </trkpt>
      <trkpt lat="44.48683" lon="1.69245">
        <ele>325</ele>
        <time>2016-03-23T12:09:37Z</time>
      </trkpt>
      <trkpt lat="44.48679" lon="1.69249">
        <ele>325</ele>
        <time>2016-03-23T12:09:40Z</time>
      </trkpt>
      <trkpt lat="44.48675" lon="1.69253">
        <ele>325</ele>
        <time>2016-03-23T12:09:43Z</time>
      </trkpt>
      <trkpt lat="44.48671" lon="1.69258">
        <ele>325</ele>
        <time>2016-03-23T12:09:47Z</time>
      </trkpt>
      <trkpt lat="44.48666" lon="1.69261">
        <ele>325</ele>
        <time>2016-03-23T12:09:52Z</time>
      </trkpt>
      <trkpt lat="44.48662" lon="1.69267">
        <ele>326</ele>
        <time>2016-03-23T12:09:56Z</time>
      </trkpt>
      <trkpt lat="44.48657" lon="1.6927">
        <ele>326</ele>
        <time>2016-03-23T12:10:00Z</time>
      </trkpt>
      <trkpt lat="44.48652" lon="1.69273">
        <ele>327</ele>
        <time>2016-03-23T12:10:06Z</time>
      </trkpt>
      <trkpt lat="44.48648" lon="1.69277">
        <ele>328</ele>
        <time>2016-03-23T12:10:10Z</time>
      </trkpt>
      <trkpt lat="44.48645" lon="1.69283">
        <ele>329</ele>
        <time>2016-03-23T12:10:15Z</time>
      </trkpt>
      <trkpt lat="44.48642" lon="1.6929">
        <ele>329</ele>
        <time>2016-03-23T12:10:20Z</time>
      </trkpt>
      <trkpt lat="44.48637" lon="1.69294">
        <ele>331</ele>
        <time>2016-03-23T12:10:24Z</time>
      </trkpt>
      <trkpt lat="44.48632" lon="1.69298">
        <ele>331</ele>
        <time>2016-03-23T12:10:30Z</time>
      </trkpt>
      <trkpt lat="44.48628" lon="1.69303">
        <ele>333</ele>
        <time>2016-03-23T12:10:34Z</time>
      </trkpt>
      <trkpt lat="44.48626" lon="1.69311">
        <ele>333</ele>
        <time>2016-03-23T12:10:40Z</time>
      </trkpt>
      <trkpt lat="44.48623" lon="1.69317">
        <ele>334</ele>
        <time>2016-03-23T12:10:43Z</time>
      </trkpt>
      <trkpt lat="44.48619" lon="1.69322">
        <ele>333</ele>
        <time>2016-03-23T12:10:46Z</time>
      </trkpt>
      <trkpt lat="44.48613" lon="1.69327">
        <ele>334</ele>
        <time>2016-03-23T12:10:49Z</time>
      </trkpt>
      <trkpt lat="44.4861" lon="1.69332">
        <ele>334</ele>
        <time>2016-03-23T12:10:52Z</time>
      </trkpt>
      <trkpt lat="44.48607" lon="1.69339">
        <ele>335</ele>
        <time>2016-03-23T12:10:56Z</time>
      </trkpt>
      <trkpt lat="44.48605" lon="1.69345">
        <ele>336</ele>
        <time>2016-03-23T12:11:00Z</time>
      </trkpt>
      <trkpt lat="44.48606" lon="1.69352">
        <ele>337</ele>
        <time>2016-03-23T12:11:05Z</time>
      </trkpt>
      <trkpt lat="44.48605" lon="1.69358">
        <ele>337</ele>
        <time>2016-03-23T12:11:09Z</time>
      </trkpt>
      <trkpt lat="44.48605" lon="1.69365">
        <ele>337</ele>
        <time>2016-03-23T12:11:13Z</time>
      </trkpt>
      <trkpt lat="44.48604" lon="1.69371">
        <ele>336</ele>
        <time>2016-03-23T12:11:18Z</time>
      </trkpt>
      <trkpt lat="44.48603" lon="1.69378">
        <ele>336</ele>
        <time>2016-03-23T12:11:21Z</time>
      </trkpt>
      <trkpt lat="44.486" lon="1.69385">
        <ele>337</ele>
        <time>2016-03-23T12:11:23Z</time>
      </trkpt>
      <trkpt lat="44.486" lon="1.69394">
        <ele>337</ele>
        <time>2016-03-23T12:11:29Z</time>
      </trkpt>
      <trkpt lat="44.48597" lon="1.69402">
        <ele>338</ele>
        <time>2016-03-23T12:11:34Z</time>
      </trkpt>
      <trkpt lat="44.48597" lon="1.69408">
        <ele>338</ele>
        <time>2016-03-23T12:11:40Z</time>
      </trkpt>
      <trkpt lat="44.48597" lon="1.69417">
        <ele>338</ele>
        <time>2016-03-23T12:11:46Z</time>
      </trkpt>
      <trkpt lat="44.48597" lon="1.69425">
        <ele>338</ele>
        <time>2016-03-23T12:11:51Z</time>
      </trkpt>
      <trkpt lat="44.486" lon="1.6943">
        <ele>338</ele>
        <time>2016-03-23T12:11:55Z</time>
      </trkpt>
      <trkpt lat="44.486" lon="1.69436">
        <ele>338</ele>
        <time>2016-03-23T12:11:58Z</time>
      </trkpt>
      <trkpt lat="44.486" lon="1.69444">
        <ele>338</ele>
        <time>2016-03-23T12:12:03Z</time>
      </trkpt>
      <trkpt lat="44.486" lon="1.6945">
        <ele>338</ele>
        <time>2016-03-23T12:12:07Z</time>
      </trkpt>
      <trkpt lat="44.486" lon="1.69457">
        <ele>337</ele>
        <time>2016-03-23T12:12:11Z</time>
      </trkpt>
      <trkpt lat="44.48599" lon="1.69465">
        <ele>337</ele>
        <time>2016-03-23T12:12:15Z</time>
      </trkpt>
      <trkpt lat="44.48599" lon="1.69471">
        <ele>336</ele>
        <time>2016-03-23T12:12:21Z</time>
      </trkpt>
      <trkpt lat="44.48597" lon="1.69478">
        <ele>335</ele>
        <time>2016-03-23T12:12:25Z</time>
      </trkpt>
      <trkpt lat="44.48594" lon="1.69485">
        <ele>335</ele>
        <time>2016-03-23T12:12:30Z</time>
      </trkpt>
      <trkpt lat="44.48593" lon="1.69492">
        <ele>336</ele>
        <time>2016-03-23T12:12:34Z</time>
      </trkpt>
      <trkpt lat="44.48591" lon="1.695">
        <ele>337</ele>
        <time>2016-03-23T12:12:39Z</time>
      </trkpt>
      <trkpt lat="44.48589" lon="1.69507">
        <ele>338</ele>
        <time>2016-03-23T12:12:45Z</time>
      </trkpt>
      <trkpt lat="44.48587" lon="1.69514">
        <ele>339</ele>
        <time>2016-03-23T12:12:48Z</time>
      </trkpt>
      <trkpt lat="44.48583" lon="1.69522">
        <ele>339</ele>
        <time>2016-03-23T12:12:55Z</time>
      </trkpt>
      <trkpt lat="44.48579" lon="1.69526">
        <ele>340</ele>
        <time>2016-03-23T12:13:00Z</time>
      </trkpt>
      <trkpt lat="44.48575" lon="1.69532">
        <ele>341</ele>
        <time>2016-03-23T12:13:03Z</time>
      </trkpt>
      <trkpt lat="44.48571" lon="1.69537">
        <ele>342</ele>
        <time>2016-03-23T12:13:07Z</time>
      </trkpt>
      <trkpt lat="44.48567" lon="1.6954">
        <ele>342</ele>
        <time>2016-03-23T12:13:12Z</time>
      </trkpt>
      <trkpt lat="44.48544" lon="1.69541">
        <ele>348</ele>
        <time>2016-03-23T12:13:46Z</time>
      </trkpt>
      <trkpt lat="44.48549" lon="1.69547">
        <ele>349</ele>
        <time>2016-03-23T12:13:47Z</time>
      </trkpt>
      <trkpt lat="44.48542" lon="1.69549">
        <ele>349</ele>
        <time>2016-03-23T12:13:53Z</time>
      </trkpt>
      <trkpt lat="44.48537" lon="1.69553">
        <ele>348</ele>
        <time>2016-03-23T12:14:00Z</time>
      </trkpt>
      <trkpt lat="44.48531" lon="1.69552">
        <ele>348</ele>
        <time>2016-03-23T12:14:04Z</time>
      </trkpt>
      <trkpt lat="44.48526" lon="1.69551">
        <ele>344</ele>
        <time>2016-03-23T12:14:08Z</time>
      </trkpt>
      <trkpt lat="44.48521" lon="1.69549">
        <ele>343</ele>
        <time>2016-03-23T12:14:13Z</time>
      </trkpt>
      <trkpt lat="44.48515" lon="1.69549">
        <ele>343</ele>
        <time>2016-03-23T12:14:17Z</time>
      </trkpt>
      <trkpt lat="44.48511" lon="1.69548">
        <ele>344</ele>
        <time>2016-03-23T12:14:21Z</time>
      </trkpt>
      <trkpt lat="44.48505" lon="1.69548">
        <ele>344</ele>
        <time>2016-03-23T12:14:25Z</time>
      </trkpt>
      <trkpt lat="44.485" lon="1.69548">
        <ele>344</ele>
        <time>2016-03-23T12:14:29Z</time>
      </trkpt>
      <trkpt lat="44.48496" lon="1.69545">
        <ele>344</ele>
        <time>2016-03-23T12:14:32Z</time>
      </trkpt>
      <trkpt lat="44.48492" lon="1.69545">
        <ele>344</ele>
        <time>2016-03-23T12:14:36Z</time>
      </trkpt>
      <trkpt lat="44.48488" lon="1.69548">
        <ele>344</ele>
        <time>2016-03-23T12:14:41Z</time>
      </trkpt>
      <trkpt lat="44.48483" lon="1.69547">
        <ele>343</ele>
        <time>2016-03-23T12:14:44Z</time>
      </trkpt>
      <trkpt lat="44.48478" lon="1.69546">
        <ele>341</ele>
        <time>2016-03-23T12:14:48Z</time>
      </trkpt>
      <trkpt lat="44.48473" lon="1.69546">
        <ele>340</ele>
        <time>2016-03-23T12:14:52Z</time>
      </trkpt>
      <trkpt lat="44.48467" lon="1.69544">
        <ele>339</ele>
        <time>2016-03-23T12:14:56Z</time>
      </trkpt>
      <trkpt lat="44.48463" lon="1.69545">
        <ele>339</ele>
        <time>2016-03-23T12:15:01Z</time>
      </trkpt>
      <trkpt lat="44.4846" lon="1.6955">
        <ele>338</ele>
        <time>2016-03-23T12:15:04Z</time>
      </trkpt>
      <trkpt lat="44.48455" lon="1.69548">
        <ele>338</ele>
        <time>2016-03-23T12:15:07Z</time>
      </trkpt>
      <trkpt lat="44.4845" lon="1.69546">
        <ele>338</ele>
        <time>2016-03-23T12:15:11Z</time>
      </trkpt>
      <trkpt lat="44.48444" lon="1.69546">
        <ele>337</ele>
        <time>2016-03-23T12:15:15Z</time>
      </trkpt>
      <trkpt lat="44.4844" lon="1.69547">
        <ele>337</ele>
        <time>2016-03-23T12:15:19Z</time>
      </trkpt>
      <trkpt lat="44.48435" lon="1.69547">
        <ele>336</ele>
        <time>2016-03-23T12:15:23Z</time>
      </trkpt>
      <trkpt lat="44.4843" lon="1.69549">
        <ele>336</ele>
        <time>2016-03-23T12:15:27Z</time>
      </trkpt>
      <trkpt lat="44.48425" lon="1.69549">
        <ele>335</ele>
        <time>2016-03-23T12:15:31Z</time>
      </trkpt>
      <trkpt lat="44.48421" lon="1.69551">
        <ele>335</ele>
        <time>2016-03-23T12:15:35Z</time>
      </trkpt>
      <trkpt lat="44.48416" lon="1.69552">
        <ele>335</ele>
        <time>2016-03-23T12:15:39Z</time>
      </trkpt>
      <trkpt lat="44.48412" lon="1.69556">
        <ele>335</ele>
        <time>2016-03-23T12:15:43Z</time>
      </trkpt>
      <trkpt lat="44.48407" lon="1.69559">
        <ele>336</ele>
        <time>2016-03-23T12:15:48Z</time>
      </trkpt>
      <trkpt lat="44.48403" lon="1.69556">
        <ele>337</ele>
        <time>2016-03-23T12:16:00Z</time>
      </trkpt>
      <trkpt lat="44.48398" lon="1.69558">
        <ele>339</ele>
        <time>2016-03-23T12:16:06Z</time>
      </trkpt>
      <trkpt lat="44.48393" lon="1.69558">
        <ele>340</ele>
        <time>2016-03-23T12:16:12Z</time>
      </trkpt>
      <trkpt lat="44.48388" lon="1.69555">
        <ele>341</ele>
        <time>2016-03-23T12:16:15Z</time>
      </trkpt>
      <trkpt lat="44.48383" lon="1.69556">
        <ele>341</ele>
        <time>2016-03-23T12:16:23Z</time>
      </trkpt>
      <trkpt lat="44.48379" lon="1.69553">
        <ele>341</ele>
        <time>2016-03-23T12:16:28Z</time>
      </trkpt>
      <trkpt lat="44.48375" lon="1.6955">
        <ele>341</ele>
        <time>2016-03-23T12:16:32Z</time>
      </trkpt>
      <trkpt lat="44.4837" lon="1.69545">
        <ele>341</ele>
        <time>2016-03-23T12:16:36Z</time>
      </trkpt>
      <trkpt lat="44.48367" lon="1.69541">
        <ele>340</ele>
        <time>2016-03-23T12:16:43Z</time>
      </trkpt>
      <trkpt lat="44.48362" lon="1.69538">
        <ele>339</ele>
        <time>2016-03-23T12:16:48Z</time>
      </trkpt>
      <trkpt lat="44.48358" lon="1.69535">
        <ele>339</ele>
        <time>2016-03-23T12:16:51Z</time>
      </trkpt>
      <trkpt lat="44.48354" lon="1.69533">
        <ele>338</ele>
        <time>2016-03-23T12:16:56Z</time>
      </trkpt>
      <trkpt lat="44.48349" lon="1.6953">
        <ele>338</ele>
        <time>2016-03-23T12:17:18Z</time>
      </trkpt>
      <trkpt lat="44.48343" lon="1.69526">
        <ele>339</ele>
        <time>2016-03-23T12:17:22Z</time>
      </trkpt>
      <trkpt lat="44.48338" lon="1.69526">
        <ele>339</ele>
        <time>2016-03-23T12:17:27Z</time>
      </trkpt>
      <trkpt lat="44.48333" lon="1.69524">
        <ele>339</ele>
        <time>2016-03-23T12:17:31Z</time>
      </trkpt>
      <trkpt lat="44.48294" lon="1.69516">
        <ele>341</ele>
        <time>2016-03-23T12:18:02Z</time>
      </trkpt>
      <trkpt lat="44.4829" lon="1.69517">
        <ele>343</ele>
        <time>2016-03-23T12:18:03Z</time>
      </trkpt>
      <trkpt lat="44.48292" lon="1.69523">
        <ele>345</ele>
        <time>2016-03-23T12:18:05Z</time>
      </trkpt>
      <trkpt lat="44.48287" lon="1.69526">
        <ele>346</ele>
        <time>2016-03-23T12:18:10Z</time>
      </trkpt>
      <trkpt lat="44.48283" lon="1.6953">
        <ele>349</ele>
        <time>2016-03-23T12:18:12Z</time>
      </trkpt>
      <trkpt lat="44.4828" lon="1.69538">
        <ele>350</ele>
        <time>2016-03-23T12:18:18Z</time>
      </trkpt>
      <trkpt lat="44.4822" lon="1.6958">
        <ele>349</ele>
        <time>2016-03-23T12:19:20Z</time>
      </trkpt>
      <trkpt lat="44.48221" lon="1.69586">
        <ele>349</ele>
        <time>2016-03-23T12:19:21Z</time>
      </trkpt>
      <trkpt lat="44.48216" lon="1.6959">
        <ele>350</ele>
        <time>2016-03-23T12:19:25Z</time>
      </trkpt>
      <trkpt lat="44.48214" lon="1.69597">
        <ele>349</ele>
        <time>2016-03-23T12:19:28Z</time>
      </trkpt>
      <trkpt lat="44.48208" lon="1.69597">
        <ele>349</ele>
        <time>2016-03-23T12:19:32Z</time>
      </trkpt>
      <trkpt lat="44.48203" lon="1.69597">
        <ele>351</ele>
        <time>2016-03-23T12:19:36Z</time>
      </trkpt>
      <trkpt lat="44.48202" lon="1.69604">
        <ele>350</ele>
        <time>2016-03-23T12:19:40Z</time>
      </trkpt>
      <trkpt lat="44.48198" lon="1.69602">
        <ele>350</ele>
        <time>2016-03-23T12:19:43Z</time>
      </trkpt>
      <trkpt lat="44.48193" lon="1.69606">
        <ele>349</ele>
        <time>2016-03-23T12:19:47Z</time>
      </trkpt>
      <trkpt lat="44.48188" lon="1.69607">
        <ele>349</ele>
        <time>2016-03-23T12:19:51Z</time>
      </trkpt>
      <trkpt lat="44.48183" lon="1.69609">
        <ele>350</ele>
        <time>2016-03-23T12:19:55Z</time>
      </trkpt>
      <trkpt lat="44.48179" lon="1.69614">
        <ele>351</ele>
        <time>2016-03-23T12:20:01Z</time>
      </trkpt>
      <trkpt lat="44.48179" lon="1.69621">
        <ele>352</ele>
        <time>2016-03-23T12:20:04Z</time>
      </trkpt>
      <trkpt lat="44.48174" lon="1.69621">
        <ele>353</ele>
        <time>2016-03-23T12:20:09Z</time>
      </trkpt>
      <trkpt lat="44.4817" lon="1.69626">
        <ele>353</ele>
        <time>2016-03-23T12:20:14Z</time>
      </trkpt>
      <trkpt lat="44.48166" lon="1.69629">
        <ele>354</ele>
        <time>2016-03-23T12:20:17Z</time>
      </trkpt>
      <trkpt lat="44.48161" lon="1.69628">
        <ele>355</ele>
        <time>2016-03-23T12:20:20Z</time>
      </trkpt>
      <trkpt lat="44.48156" lon="1.69631">
        <ele>355</ele>
        <time>2016-03-23T12:20:25Z</time>
      </trkpt>
      <trkpt lat="44.48153" lon="1.69636">
        <ele>356</ele>
        <time>2016-03-23T12:20:38Z</time>
      </trkpt>
      <trkpt lat="44.48148" lon="1.69639">
        <ele>356</ele>
        <time>2016-03-23T12:20:55Z</time>
      </trkpt>
      <trkpt lat="44.48141" lon="1.69641">
        <ele>355</ele>
        <time>2016-03-23T12:21:00Z</time>
      </trkpt>
      <trkpt lat="44.48136" lon="1.69639">
        <ele>354</ele>
        <time>2016-03-23T12:21:03Z</time>
      </trkpt>
      <trkpt lat="44.48131" lon="1.69643">
        <ele>354</ele>
        <time>2016-03-23T12:21:08Z</time>
      </trkpt>
      <trkpt lat="44.48124" lon="1.69636">
        <ele>354</ele>
        <time>2016-03-23T12:21:12Z</time>
      </trkpt>
      <trkpt lat="44.48119" lon="1.69633">
        <ele>355</ele>
        <time>2016-03-23T12:21:18Z</time>
      </trkpt>
      <trkpt lat="44.48114" lon="1.69631">
        <ele>355</ele>
        <time>2016-03-23T12:21:23Z</time>
      </trkpt>
      <trkpt lat="44.48111" lon="1.69624">
        <ele>356</ele>
        <time>2016-03-23T12:21:29Z</time>
      </trkpt>
      <trkpt lat="44.48111" lon="1.69616">
        <ele>355</ele>
        <time>2016-03-23T12:21:34Z</time>
      </trkpt>
      <trkpt lat="44.48111" lon="1.6961">
        <ele>354</ele>
        <time>2016-03-23T12:21:39Z</time>
      </trkpt>
      <trkpt lat="44.48109" lon="1.69603">
        <ele>353</ele>
        <time>2016-03-23T12:21:43Z</time>
      </trkpt>
      <trkpt lat="44.48108" lon="1.69597">
        <ele>352</ele>
        <time>2016-03-23T12:21:47Z</time>
      </trkpt>
      <trkpt lat="44.48106" lon="1.6959">
        <ele>351</ele>
        <time>2016-03-23T12:21:51Z</time>
      </trkpt>
      <trkpt lat="44.48103" lon="1.69582">
        <ele>350</ele>
        <time>2016-03-23T12:21:56Z</time>
      </trkpt>
      <trkpt lat="44.48101" lon="1.69576">
        <ele>350</ele>
        <time>2016-03-23T12:22:00Z</time>
      </trkpt>
      <trkpt lat="44.481" lon="1.69569">
        <ele>350</ele>
        <time>2016-03-23T12:22:04Z</time>
      </trkpt>
      <trkpt lat="44.48098" lon="1.69563">
        <ele>351</ele>
        <time>2016-03-23T12:22:08Z</time>
      </trkpt>
      <trkpt lat="44.48095" lon="1.69558">
        <ele>351</ele>
        <time>2016-03-23T12:22:13Z</time>
      </trkpt>
      <trkpt lat="44.48093" lon="1.69551">
        <ele>352</ele>
        <time>2016-03-23T12:22:17Z</time>
      </trkpt>
      <trkpt lat="44.48092" lon="1.69544">
        <ele>352</ele>
        <time>2016-03-23T12:22:21Z</time>
      </trkpt>
      <trkpt lat="44.4809" lon="1.69538">
        <ele>352</ele>
        <time>2016-03-23T12:22:26Z</time>
      </trkpt>
      <trkpt lat="44.48087" lon="1.69532">
        <ele>352</ele>
        <time>2016-03-23T12:22:30Z</time>
      </trkpt>
      <trkpt lat="44.48085" lon="1.69526">
        <ele>352</ele>
        <time>2016-03-23T12:22:34Z</time>
      </trkpt>
      <trkpt lat="44.48084" lon="1.69518">
        <ele>353</ele>
        <time>2016-03-23T12:22:38Z</time>
      </trkpt>
      <trkpt lat="44.48082" lon="1.69512">
        <ele>353</ele>
        <time>2016-03-23T12:22:43Z</time>
      </trkpt>
      <trkpt lat="44.48079" lon="1.69506">
        <ele>353</ele>
        <time>2016-03-23T12:22:48Z</time>
      </trkpt>
      <trkpt lat="44.48076" lon="1.695">
        <ele>353</ele>
        <time>2016-03-23T12:22:53Z</time>
      </trkpt>
      <trkpt lat="44.48074" lon="1.69494">
        <ele>352</ele>
        <time>2016-03-23T12:22:58Z</time>
      </trkpt>
      <trkpt lat="44.48072" lon="1.69487">
        <ele>352</ele>
        <time>2016-03-23T12:23:02Z</time>
      </trkpt>
      <trkpt lat="44.48069" lon="1.6948">
        <ele>352</ele>
        <time>2016-03-23T12:23:06Z</time>
      </trkpt>
      <trkpt lat="44.48066" lon="1.69475">
        <ele>353</ele>
        <time>2016-03-23T12:23:10Z</time>
      </trkpt>
      <trkpt lat="44.48063" lon="1.69467">
        <ele>354</ele>
        <time>2016-03-23T12:23:14Z</time>
      </trkpt>
      <trkpt lat="44.48051" lon="1.69418">
        <ele>355</ele>
        <time>2016-03-23T12:23:56Z</time>
      </trkpt>
      <trkpt lat="44.48052" lon="1.6938">
        <ele>356</ele>
        <time>2016-03-23T12:23:58Z</time>
      </trkpt>
      <trkpt lat="44.48046" lon="1.69393">
        <ele>356</ele>
        <time>2016-03-23T12:24:02Z</time>
      </trkpt>
      <trkpt lat="44.48047" lon="1.69381">
        <ele>357</ele>
        <time>2016-03-23T12:24:04Z</time>
      </trkpt>
      <trkpt lat="44.48043" lon="1.69376">
        <ele>356</ele>
        <time>2016-03-23T12:24:09Z</time>
      </trkpt>
      <trkpt lat="44.48043" lon="1.69369">
        <ele>356</ele>
        <time>2016-03-23T12:24:11Z</time>
      </trkpt>
      <trkpt lat="44.48039" lon="1.69366">
        <ele>356</ele>
        <time>2016-03-23T12:24:18Z</time>
      </trkpt>
      <trkpt lat="44.48037" lon="1.6936">
        <ele>356</ele>
        <time>2016-03-23T12:24:22Z</time>
      </trkpt>
      <trkpt lat="44.48035" lon="1.69354">
        <ele>355</ele>
        <time>2016-03-23T12:24:26Z</time>
      </trkpt>
      <trkpt lat="44.48035" lon="1.69347">
        <ele>356</ele>
        <time>2016-03-23T12:24:30Z</time>
      </trkpt>
      <trkpt lat="44.48034" lon="1.6934">
        <ele>356</ele>
        <time>2016-03-23T12:24:34Z</time>
      </trkpt>
      <trkpt lat="44.48033" lon="1.69334">
        <ele>356</ele>
        <time>2016-03-23T12:24:37Z</time>
      </trkpt>
      <trkpt lat="44.48032" lon="1.69325">
        <ele>357</ele>
        <time>2016-03-23T12:24:42Z</time>
      </trkpt>
      <trkpt lat="44.48029" lon="1.69319">
        <ele>358</ele>
        <time>2016-03-23T12:24:48Z</time>
      </trkpt>
      <trkpt lat="44.48026" lon="1.69312">
        <ele>357</ele>
        <time>2016-03-23T12:24:54Z</time>
      </trkpt>
      <trkpt lat="44.48022" lon="1.69306">
        <ele>357</ele>
        <time>2016-03-23T12:24:59Z</time>
      </trkpt>
      <trkpt lat="44.48019" lon="1.69299">
        <ele>357</ele>
        <time>2016-03-23T12:25:03Z</time>
      </trkpt>
      <trkpt lat="44.48015" lon="1.69295">
        <ele>356</ele>
        <time>2016-03-23T12:25:09Z</time>
      </trkpt>
      <trkpt lat="44.48011" lon="1.69293">
        <ele>356</ele>
        <time>2016-03-23T12:25:12Z</time>
      </trkpt>
      <trkpt lat="44.48005" lon="1.69293">
        <ele>356</ele>
        <time>2016-03-23T12:25:16Z</time>
      </trkpt>
      <trkpt lat="44.48" lon="1.69294">
        <ele>355</ele>
        <time>2016-03-23T12:25:21Z</time>
      </trkpt>
      <trkpt lat="44.47995" lon="1.69293">
        <ele>354</ele>
        <time>2016-03-23T12:25:25Z</time>
      </trkpt>
      <trkpt lat="44.47988" lon="1.69293">
        <ele>353</ele>
        <time>2016-03-23T12:25:29Z</time>
      </trkpt>
      <trkpt lat="44.47984" lon="1.69289">
        <ele>352</ele>
        <time>2016-03-23T12:25:33Z</time>
      </trkpt>
      <trkpt lat="44.4798" lon="1.69291">
        <ele>352</ele>
        <time>2016-03-23T12:25:36Z</time>
      </trkpt>
      <trkpt lat="44.47975" lon="1.69288">
        <ele>352</ele>
        <time>2016-03-23T12:25:39Z</time>
      </trkpt>
      <trkpt lat="44.47969" lon="1.69288">
        <ele>352</ele>
        <time>2016-03-23T12:25:43Z</time>
      </trkpt>
      <trkpt lat="44.47965" lon="1.69287">
        <ele>352</ele>
        <time>2016-03-23T12:25:47Z</time>
      </trkpt>
      <trkpt lat="44.4796" lon="1.69287">
        <ele>352</ele>
        <time>2016-03-23T12:25:51Z</time>
      </trkpt>
      <trkpt lat="44.47955" lon="1.69283">
        <ele>351</ele>
        <time>2016-03-23T12:25:57Z</time>
      </trkpt>
      <trkpt lat="44.47949" lon="1.6928">
        <ele>350</ele>
        <time>2016-03-23T12:26:03Z</time>
      </trkpt>
      <trkpt lat="44.47943" lon="1.69276">
        <ele>350</ele>
        <time>2016-03-23T12:26:10Z</time>
      </trkpt>
      <trkpt lat="44.4794" lon="1.69272">
        <ele>350</ele>
        <time>2016-03-23T12:26:37Z</time>
      </trkpt>
      <trkpt lat="44.4794" lon="1.69272">
        <ele>351</ele>
        <time>2016-03-23T12:26:38Z</time>
      </trkpt>
      <trkpt lat="44.4794" lon="1.69272">
        <ele>352</ele>
        <time>2016-03-23T12:27:00Z</time>
      </trkpt>
      <trkpt lat="44.4794" lon="1.69272">
        <ele>354</ele>
        <time>2016-03-23T12:27:01Z</time>
      </trkpt>
      <trkpt lat="44.4794" lon="1.69272">
        <ele>355</ele>
        <time>2016-03-23T12:27:30Z</time>
      </trkpt>
      <trkpt lat="44.4794" lon="1.69272">
        <ele>355</ele>
        <time>2016-03-23T12:27:31Z</time>
      </trkpt>
      <trkpt lat="44.47887" lon="1.69234">
        <ele>354</ele>
        <time>2016-03-23T12:28:18Z</time>
      </trkpt>
      <trkpt lat="44.47895" lon="1.69248">
        <ele>352</ele>
        <time>2016-03-23T12:28:19Z</time>
      </trkpt>
      <trkpt lat="44.47867" lon="1.69245">
        <ele>349</ele>
        <time>2016-03-23T12:28:50Z</time>
      </trkpt>
      <trkpt lat="44.47862" lon="1.69245">
        <ele>348</ele>
        <time>2016-03-23T12:28:52Z</time>
      </trkpt>
      <trkpt lat="44.47855" lon="1.69244">
        <ele>347</ele>
        <time>2016-03-23T12:28:53Z</time>
      </trkpt>
      <trkpt lat="44.47847" lon="1.69237">
        <ele>347</ele>
        <time>2016-03-23T12:28:55Z</time>
      </trkpt>
      <trkpt lat="44.47847" lon="1.69225">
        <ele>348</ele>
        <time>2016-03-23T12:28:57Z</time>
      </trkpt>
      <trkpt lat="44.47852" lon="1.6922">
        <ele>350</ele>
        <time>2016-03-23T12:28:59Z</time>
      </trkpt>
      <trkpt lat="44.47848" lon="1.69226">
        <ele>349</ele>
        <time>2016-03-23T12:29:01Z</time>
      </trkpt>
      <trkpt lat="44.47841" lon="1.69223">
        <ele>349</ele>
        <time>2016-03-23T12:29:07Z</time>
      </trkpt>
      <trkpt lat="44.47836" lon="1.69222">
        <ele>347</ele>
        <time>2016-03-23T12:29:11Z</time>
      </trkpt>
      <trkpt lat="44.47831" lon="1.69221">
        <ele>346</ele>
        <time>2016-03-23T12:29:14Z</time>
      </trkpt>
      <trkpt lat="44.47827" lon="1.69216">
        <ele>346</ele>
        <time>2016-03-23T12:29:17Z</time>
      </trkpt>
      <trkpt lat="44.47823" lon="1.6922">
        <ele>346</ele>
        <time>2016-03-23T12:29:23Z</time>
      </trkpt>
      <trkpt lat="44.47818" lon="1.69219">
        <ele>346</ele>
        <time>2016-03-23T12:29:27Z</time>
      </trkpt>
      <trkpt lat="44.47813" lon="1.69218">
        <ele>346</ele>
        <time>2016-03-23T12:29:32Z</time>
      </trkpt>
      <trkpt lat="44.47809" lon="1.69215">
        <ele>346</ele>
        <time>2016-03-23T12:29:37Z</time>
      </trkpt>
      <trkpt lat="44.47804" lon="1.69217">
        <ele>345</ele>
        <time>2016-03-23T12:29:43Z</time>
      </trkpt>
      <trkpt lat="44.47799" lon="1.69217">
        <ele>345</ele>
        <time>2016-03-23T12:29:46Z</time>
      </trkpt>
      <trkpt lat="44.47795" lon="1.69214">
        <ele>344</ele>
        <time>2016-03-23T12:29:49Z</time>
      </trkpt>
      <trkpt lat="44.4779" lon="1.69213">
        <ele>343</ele>
        <time>2016-03-23T12:29:54Z</time>
      </trkpt>
      <trkpt lat="44.47786" lon="1.69211">
        <ele>341</ele>
        <time>2016-03-23T12:29:58Z</time>
      </trkpt>
      <trkpt lat="44.47781" lon="1.69211">
        <ele>341</ele>
        <time>2016-03-23T12:30:02Z</time>
      </trkpt>
      <trkpt lat="44.47776" lon="1.6921">
        <ele>340</ele>
        <time>2016-03-23T12:30:06Z</time>
      </trkpt>
      <trkpt lat="44.4777" lon="1.69207">
        <ele>340</ele>
        <time>2016-03-23T12:30:09Z</time>
      </trkpt>
      <trkpt lat="44.47765" lon="1.69205">
        <ele>340</ele>
        <time>2016-03-23T12:30:13Z</time>
      </trkpt>
      <trkpt lat="44.4776" lon="1.69204">
        <ele>340</ele>
        <time>2016-03-23T12:30:19Z</time>
      </trkpt>
      <trkpt lat="44.47755" lon="1.69202">
        <ele>340</ele>
        <time>2016-03-23T12:30:23Z</time>
      </trkpt>
      <trkpt lat="44.4775" lon="1.69199">
        <ele>339</ele>
        <time>2016-03-23T12:30:28Z</time>
      </trkpt>
      <trkpt lat="44.47745" lon="1.69197">
        <ele>339</ele>
        <time>2016-03-23T12:30:32Z</time>
      </trkpt>
      <trkpt lat="44.47741" lon="1.69194">
        <ele>338</ele>
        <time>2016-03-23T12:30:36Z</time>
      </trkpt>
      <trkpt lat="44.47736" lon="1.69193">
        <ele>338</ele>
        <time>2016-03-23T12:30:41Z</time>
      </trkpt>
      <trkpt lat="44.47731" lon="1.69192">
        <ele>337</ele>
        <time>2016-03-23T12:30:45Z</time>
      </trkpt>
      <trkpt lat="44.47727" lon="1.6919">
        <ele>337</ele>
        <time>2016-03-23T12:30:49Z</time>
      </trkpt>
      <trkpt lat="44.47722" lon="1.69188">
        <ele>336</ele>
        <time>2016-03-23T12:30:54Z</time>
      </trkpt>
      <trkpt lat="44.47717" lon="1.69188">
        <ele>336</ele>
        <time>2016-03-23T12:30:58Z</time>
      </trkpt>
      <trkpt lat="44.47712" lon="1.69185">
        <ele>336</ele>
        <time>2016-03-23T12:31:02Z</time>
      </trkpt>
      <trkpt lat="44.47707" lon="1.69185">
        <ele>335</ele>
        <time>2016-03-23T12:31:06Z</time>
      </trkpt>
      <trkpt lat="44.47701" lon="1.69183">
        <ele>335</ele>
        <time>2016-03-23T12:31:11Z</time>
      </trkpt>
      <trkpt lat="44.47696" lon="1.69181">
        <ele>334</ele>
        <time>2016-03-23T12:31:16Z</time>
      </trkpt>
      <trkpt lat="44.47691" lon="1.6918">
        <ele>334</ele>
        <time>2016-03-23T12:31:21Z</time>
      </trkpt>
      <trkpt lat="44.47686" lon="1.69178">
        <ele>334</ele>
        <time>2016-03-23T12:31:24Z</time>
      </trkpt>
      <trkpt lat="44.47682" lon="1.69177">
        <ele>333</ele>
        <time>2016-03-23T12:31:28Z</time>
      </trkpt>
      <trkpt lat="44.47677" lon="1.69174">
        <ele>333</ele>
        <time>2016-03-23T12:31:31Z</time>
      </trkpt>
      <trkpt lat="44.47672" lon="1.69172">
        <ele>333</ele>
        <time>2016-03-23T12:31:35Z</time>
      </trkpt>
      <trkpt lat="44.47667" lon="1.69171">
        <ele>332</ele>
        <time>2016-03-23T12:31:39Z</time>
      </trkpt>
      <trkpt lat="44.47662" lon="1.69168">
        <ele>332</ele>
        <time>2016-03-23T12:31:43Z</time>
      </trkpt>
      <trkpt lat="44.47657" lon="1.69166">
        <ele>332</ele>
        <time>2016-03-23T12:31:46Z</time>
      </trkpt>
      <trkpt lat="44.47651" lon="1.69164">
        <ele>331</ele>
        <time>2016-03-23T12:31:50Z</time>
      </trkpt>
      <trkpt lat="44.47646" lon="1.69163">
        <ele>331</ele>
        <time>2016-03-23T12:31:54Z</time>
      </trkpt>
      <trkpt lat="44.47641" lon="1.6916">
        <ele>330</ele>
        <time>2016-03-23T12:31:57Z</time>
      </trkpt>
      <trkpt lat="44.47636" lon="1.69158">
        <ele>330</ele>
        <time>2016-03-23T12:32:01Z</time>
      </trkpt>
      <trkpt lat="44.47632" lon="1.69156">
        <ele>330</ele>
        <time>2016-03-23T12:32:04Z</time>
      </trkpt>
      <trkpt lat="44.47627" lon="1.69152">
        <ele>330</ele>
        <time>2016-03-23T12:32:08Z</time>
      </trkpt>
      <trkpt lat="44.47621" lon="1.69153">
        <ele>330</ele>
        <time>2016-03-23T12:32:12Z</time>
      </trkpt>
      <trkpt lat="44.47617" lon="1.6915">
        <ele>329</ele>
        <time>2016-03-23T12:32:16Z</time>
      </trkpt>
      <trkpt lat="44.47613" lon="1.69147">
        <ele>328</ele>
        <time>2016-03-23T12:32:20Z</time>
      </trkpt>
      <trkpt lat="44.47609" lon="1.69144">
        <ele>328</ele>
        <time>2016-03-23T12:32:24Z</time>
      </trkpt>
      <trkpt lat="44.47604" lon="1.69141">
        <ele>327</ele>
        <time>2016-03-23T12:32:28Z</time>
      </trkpt>
      <trkpt lat="44.47595" lon="1.69135">
        <ele>326</ele>
        <time>2016-03-23T12:32:34Z</time>
      </trkpt>
      <trkpt lat="44.47538" lon="1.69145">
        <ele>329</ele>
        <time>2016-03-23T12:33:13Z</time>
      </trkpt>
      <trkpt lat="44.47545" lon="1.69115">
        <ele>332</ele>
        <time>2016-03-23T12:33:15Z</time>
      </trkpt>
      <trkpt lat="44.47543" lon="1.69109">
        <ele>334</ele>
        <time>2016-03-23T12:33:16Z</time>
      </trkpt>
      <trkpt lat="44.4754" lon="1.69114">
        <ele>336</ele>
        <time>2016-03-23T12:33:22Z</time>
      </trkpt>
      <trkpt lat="44.47534" lon="1.69117">
        <ele>337</ele>
        <time>2016-03-23T12:33:26Z</time>
      </trkpt>
      <trkpt lat="44.47528" lon="1.69116">
        <ele>335</ele>
        <time>2016-03-23T12:33:30Z</time>
      </trkpt>
      <trkpt lat="44.47524" lon="1.69118">
        <ele>333</ele>
        <time>2016-03-23T12:33:35Z</time>
      </trkpt>
      <trkpt lat="44.47519" lon="1.69119">
        <ele>330</ele>
        <time>2016-03-23T12:33:40Z</time>
      </trkpt>
      <trkpt lat="44.47514" lon="1.69119">
        <ele>330</ele>
        <time>2016-03-23T12:33:45Z</time>
      </trkpt>
      <trkpt lat="44.47509" lon="1.69118">
        <ele>328</ele>
        <time>2016-03-23T12:33:51Z</time>
      </trkpt>
      <trkpt lat="44.47504" lon="1.6912">
        <ele>327</ele>
        <time>2016-03-23T12:33:56Z</time>
      </trkpt>
      <trkpt lat="44.47498" lon="1.6912">
        <ele>326</ele>
        <time>2016-03-23T12:34:00Z</time>
      </trkpt>
      <trkpt lat="44.47494" lon="1.69119">
        <ele>325</ele>
        <time>2016-03-23T12:34:05Z</time>
      </trkpt>
      <trkpt lat="44.47489" lon="1.69118">
        <ele>323</ele>
        <time>2016-03-23T12:34:09Z</time>
      </trkpt>
      <trkpt lat="44.47484" lon="1.69118">
        <ele>322</ele>
        <time>2016-03-23T12:34:13Z</time>
      </trkpt>
      <trkpt lat="44.47479" lon="1.69116">
        <ele>321</ele>
        <time>2016-03-23T12:34:17Z</time>
      </trkpt>
      <trkpt lat="44.47473" lon="1.69116">
        <ele>321</ele>
        <time>2016-03-23T12:34:21Z</time>
      </trkpt>
      <trkpt lat="44.47467" lon="1.69117">
        <ele>321</ele>
        <time>2016-03-23T12:34:26Z</time>
      </trkpt>
      <trkpt lat="44.47462" lon="1.69117">
        <ele>321</ele>
        <time>2016-03-23T12:34:31Z</time>
      </trkpt>
      <trkpt lat="44.47457" lon="1.69115">
        <ele>322</ele>
        <time>2016-03-23T12:34:36Z</time>
      </trkpt>
      <trkpt lat="44.47452" lon="1.69114">
        <ele>322</ele>
        <time>2016-03-23T12:34:39Z</time>
      </trkpt>
      <trkpt lat="44.47447" lon="1.69113">
        <ele>323</ele>
        <time>2016-03-23T12:34:44Z</time>
      </trkpt>
      <trkpt lat="44.47442" lon="1.69115">
        <ele>323</ele>
        <time>2016-03-23T12:34:48Z</time>
      </trkpt>
      <trkpt lat="44.47438" lon="1.6912">
        <ele>324</ele>
        <time>2016-03-23T12:34:54Z</time>
      </trkpt>
      <trkpt lat="44.47434" lon="1.69123">
        <ele>324</ele>
        <time>2016-03-23T12:34:59Z</time>
      </trkpt>
      <trkpt lat="44.47428" lon="1.69124">
        <ele>324</ele>
        <time>2016-03-23T12:35:05Z</time>
      </trkpt>
      <trkpt lat="44.47424" lon="1.69123">
        <ele>325</ele>
        <time>2016-03-23T12:35:09Z</time>
      </trkpt>
      <trkpt lat="44.47419" lon="1.69118">
        <ele>325</ele>
        <time>2016-03-23T12:35:14Z</time>
      </trkpt>
      <trkpt lat="44.47417" lon="1.69111">
        <ele>326</ele>
        <time>2016-03-23T12:35:18Z</time>
      </trkpt>
      <trkpt lat="44.47414" lon="1.69103">
        <ele>327</ele>
        <time>2016-03-23T12:35:26Z</time>
      </trkpt>
      <trkpt lat="44.47412" lon="1.69096">
        <ele>328</ele>
        <time>2016-03-23T12:35:31Z</time>
      </trkpt>
      <trkpt lat="44.47411" lon="1.6909">
        <ele>329</ele>
        <time>2016-03-23T12:35:38Z</time>
      </trkpt>
      <trkpt lat="44.47406" lon="1.69085">
        <ele>329</ele>
        <time>2016-03-23T12:35:43Z</time>
      </trkpt>
      <trkpt lat="44.47402" lon="1.69083">
        <ele>330</ele>
        <time>2016-03-23T12:35:49Z</time>
      </trkpt>
      <trkpt lat="44.47397" lon="1.69082">
        <ele>330</ele>
        <time>2016-03-23T12:36:24Z</time>
      </trkpt>
      <trkpt lat="44.47394" lon="1.69081">
        <ele>330</ele>
        <time>2016-03-23T12:36:44Z</time>
      </trkpt>
      <trkpt lat="44.47395" lon="1.69081">
        <ele>331</ele>
        <time>2016-03-23T12:36:45Z</time>
      </trkpt>
      <trkpt lat="44.47393" lon="1.69081">
        <ele>332</ele>
        <time>2016-03-23T12:37:13Z</time>
      </trkpt>
      <trkpt lat="44.47421" lon="1.6902">
        <ele>320</ele>
        <time>2016-03-23T13:08:10Z</time>
      </trkpt>
      <trkpt lat="44.47423" lon="1.69018">
        <ele>316</ele>
        <time>2016-03-23T13:08:11Z</time>
      </trkpt>
      <trkpt lat="44.47426" lon="1.69011">
        <ele>312</ele>
        <time>2016-03-23T13:08:13Z</time>
      </trkpt>
      <trkpt lat="44.4742" lon="1.69006">
        <ele>311</ele>
        <time>2016-03-23T13:08:15Z</time>
      </trkpt>
      <trkpt lat="44.47415" lon="1.69005">
        <ele>311</ele>
        <time>2016-03-23T13:08:16Z</time>
      </trkpt>
      <trkpt lat="44.47421" lon="1.69002">
        <ele>314</ele>
        <time>2016-03-23T13:08:18Z</time>
      </trkpt>
      <trkpt lat="44.4742" lon="1.68995">
        <ele>317</ele>
        <time>2016-03-23T13:08:22Z</time>
      </trkpt>
      <trkpt lat="44.47419" lon="1.68988">
        <ele>320</ele>
        <time>2016-03-23T13:08:25Z</time>
      </trkpt>
      <trkpt lat="44.47421" lon="1.6898">
        <ele>321</ele>
        <time>2016-03-23T13:08:37Z</time>
      </trkpt>
      <trkpt lat="44.47422" lon="1.68974">
        <ele>319</ele>
        <time>2016-03-23T13:08:40Z</time>
      </trkpt>
      <trkpt lat="44.47422" lon="1.68968">
        <ele>319</ele>
        <time>2016-03-23T13:08:45Z</time>
      </trkpt>
      <trkpt lat="44.47423" lon="1.68961">
        <ele>319</ele>
        <time>2016-03-23T13:08:50Z</time>
      </trkpt>
      <trkpt lat="44.47425" lon="1.68955">
        <ele>318</ele>
        <time>2016-03-23T13:08:55Z</time>
      </trkpt>
      <trkpt lat="44.47426" lon="1.68953">
        <ele>318</ele>
        <time>2016-03-23T13:09:12Z</time>
      </trkpt>
      <trkpt lat="44.47426" lon="1.68953">
        <ele>318</ele>
        <time>2016-03-23T13:09:13Z</time>
      </trkpt>
      <trkpt lat="44.47428" lon="1.68947">
        <ele>317</ele>
        <time>2016-03-23T13:09:33Z</time>
      </trkpt>
      <trkpt lat="44.47424" lon="1.68941">
        <ele>316</ele>
        <time>2016-03-23T13:09:38Z</time>
      </trkpt>
      <trkpt lat="44.47421" lon="1.68937">
        <ele>316</ele>
        <time>2016-03-23T13:09:42Z</time>
      </trkpt>
      <trkpt lat="44.47418" lon="1.68932">
        <ele>316</ele>
        <time>2016-03-23T13:09:47Z</time>
      </trkpt>
      <trkpt lat="44.47419" lon="1.68923">
        <ele>315</ele>
        <time>2016-03-23T13:09:52Z</time>
      </trkpt>
      <trkpt lat="44.47421" lon="1.68918">
        <ele>315</ele>
        <time>2016-03-23T13:09:55Z</time>
      </trkpt>
      <trkpt lat="44.47423" lon="1.68912">
        <ele>315</ele>
        <time>2016-03-23T13:10:01Z</time>
      </trkpt>
      <trkpt lat="44.47424" lon="1.68905">
        <ele>314</ele>
        <time>2016-03-23T13:10:07Z</time>
      </trkpt>
      <trkpt lat="44.47425" lon="1.68899">
        <ele>313</ele>
        <time>2016-03-23T13:10:12Z</time>
      </trkpt>
      <trkpt lat="44.47428" lon="1.68895">
        <ele>312</ele>
        <time>2016-03-23T13:10:16Z</time>
      </trkpt>
      <trkpt lat="44.47431" lon="1.68889">
        <ele>311</ele>
        <time>2016-03-23T13:10:20Z</time>
      </trkpt>
      <trkpt lat="44.47432" lon="1.68882">
        <ele>310</ele>
        <time>2016-03-23T13:10:25Z</time>
      </trkpt>
      <trkpt lat="44.47436" lon="1.68878">
        <ele>310</ele>
        <time>2016-03-23T13:10:29Z</time>
      </trkpt>
      <trkpt lat="44.47439" lon="1.6887">
        <ele>310</ele>
        <time>2016-03-23T13:10:35Z</time>
      </trkpt>
      <trkpt lat="44.47441" lon="1.68864">
        <ele>310</ele>
        <time>2016-03-23T13:10:39Z</time>
      </trkpt>
      <trkpt lat="44.47442" lon="1.68857">
        <ele>310</ele>
        <time>2016-03-23T13:10:44Z</time>
      </trkpt>
      <trkpt lat="44.47445" lon="1.68853">
        <ele>311</ele>
        <time>2016-03-23T13:10:48Z</time>
      </trkpt>
      <trkpt lat="44.47443" lon="1.68845">
        <ele>311</ele>
        <time>2016-03-23T13:10:53Z</time>
      </trkpt>
      <trkpt lat="44.47439" lon="1.68841">
        <ele>311</ele>
        <time>2016-03-23T13:10:58Z</time>
      </trkpt>
      <trkpt lat="44.47435" lon="1.68838">
        <ele>311</ele>
        <time>2016-03-23T13:11:02Z</time>
      </trkpt>
      <trkpt lat="44.4743" lon="1.68835">
        <ele>310</ele>
        <time>2016-03-23T13:11:07Z</time>
      </trkpt>
      <trkpt lat="44.47431" lon="1.68829">
        <ele>309</ele>
        <time>2016-03-23T13:11:14Z</time>
      </trkpt>
      <trkpt lat="44.47432" lon="1.68822">
        <ele>307</ele>
        <time>2016-03-23T13:11:18Z</time>
      </trkpt>
      <trkpt lat="44.47433" lon="1.68815">
        <ele>306</ele>
        <time>2016-03-23T13:11:25Z</time>
      </trkpt>
      <trkpt lat="44.47437" lon="1.68805">
        <ele>305</ele>
        <time>2016-03-23T13:11:31Z</time>
      </trkpt>
      <trkpt lat="44.4744" lon="1.68801">
        <ele>304</ele>
        <time>2016-03-23T13:11:36Z</time>
      </trkpt>
      <trkpt lat="44.47443" lon="1.68796">
        <ele>303</ele>
        <time>2016-03-23T13:11:40Z</time>
      </trkpt>
      <trkpt lat="44.47445" lon="1.68789">
        <ele>303</ele>
        <time>2016-03-23T13:11:46Z</time>
      </trkpt>
      <trkpt lat="44.47446" lon="1.68782">
        <ele>302</ele>
        <time>2016-03-23T13:11:49Z</time>
      </trkpt>
      <trkpt lat="44.47446" lon="1.68775">
        <ele>302</ele>
        <time>2016-03-23T13:11:54Z</time>
      </trkpt>
      <trkpt lat="44.47445" lon="1.68768">
        <ele>302</ele>
        <time>2016-03-23T13:11:59Z</time>
      </trkpt>
      <trkpt lat="44.47446" lon="1.6876">
        <ele>301</ele>
        <time>2016-03-23T13:12:05Z</time>
      </trkpt>
      <trkpt lat="44.47448" lon="1.68754">
        <ele>301</ele>
        <time>2016-03-23T13:12:10Z</time>
      </trkpt>
      <trkpt lat="44.47452" lon="1.6875">
        <ele>300</ele>
        <time>2016-03-23T13:12:14Z</time>
      </trkpt>
      <trkpt lat="44.47454" lon="1.68743">
        <ele>300</ele>
        <time>2016-03-23T13:12:18Z</time>
      </trkpt>
      <trkpt lat="44.47453" lon="1.68734">
        <ele>299</ele>
        <time>2016-03-23T13:12:24Z</time>
      </trkpt>
      <trkpt lat="44.47454" lon="1.68728">
        <ele>298</ele>
        <time>2016-03-23T13:12:32Z</time>
      </trkpt>
      <trkpt lat="44.47454" lon="1.68719">
        <ele>297</ele>
        <time>2016-03-23T13:12:37Z</time>
      </trkpt>
      <trkpt lat="44.47468" lon="1.68636">
        <ele>301</ele>
        <time>2016-03-23T13:13:18Z</time>
      </trkpt>
      <trkpt lat="44.47455" lon="1.68626">
        <ele>304</ele>
        <time>2016-03-23T13:13:19Z</time>
      </trkpt>
      <trkpt lat="44.47455" lon="1.68635">
        <ele>307</ele>
        <time>2016-03-23T13:13:20Z</time>
      </trkpt>
      <trkpt lat="44.47458" lon="1.68641">
        <ele>309</ele>
        <time>2016-03-23T13:13:26Z</time>
      </trkpt>
      <trkpt lat="44.47461" lon="1.68648">
        <ele>310</ele>
        <time>2016-03-23T13:13:48Z</time>
      </trkpt>
      <trkpt lat="44.47463" lon="1.68649">
        <ele>306</ele>
        <time>2016-03-23T13:14:05Z</time>
      </trkpt>
      <trkpt lat="44.47463" lon="1.68649">
        <ele>302</ele>
        <time>2016-03-23T13:14:06Z</time>
      </trkpt>
      <trkpt lat="44.47463" lon="1.68649">
        <ele>300</ele>
        <time>2016-03-23T13:14:35Z</time>
      </trkpt>
      <trkpt lat="44.47463" lon="1.68649">
        <ele>299</ele>
        <time>2016-03-23T13:14:36Z</time>
      </trkpt>
      <trkpt lat="44.47463" lon="1.68649">
        <ele>299</ele>
        <time>2016-03-23T13:15:06Z</time>
      </trkpt>
      <trkpt lat="44.47463" lon="1.68649">
        <ele>299</ele>
        <time>2016-03-23T13:15:35Z</time>
      </trkpt>
      <trkpt lat="44.47463" lon="1.68649">
        <ele>299</ele>
        <time>2016-03-23T13:15:36Z</time>
      </trkpt>
      <trkpt lat="44.47469" lon="1.68648">
        <ele>300</ele>
        <time>2016-03-23T13:16:03Z</time>
      </trkpt>
      <trkpt lat="44.47474" lon="1.68643">
        <ele>300</ele>
        <time>2016-03-23T13:16:05Z</time>
      </trkpt>
      <trkpt lat="44.47479" lon="1.68639">
        <ele>300</ele>
        <time>2016-03-23T13:16:09Z</time>
      </trkpt>
      <trkpt lat="44.47482" lon="1.68633">
        <ele>299</ele>
        <time>2016-03-23T13:16:14Z</time>
      </trkpt>
      <trkpt lat="44.47487" lon="1.68632">
        <ele>298</ele>
        <time>2016-03-23T13:16:18Z</time>
      </trkpt>
      <trkpt lat="44.47491" lon="1.68629">
        <ele>297</ele>
        <time>2016-03-23T13:16:23Z</time>
      </trkpt>
      <trkpt lat="44.47517" lon="1.68618">
        <ele>295</ele>
        <time>2016-03-23T13:16:43Z</time>
      </trkpt>
      <trkpt lat="44.47521" lon="1.68614">
        <ele>294</ele>
        <time>2016-03-23T13:16:47Z</time>
      </trkpt>
      <trkpt lat="44.47526" lon="1.68614">
        <ele>292</ele>
        <time>2016-03-23T13:16:53Z</time>
      </trkpt>
      <trkpt lat="44.47532" lon="1.68609">
        <ele>291</ele>
        <time>2016-03-23T13:16:57Z</time>
      </trkpt>
      <trkpt lat="44.47537" lon="1.68606">
        <ele>289</ele>
        <time>2016-03-23T13:17:02Z</time>
      </trkpt>
      <trkpt lat="44.47542" lon="1.68604">
        <ele>288</ele>
        <time>2016-03-23T13:17:08Z</time>
      </trkpt>
      <trkpt lat="44.47548" lon="1.68605">
        <ele>286</ele>
        <time>2016-03-23T13:17:12Z</time>
      </trkpt>
      <trkpt lat="44.47554" lon="1.68605">
        <ele>286</ele>
        <time>2016-03-23T13:17:22Z</time>
      </trkpt>
      <trkpt lat="44.47559" lon="1.68603">
        <ele>286</ele>
        <time>2016-03-23T13:17:26Z</time>
      </trkpt>
      <trkpt lat="44.47564" lon="1.68603">
        <ele>286</ele>
        <time>2016-03-23T13:17:30Z</time>
      </trkpt>
      <trkpt lat="44.4757" lon="1.68603">
        <ele>286</ele>
        <time>2016-03-23T13:17:34Z</time>
      </trkpt>
      <trkpt lat="44.47575" lon="1.68601">
        <ele>288</ele>
        <time>2016-03-23T13:17:36Z</time>
      </trkpt>
      <trkpt lat="44.47609" lon="1.68591">
        <ele>285</ele>
        <time>2016-03-23T13:18:11Z</time>
      </trkpt>
      <trkpt lat="44.47615" lon="1.68595">
        <ele>284</ele>
        <time>2016-03-23T13:18:12Z</time>
      </trkpt>
      <trkpt lat="44.47621" lon="1.68597">
        <ele>284</ele>
        <time>2016-03-23T13:18:14Z</time>
      </trkpt>
      <trkpt lat="44.47627" lon="1.686">
        <ele>285</ele>
        <time>2016-03-23T13:18:17Z</time>
      </trkpt>
      <trkpt lat="44.47635" lon="1.68603">
        <ele>287</ele>
        <time>2016-03-23T13:18:22Z</time>
      </trkpt>
      <trkpt lat="44.47641" lon="1.68604">
        <ele>293</ele>
        <time>2016-03-23T13:18:23Z</time>
      </trkpt>
      <trkpt lat="44.47649" lon="1.68604">
        <ele>299</ele>
        <time>2016-03-23T13:18:25Z</time>
      </trkpt>
      <trkpt lat="44.47645" lon="1.68613">
        <ele>304</ele>
        <time>2016-03-23T13:18:26Z</time>
      </trkpt>
      <trkpt lat="44.4765" lon="1.68614">
        <ele>307</ele>
        <time>2016-03-23T13:18:32Z</time>
      </trkpt>
      <trkpt lat="44.47655" lon="1.68616">
        <ele>308</ele>
        <time>2016-03-23T13:18:36Z</time>
      </trkpt>
      <trkpt lat="44.4766" lon="1.68617">
        <ele>307</ele>
        <time>2016-03-23T13:18:38Z</time>
      </trkpt>
      <trkpt lat="44.47665" lon="1.68619">
        <ele>306</ele>
        <time>2016-03-23T13:18:44Z</time>
      </trkpt>
      <trkpt lat="44.4767" lon="1.68618">
        <ele>304</ele>
        <time>2016-03-23T13:18:48Z</time>
      </trkpt>
      <trkpt lat="44.47675" lon="1.68617">
        <ele>303</ele>
        <time>2016-03-23T13:18:52Z</time>
      </trkpt>
      <trkpt lat="44.4768" lon="1.68619">
        <ele>302</ele>
        <time>2016-03-23T13:18:55Z</time>
      </trkpt>
      <trkpt lat="44.47686" lon="1.68617">
        <ele>301</ele>
        <time>2016-03-23T13:18:59Z</time>
      </trkpt>
      <trkpt lat="44.47691" lon="1.68617">
        <ele>300</ele>
        <time>2016-03-23T13:19:05Z</time>
      </trkpt>
      <trkpt lat="44.47695" lon="1.68616">
        <ele>300</ele>
        <time>2016-03-23T13:19:08Z</time>
      </trkpt>
      <trkpt lat="44.47701" lon="1.68616">
        <ele>300</ele>
        <time>2016-03-23T13:19:13Z</time>
      </trkpt>
      <trkpt lat="44.47706" lon="1.68616">
        <ele>299</ele>
        <time>2016-03-23T13:19:17Z</time>
      </trkpt>
      <trkpt lat="44.47712" lon="1.68617">
        <ele>299</ele>
        <time>2016-03-23T13:19:21Z</time>
      </trkpt>
      <trkpt lat="44.47717" lon="1.68617">
        <ele>299</ele>
        <time>2016-03-23T13:19:25Z</time>
      </trkpt>
      <trkpt lat="44.47723" lon="1.68615">
        <ele>299</ele>
        <time>2016-03-23T13:19:30Z</time>
      </trkpt>
      <trkpt lat="44.47728" lon="1.68615">
        <ele>299</ele>
        <time>2016-03-23T13:19:33Z</time>
      </trkpt>
      <trkpt lat="44.47732" lon="1.68614">
        <ele>299</ele>
        <time>2016-03-23T13:19:38Z</time>
      </trkpt>
      <trkpt lat="44.47736" lon="1.68612">
        <ele>298</ele>
        <time>2016-03-23T13:19:41Z</time>
      </trkpt>
      <trkpt lat="44.47741" lon="1.6861">
        <ele>298</ele>
        <time>2016-03-23T13:19:45Z</time>
      </trkpt>
      <trkpt lat="44.4777" lon="1.68592">
        <ele>299</ele>
        <time>2016-03-23T13:20:09Z</time>
      </trkpt>
      <trkpt lat="44.47771" lon="1.68591">
        <ele>300</ele>
        <time>2016-03-23T13:20:10Z</time>
      </trkpt>
      <trkpt lat="44.47775" lon="1.68588">
        <ele>301</ele>
        <time>2016-03-23T13:20:15Z</time>
      </trkpt>
      <trkpt lat="44.47779" lon="1.68585">
        <ele>302</ele>
        <time>2016-03-23T13:20:20Z</time>
      </trkpt>
      <trkpt lat="44.47783" lon="1.6858">
        <ele>302</ele>
        <time>2016-03-23T13:20:27Z</time>
      </trkpt>
      <trkpt lat="44.47788" lon="1.68576">
        <ele>301</ele>
        <time>2016-03-23T13:20:31Z</time>
      </trkpt>
      <trkpt lat="44.47792" lon="1.68572">
        <ele>300</ele>
        <time>2016-03-23T13:20:35Z</time>
      </trkpt>
      <trkpt lat="44.47797" lon="1.68569">
        <ele>299</ele>
        <time>2016-03-23T13:20:40Z</time>
      </trkpt>
      <trkpt lat="44.47801" lon="1.68567">
        <ele>298</ele>
        <time>2016-03-23T13:20:43Z</time>
      </trkpt>
      <trkpt lat="44.47807" lon="1.68564">
        <ele>298</ele>
        <time>2016-03-23T13:20:46Z</time>
      </trkpt>
      <trkpt lat="44.4781" lon="1.6856">
        <ele>298</ele>
        <time>2016-03-23T13:20:50Z</time>
      </trkpt>
      <trkpt lat="44.47816" lon="1.68553">
        <ele>299</ele>
        <time>2016-03-23T13:20:55Z</time>
      </trkpt>
      <trkpt lat="44.47821" lon="1.68551">
        <ele>300</ele>
        <time>2016-03-23T13:20:59Z</time>
      </trkpt>
      <trkpt lat="44.47827" lon="1.68552">
        <ele>301</ele>
        <time>2016-03-23T13:21:03Z</time>
      </trkpt>
      <trkpt lat="44.47832" lon="1.68551">
        <ele>302</ele>
        <time>2016-03-23T13:21:06Z</time>
      </trkpt>
      <trkpt lat="44.47835" lon="1.68547">
        <ele>303</ele>
        <time>2016-03-23T13:21:09Z</time>
      </trkpt>
      <trkpt lat="44.4784" lon="1.68543">
        <ele>303</ele>
        <time>2016-03-23T13:21:12Z</time>
      </trkpt>
      <trkpt lat="44.47844" lon="1.68539">
        <ele>303</ele>
        <time>2016-03-23T13:21:16Z</time>
      </trkpt>
      <trkpt lat="44.47847" lon="1.68534">
        <ele>304</ele>
        <time>2016-03-23T13:21:20Z</time>
      </trkpt>
      <trkpt lat="44.47851" lon="1.68529">
        <ele>304</ele>
        <time>2016-03-23T13:21:23Z</time>
      </trkpt>
      <trkpt lat="44.47855" lon="1.68525">
        <ele>304</ele>
        <time>2016-03-23T13:21:27Z</time>
      </trkpt>
      <trkpt lat="44.4786" lon="1.68523">
        <ele>304</ele>
        <time>2016-03-23T13:21:31Z</time>
      </trkpt>
      <trkpt lat="44.47865" lon="1.6852">
        <ele>305</ele>
        <time>2016-03-23T13:21:49Z</time>
      </trkpt>
      <trkpt lat="44.47858" lon="1.68516">
        <ele>304</ele>
        <time>2016-03-23T13:21:51Z</time>
      </trkpt>
      <trkpt lat="44.47861" lon="1.68509">
        <ele>303</ele>
        <time>2016-03-23T13:21:56Z</time>
      </trkpt>
      <trkpt lat="44.47858" lon="1.68501">
        <ele>302</ele>
        <time>2016-03-23T13:22:00Z</time>
      </trkpt>
      <trkpt lat="44.47859" lon="1.68495">
        <ele>301</ele>
        <time>2016-03-23T13:22:06Z</time>
      </trkpt>
      <trkpt lat="44.47857" lon="1.68489">
        <ele>300</ele>
        <time>2016-03-23T13:22:10Z</time>
      </trkpt>
      <trkpt lat="44.47855" lon="1.68495">
        <ele>301</ele>
        <time>2016-03-23T13:22:14Z</time>
      </trkpt>
      <trkpt lat="44.4785" lon="1.68495">
        <ele>301</ele>
        <time>2016-03-23T13:22:16Z</time>
      </trkpt>
      <trkpt lat="44.47857" lon="1.68496">
        <ele>301</ele>
        <time>2016-03-23T13:22:19Z</time>
      </trkpt>
      <trkpt lat="44.47859" lon="1.68488">
        <ele>302</ele>
        <time>2016-03-23T13:22:21Z</time>
      </trkpt>
      <trkpt lat="44.47854" lon="1.68487">
        <ele>302</ele>
        <time>2016-03-23T13:22:22Z</time>
      </trkpt>
      <trkpt lat="44.47848" lon="1.68482">
        <ele>302</ele>
        <time>2016-03-23T13:22:23Z</time>
      </trkpt>
      <trkpt lat="44.47853" lon="1.68479">
        <ele>302</ele>
        <time>2016-03-23T13:22:30Z</time>
      </trkpt>
      <trkpt lat="44.47848" lon="1.68476">
        <ele>302</ele>
        <time>2016-03-23T13:22:40Z</time>
      </trkpt>
      <trkpt lat="44.47858" lon="1.68424">
        <ele>300</ele>
        <time>2016-03-23T13:23:20Z</time>
      </trkpt>
      <trkpt lat="44.47859" lon="1.68426">
        <ele>297</ele>
        <time>2016-03-23T13:23:21Z</time>
      </trkpt>
      <trkpt lat="44.47878" lon="1.6833">
        <ele>298</ele>
        <time>2016-03-23T13:24:08Z</time>
      </trkpt>
      <trkpt lat="44.47868" lon="1.68319">
        <ele>299</ele>
        <time>2016-03-23T13:24:09Z</time>
      </trkpt>
      <trkpt lat="44.47873" lon="1.68324">
        <ele>298</ele>
        <time>2016-03-23T13:24:11Z</time>
      </trkpt>
      <trkpt lat="44.4787" lon="1.68315">
        <ele>300</ele>
        <time>2016-03-23T13:24:15Z</time>
      </trkpt>
      <trkpt lat="44.47867" lon="1.68305">
        <ele>303</ele>
        <time>2016-03-23T13:24:17Z</time>
      </trkpt>
      <trkpt lat="44.47869" lon="1.683">
        <ele>302</ele>
        <time>2016-03-23T13:24:22Z</time>
      </trkpt>
      <trkpt lat="44.4787" lon="1.68293">
        <ele>302</ele>
        <time>2016-03-23T13:24:27Z</time>
      </trkpt>
      <trkpt lat="44.47868" lon="1.68286">
        <ele>302</ele>
        <time>2016-03-23T13:24:32Z</time>
      </trkpt>
      <trkpt lat="44.4787" lon="1.68275">
        <ele>302</ele>
        <time>2016-03-23T13:24:39Z</time>
      </trkpt>
      <trkpt lat="44.47873" lon="1.68269">
        <ele>301</ele>
        <time>2016-03-23T13:24:43Z</time>
      </trkpt>
      <trkpt lat="44.47873" lon="1.6826">
        <ele>300</ele>
        <time>2016-03-23T13:24:48Z</time>
      </trkpt>
      <trkpt lat="44.47871" lon="1.68252">
        <ele>299</ele>
        <time>2016-03-23T13:24:53Z</time>
      </trkpt>
      <trkpt lat="44.47872" lon="1.68245">
        <ele>298</ele>
        <time>2016-03-23T13:24:59Z</time>
      </trkpt>
      <trkpt lat="44.47875" lon="1.68238">
        <ele>298</ele>
        <time>2016-03-23T13:25:08Z</time>
      </trkpt>
      <trkpt lat="44.47875" lon="1.68231">
        <ele>297</ele>
        <time>2016-03-23T13:25:12Z</time>
      </trkpt>
      <trkpt lat="44.47877" lon="1.68224">
        <ele>296</ele>
        <time>2016-03-23T13:25:17Z</time>
      </trkpt>
      <trkpt lat="44.47881" lon="1.68219">
        <ele>296</ele>
        <time>2016-03-23T13:25:21Z</time>
      </trkpt>
      <trkpt lat="44.47883" lon="1.68213">
        <ele>296</ele>
        <time>2016-03-23T13:25:25Z</time>
      </trkpt>
      <trkpt lat="44.47887" lon="1.68209">
        <ele>296</ele>
        <time>2016-03-23T13:25:30Z</time>
      </trkpt>
      <trkpt lat="44.47887" lon="1.68201">
        <ele>296</ele>
        <time>2016-03-23T13:25:35Z</time>
      </trkpt>
      <trkpt lat="44.47887" lon="1.68194">
        <ele>297</ele>
        <time>2016-03-23T13:25:42Z</time>
      </trkpt>
      <trkpt lat="44.47889" lon="1.68187">
        <ele>297</ele>
        <time>2016-03-23T13:25:47Z</time>
      </trkpt>
      <trkpt lat="44.47889" lon="1.68193">
        <ele>298</ele>
        <time>2016-03-23T13:26:04Z</time>
      </trkpt>
      <trkpt lat="44.47887" lon="1.682">
        <ele>298</ele>
        <time>2016-03-23T13:26:14Z</time>
      </trkpt>
      <trkpt lat="44.47887" lon="1.68191">
        <ele>299</ele>
        <time>2016-03-23T13:26:46Z</time>
      </trkpt>
      <trkpt lat="44.47891" lon="1.68185">
        <ele>298</ele>
        <time>2016-03-23T13:26:50Z</time>
      </trkpt>
      <trkpt lat="44.47891" lon="1.68177">
        <ele>298</ele>
        <time>2016-03-23T13:26:53Z</time>
      </trkpt>
      <trkpt lat="44.47894" lon="1.6817">
        <ele>298</ele>
        <time>2016-03-23T13:26:57Z</time>
      </trkpt>
      <trkpt lat="44.47895" lon="1.68163">
        <ele>297</ele>
        <time>2016-03-23T13:27:02Z</time>
      </trkpt>
      <trkpt lat="44.47897" lon="1.68157">
        <ele>297</ele>
        <time>2016-03-23T13:27:07Z</time>
      </trkpt>
      <trkpt lat="44.47899" lon="1.68151">
        <ele>298</ele>
        <time>2016-03-23T13:27:12Z</time>
      </trkpt>
      <trkpt lat="44.47901" lon="1.68144">
        <ele>298</ele>
        <time>2016-03-23T13:27:16Z</time>
      </trkpt>
      <trkpt lat="44.47903" lon="1.68137">
        <ele>298</ele>
        <time>2016-03-23T13:27:19Z</time>
      </trkpt>
      <trkpt lat="44.47905" lon="1.68131">
        <ele>299</ele>
        <time>2016-03-23T13:27:24Z</time>
      </trkpt>
      <trkpt lat="44.47905" lon="1.68123">
        <ele>298</ele>
        <time>2016-03-23T13:27:28Z</time>
      </trkpt>
      <trkpt lat="44.47908" lon="1.68116">
        <ele>298</ele>
        <time>2016-03-23T13:27:33Z</time>
      </trkpt>
      <trkpt lat="44.4791" lon="1.68108">
        <ele>298</ele>
        <time>2016-03-23T13:27:38Z</time>
      </trkpt>
      <trkpt lat="44.47923" lon="1.68082">
        <ele>300</ele>
        <time>2016-03-23T13:28:23Z</time>
      </trkpt>
      <trkpt lat="44.4793" lon="1.68083">
        <ele>301</ele>
        <time>2016-03-23T13:28:24Z</time>
      </trkpt>
      <trkpt lat="44.47919" lon="1.68021">
        <ele>303</ele>
        <time>2016-03-23T13:28:58Z</time>
      </trkpt>
      <trkpt lat="44.47922" lon="1.68017">
        <ele>305</ele>
        <time>2016-03-23T13:28:59Z</time>
      </trkpt>
      <trkpt lat="44.47928" lon="1.68016">
        <ele>306</ele>
        <time>2016-03-23T13:29:00Z</time>
      </trkpt>
      <trkpt lat="44.47935" lon="1.68018">
        <ele>306</ele>
        <time>2016-03-23T13:29:03Z</time>
      </trkpt>
      <trkpt lat="44.47934" lon="1.68018">
        <ele>305</ele>
        <time>2016-03-23T13:29:27Z</time>
      </trkpt>
      <trkpt lat="44.47934" lon="1.68018">
        <ele>304</ele>
        <time>2016-03-23T13:29:28Z</time>
      </trkpt>
      <trkpt lat="44.47933" lon="1.68018">
        <ele>303</ele>
        <time>2016-03-23T13:29:57Z</time>
      </trkpt>
      <trkpt lat="44.47933" lon="1.68018">
        <ele>303</ele>
        <time>2016-03-23T13:29:58Z</time>
      </trkpt>
      <trkpt lat="44.47932" lon="1.68018">
        <ele>302</ele>
        <time>2016-03-23T13:30:29Z</time>
      </trkpt>
      <trkpt lat="44.47932" lon="1.68018">
        <ele>302</ele>
        <time>2016-03-23T13:30:57Z</time>
      </trkpt>
      <trkpt lat="44.47932" lon="1.68018">
        <ele>302</ele>
        <time>2016-03-23T13:30:58Z</time>
      </trkpt>
      <trkpt lat="44.47933" lon="1.68018">
        <ele>302</ele>
        <time>2016-03-23T13:31:23Z</time>
      </trkpt>
      <trkpt lat="44.47933" lon="1.68018">
        <ele>302</ele>
        <time>2016-03-23T13:31:24Z</time>
      </trkpt>
      <trkpt lat="44.47932" lon="1.68011">
        <ele>302</ele>
        <time>2016-03-23T13:31:29Z</time>
      </trkpt>
      <trkpt lat="44.4793" lon="1.68004">
        <ele>302</ele>
        <time>2016-03-23T13:31:32Z</time>
      </trkpt>
      <trkpt lat="44.4793" lon="1.67997">
        <ele>301</ele>
        <time>2016-03-23T13:31:38Z</time>
      </trkpt>
      <trkpt lat="44.47931" lon="1.67989">
        <ele>300</ele>
        <time>2016-03-23T13:31:44Z</time>
      </trkpt>
      <trkpt lat="44.4793" lon="1.67982">
        <ele>298</ele>
        <time>2016-03-23T13:31:48Z</time>
      </trkpt>
      <trkpt lat="44.47932" lon="1.67975">
        <ele>297</ele>
        <time>2016-03-23T13:31:54Z</time>
      </trkpt>
      <trkpt lat="44.47932" lon="1.67968">
        <ele>296</ele>
        <time>2016-03-23T13:32:00Z</time>
      </trkpt>
      <trkpt lat="44.4793" lon="1.67962">
        <ele>295</ele>
        <time>2016-03-23T13:32:04Z</time>
      </trkpt>
      <trkpt lat="44.47931" lon="1.67955">
        <ele>295</ele>
        <time>2016-03-23T13:32:08Z</time>
      </trkpt>
      <trkpt lat="44.47932" lon="1.67949">
        <ele>296</ele>
        <time>2016-03-23T13:32:16Z</time>
      </trkpt>
      <trkpt lat="44.47934" lon="1.67942">
        <ele>295</ele>
        <time>2016-03-23T13:32:23Z</time>
      </trkpt>
      <trkpt lat="44.47936" lon="1.67936">
        <ele>295</ele>
        <time>2016-03-23T13:32:27Z</time>
      </trkpt>
      <trkpt lat="44.47935" lon="1.67929">
        <ele>295</ele>
        <time>2016-03-23T13:32:31Z</time>
      </trkpt>
      <trkpt lat="44.47938" lon="1.67923">
        <ele>295</ele>
        <time>2016-03-23T13:32:36Z</time>
      </trkpt>
      <trkpt lat="44.4794" lon="1.67917">
        <ele>295</ele>
        <time>2016-03-23T13:32:41Z</time>
      </trkpt>
      <trkpt lat="44.4796" lon="1.67872">
        <ele>298</ele>
        <time>2016-03-23T13:33:21Z</time>
      </trkpt>
      <trkpt lat="44.4796" lon="1.6787">
        <ele>301</ele>
        <time>2016-03-23T13:33:22Z</time>
      </trkpt>
      <trkpt lat="44.47957" lon="1.67865">
        <ele>304</ele>
        <time>2016-03-23T13:33:27Z</time>
      </trkpt>
      <trkpt lat="44.47957" lon="1.67857">
        <ele>308</ele>
        <time>2016-03-23T13:33:32Z</time>
      </trkpt>
      <trkpt lat="44.47958" lon="1.6785">
        <ele>311</ele>
        <time>2016-03-23T13:33:35Z</time>
      </trkpt>
      <trkpt lat="44.47961" lon="1.67844">
        <ele>311</ele>
        <time>2016-03-23T13:33:39Z</time>
      </trkpt>
      <trkpt lat="44.47963" lon="1.67838">
        <ele>311</ele>
        <time>2016-03-23T13:33:42Z</time>
      </trkpt>
      <trkpt lat="44.47966" lon="1.67833">
        <ele>311</ele>
        <time>2016-03-23T13:33:47Z</time>
      </trkpt>
      <trkpt lat="44.47971" lon="1.67832">
        <ele>312</ele>
        <time>2016-03-23T13:33:51Z</time>
      </trkpt>
      <trkpt lat="44.47975" lon="1.67828">
        <ele>312</ele>
        <time>2016-03-23T13:33:55Z</time>
      </trkpt>
      <trkpt lat="44.47978" lon="1.67824">
        <ele>311</ele>
        <time>2016-03-23T13:34:00Z</time>
      </trkpt>
      <trkpt lat="44.47981" lon="1.67819">
        <ele>311</ele>
        <time>2016-03-23T13:34:05Z</time>
      </trkpt>
      <trkpt lat="44.47984" lon="1.67814">
        <ele>310</ele>
        <time>2016-03-23T13:34:11Z</time>
      </trkpt>
      <trkpt lat="44.47987" lon="1.67807">
        <ele>310</ele>
        <time>2016-03-23T13:34:16Z</time>
      </trkpt>
      <trkpt lat="44.47989" lon="1.67801">
        <ele>310</ele>
        <time>2016-03-23T13:34:21Z</time>
      </trkpt>
      <trkpt lat="44.4799" lon="1.67794">
        <ele>310</ele>
        <time>2016-03-23T13:34:26Z</time>
      </trkpt>
      <trkpt lat="44.47992" lon="1.67788">
        <ele>310</ele>
        <time>2016-03-23T13:34:30Z</time>
      </trkpt>
      <trkpt lat="44.47994" lon="1.67782">
        <ele>311</ele>
        <time>2016-03-23T13:34:33Z</time>
      </trkpt>
      <trkpt lat="44.47995" lon="1.67774">
        <ele>312</ele>
        <time>2016-03-23T13:34:37Z</time>
      </trkpt>
      <trkpt lat="44.47997" lon="1.67768">
        <ele>312</ele>
        <time>2016-03-23T13:34:41Z</time>
      </trkpt>
      <trkpt lat="44.47999" lon="1.67762">
        <ele>313</ele>
        <time>2016-03-23T13:34:45Z</time>
      </trkpt>
      <trkpt lat="44.48" lon="1.67755">
        <ele>313</ele>
        <time>2016-03-23T13:35:11Z</time>
      </trkpt>
      <trkpt lat="44.48001" lon="1.67746">
        <ele>314</ele>
        <time>2016-03-23T13:35:14Z</time>
      </trkpt>
      <trkpt lat="44.48001" lon="1.67738">
        <ele>314</ele>
        <time>2016-03-23T13:35:23Z</time>
      </trkpt>
      <trkpt lat="44.48" lon="1.67731">
        <ele>314</ele>
        <time>2016-03-23T13:35:27Z</time>
      </trkpt>
      <trkpt lat="44.48" lon="1.67721">
        <ele>314</ele>
        <time>2016-03-23T13:35:32Z</time>
      </trkpt>
      <trkpt lat="44.48001" lon="1.67713">
        <ele>315</ele>
        <time>2016-03-23T13:35:36Z</time>
      </trkpt>
      <trkpt lat="44.48002" lon="1.67705">
        <ele>314</ele>
        <time>2016-03-23T13:35:40Z</time>
      </trkpt>
      <trkpt lat="44.48002" lon="1.67699">
        <ele>314</ele>
        <time>2016-03-23T13:35:43Z</time>
      </trkpt>
      <trkpt lat="44.48" lon="1.67691">
        <ele>314</ele>
        <time>2016-03-23T13:35:49Z</time>
      </trkpt>
      <trkpt lat="44.48001" lon="1.67682">
        <ele>314</ele>
        <time>2016-03-23T13:35:53Z</time>
      </trkpt>
      <trkpt lat="44.48" lon="1.67676">
        <ele>313</ele>
        <time>2016-03-23T13:35:59Z</time>
      </trkpt>
      <trkpt lat="44.47998" lon="1.6767">
        <ele>313</ele>
        <time>2016-03-23T13:36:03Z</time>
      </trkpt>
      <trkpt lat="44.47998" lon="1.67663">
        <ele>313</ele>
        <time>2016-03-23T13:36:07Z</time>
      </trkpt>
      <trkpt lat="44.47997" lon="1.67655">
        <ele>312</ele>
        <time>2016-03-23T13:36:11Z</time>
      </trkpt>
      <trkpt lat="44.47995" lon="1.67652">
        <ele>312</ele>
        <time>2016-03-23T13:36:33Z</time>
      </trkpt>
      <trkpt lat="44.47995" lon="1.67652">
        <ele>313</ele>
        <time>2016-03-23T13:36:34Z</time>
      </trkpt>
      <trkpt lat="44.47995" lon="1.67652">
        <ele>313</ele>
        <time>2016-03-23T13:37:03Z</time>
      </trkpt>
      <trkpt lat="44.47995" lon="1.67652">
        <ele>313</ele>
        <time>2016-03-23T13:37:04Z</time>
      </trkpt>
      <trkpt lat="44.47997" lon="1.67646">
        <ele>313</ele>
        <time>2016-03-23T13:37:10Z</time>
      </trkpt>
      <trkpt lat="44.47993" lon="1.67642">
        <ele>313</ele>
        <time>2016-03-23T13:37:12Z</time>
      </trkpt>
      <trkpt lat="44.47992" lon="1.67636">
        <ele>313</ele>
        <time>2016-03-23T13:37:15Z</time>
      </trkpt>
      <trkpt lat="44.47986" lon="1.67635">
        <ele>313</ele>
        <time>2016-03-23T13:37:16Z</time>
      </trkpt>
      <trkpt lat="44.47981" lon="1.67632">
        <ele>312</ele>
        <time>2016-03-23T13:37:17Z</time>
      </trkpt>
      <trkpt lat="44.47985" lon="1.67628">
        <ele>313</ele>
        <time>2016-03-23T13:37:21Z</time>
      </trkpt>
      <trkpt lat="44.47982" lon="1.67622">
        <ele>312</ele>
        <time>2016-03-23T13:37:26Z</time>
      </trkpt>
      <trkpt lat="44.47989" lon="1.67614">
        <ele>312</ele>
        <time>2016-03-23T13:37:30Z</time>
      </trkpt>
      <trkpt lat="44.47991" lon="1.67608">
        <ele>311</ele>
        <time>2016-03-23T13:37:33Z</time>
      </trkpt>
      <trkpt lat="44.47994" lon="1.67602">
        <ele>310</ele>
        <time>2016-03-23T13:37:36Z</time>
      </trkpt>
      <trkpt lat="44.4799" lon="1.67597">
        <ele>309</ele>
        <time>2016-03-23T13:37:38Z</time>
      </trkpt>
      <trkpt lat="44.47992" lon="1.67591">
        <ele>309</ele>
        <time>2016-03-23T13:37:41Z</time>
      </trkpt>
      <trkpt lat="44.47991" lon="1.67515">
        <ele>310</ele>
        <time>2016-03-23T13:38:17Z</time>
      </trkpt>
      <trkpt lat="44.47991" lon="1.67514">
        <ele>310</ele>
        <time>2016-03-23T13:38:18Z</time>
      </trkpt>
      <trkpt lat="44.4799" lon="1.67507">
        <ele>311</ele>
        <time>2016-03-23T13:38:24Z</time>
      </trkpt>
      <trkpt lat="44.4799" lon="1.675">
        <ele>311</ele>
        <time>2016-03-23T13:38:26Z</time>
      </trkpt>
      <trkpt lat="44.4799" lon="1.67493">
        <ele>311</ele>
        <time>2016-03-23T13:38:29Z</time>
      </trkpt>
      <trkpt lat="44.4799" lon="1.67485">
        <ele>312</ele>
        <time>2016-03-23T13:38:33Z</time>
      </trkpt>
      <trkpt lat="44.47991" lon="1.67478">
        <ele>312</ele>
        <time>2016-03-23T13:38:38Z</time>
      </trkpt>
      <trkpt lat="44.47992" lon="1.67471">
        <ele>311</ele>
        <time>2016-03-23T13:38:45Z</time>
      </trkpt>
      <trkpt lat="44.47993" lon="1.67463">
        <ele>310</ele>
        <time>2016-03-23T13:38:48Z</time>
      </trkpt>
      <trkpt lat="44.47994" lon="1.67458">
        <ele>309</ele>
        <time>2016-03-23T13:38:52Z</time>
      </trkpt>
      <trkpt lat="44.47995" lon="1.6745">
        <ele>308</ele>
        <time>2016-03-23T13:38:56Z</time>
      </trkpt>
      <trkpt lat="44.47995" lon="1.67443">
        <ele>307</ele>
        <time>2016-03-23T13:38:59Z</time>
      </trkpt>
      <trkpt lat="44.47996" lon="1.67436">
        <ele>308</ele>
        <time>2016-03-23T13:39:03Z</time>
      </trkpt>
      <trkpt lat="44.47996" lon="1.6743">
        <ele>308</ele>
        <time>2016-03-23T13:39:06Z</time>
      </trkpt>
      <trkpt lat="44.47997" lon="1.67423">
        <ele>309</ele>
        <time>2016-03-23T13:39:10Z</time>
      </trkpt>
      <trkpt lat="44.47998" lon="1.67416">
        <ele>309</ele>
        <time>2016-03-23T13:39:14Z</time>
      </trkpt>
      <trkpt lat="44.47999" lon="1.67409">
        <ele>309</ele>
        <time>2016-03-23T13:39:17Z</time>
      </trkpt>
      <trkpt lat="44.47999" lon="1.67402">
        <ele>309</ele>
        <time>2016-03-23T13:39:21Z</time>
      </trkpt>
      <trkpt lat="44.48" lon="1.67396">
        <ele>309</ele>
        <time>2016-03-23T13:39:25Z</time>
      </trkpt>
      <trkpt lat="44.48002" lon="1.67388">
        <ele>308</ele>
        <time>2016-03-23T13:39:30Z</time>
      </trkpt>
      <trkpt lat="44.48002" lon="1.67382">
        <ele>307</ele>
        <time>2016-03-23T13:39:34Z</time>
      </trkpt>
      <trkpt lat="44.48002" lon="1.67375">
        <ele>307</ele>
        <time>2016-03-23T13:39:39Z</time>
      </trkpt>
      <trkpt lat="44.48002" lon="1.67368">
        <ele>306</ele>
        <time>2016-03-23T13:39:42Z</time>
      </trkpt>
      <trkpt lat="44.48003" lon="1.67361">
        <ele>306</ele>
        <time>2016-03-23T13:39:45Z</time>
      </trkpt>
      <trkpt lat="44.48003" lon="1.67354">
        <ele>306</ele>
        <time>2016-03-23T13:39:49Z</time>
      </trkpt>
      <trkpt lat="44.48005" lon="1.67344">
        <ele>306</ele>
        <time>2016-03-23T13:39:53Z</time>
      </trkpt>
      <trkpt lat="44.48004" lon="1.67338">
        <ele>307</ele>
        <time>2016-03-23T13:39:56Z</time>
      </trkpt>
      <trkpt lat="44.48006" lon="1.67332">
        <ele>307</ele>
        <time>2016-03-23T13:40:02Z</time>
      </trkpt>
      <trkpt lat="44.48006" lon="1.67326">
        <ele>306</ele>
        <time>2016-03-23T13:40:05Z</time>
      </trkpt>
      <trkpt lat="44.48006" lon="1.67318">
        <ele>307</ele>
        <time>2016-03-23T13:40:08Z</time>
      </trkpt>
      <trkpt lat="44.48008" lon="1.67312">
        <ele>307</ele>
        <time>2016-03-23T13:40:12Z</time>
      </trkpt>
      <trkpt lat="44.48009" lon="1.67305">
        <ele>307</ele>
        <time>2016-03-23T13:40:17Z</time>
      </trkpt>
      <trkpt lat="44.4801" lon="1.67298">
        <ele>307</ele>
        <time>2016-03-23T13:40:21Z</time>
      </trkpt>
      <trkpt lat="44.48013" lon="1.67292">
        <ele>307</ele>
        <time>2016-03-23T13:40:27Z</time>
      </trkpt>
      <trkpt lat="44.48015" lon="1.67284">
        <ele>306</ele>
        <time>2016-03-23T13:40:31Z</time>
      </trkpt>
      <trkpt lat="44.48016" lon="1.67278">
        <ele>305</ele>
        <time>2016-03-23T13:40:35Z</time>
      </trkpt>
      <trkpt lat="44.48017" lon="1.67269">
        <ele>305</ele>
        <time>2016-03-23T13:40:40Z</time>
      </trkpt>
      <trkpt lat="44.48018" lon="1.6726">
        <ele>304</ele>
        <time>2016-03-23T13:40:44Z</time>
      </trkpt>
      <trkpt lat="44.48019" lon="1.67253">
        <ele>304</ele>
        <time>2016-03-23T13:40:49Z</time>
      </trkpt>
      <trkpt lat="44.48021" lon="1.67247">
        <ele>304</ele>
        <time>2016-03-23T13:40:53Z</time>
      </trkpt>
      <trkpt lat="44.48023" lon="1.67239">
        <ele>305</ele>
        <time>2016-03-23T13:40:57Z</time>
      </trkpt>
      <trkpt lat="44.48024" lon="1.67231">
        <ele>305</ele>
        <time>2016-03-23T13:41:02Z</time>
      </trkpt>
      <trkpt lat="44.48027" lon="1.67225">
        <ele>304</ele>
        <time>2016-03-23T13:41:06Z</time>
      </trkpt>
      <trkpt lat="44.48028" lon="1.67217">
        <ele>304</ele>
        <time>2016-03-23T13:41:11Z</time>
      </trkpt>
      <trkpt lat="44.48029" lon="1.6721">
        <ele>304</ele>
        <time>2016-03-23T13:41:14Z</time>
      </trkpt>
      <trkpt lat="44.4803" lon="1.67203">
        <ele>304</ele>
        <time>2016-03-23T13:41:18Z</time>
      </trkpt>
      <trkpt lat="44.48031" lon="1.67196">
        <ele>304</ele>
        <time>2016-03-23T13:41:23Z</time>
      </trkpt>
      <trkpt lat="44.4803" lon="1.67189">
        <ele>304</ele>
        <time>2016-03-23T13:41:27Z</time>
      </trkpt>
      <trkpt lat="44.4803" lon="1.67182">
        <ele>304</ele>
        <time>2016-03-23T13:41:31Z</time>
      </trkpt>
      <trkpt lat="44.48031" lon="1.67175">
        <ele>303</ele>
        <time>2016-03-23T13:41:35Z</time>
      </trkpt>
      <trkpt lat="44.4803" lon="1.67167">
        <ele>302</ele>
        <time>2016-03-23T13:41:44Z</time>
      </trkpt>
      <trkpt lat="44.48029" lon="1.6716">
        <ele>301</ele>
        <time>2016-03-23T13:41:47Z</time>
      </trkpt>
      <trkpt lat="44.48029" lon="1.67151">
        <ele>300</ele>
        <time>2016-03-23T13:41:52Z</time>
      </trkpt>
      <trkpt lat="44.48028" lon="1.67143">
        <ele>300</ele>
        <time>2016-03-23T13:41:57Z</time>
      </trkpt>
      <trkpt lat="44.48026" lon="1.67135">
        <ele>300</ele>
        <time>2016-03-23T13:42:01Z</time>
      </trkpt>
      <trkpt lat="44.48026" lon="1.67127">
        <ele>300</ele>
        <time>2016-03-23T13:42:06Z</time>
      </trkpt>
      <trkpt lat="44.48026" lon="1.67118">
        <ele>299</ele>
        <time>2016-03-23T13:42:11Z</time>
      </trkpt>
      <trkpt lat="44.48025" lon="1.67112">
        <ele>299</ele>
        <time>2016-03-23T13:42:15Z</time>
      </trkpt>
      <trkpt lat="44.48024" lon="1.67105">
        <ele>299</ele>
        <time>2016-03-23T13:42:21Z</time>
      </trkpt>
      <trkpt lat="44.48022" lon="1.67098">
        <ele>298</ele>
        <time>2016-03-23T13:42:26Z</time>
      </trkpt>
      <trkpt lat="44.4802" lon="1.67091">
        <ele>297</ele>
        <time>2016-03-23T13:42:31Z</time>
      </trkpt>
      <trkpt lat="44.48019" lon="1.67084">
        <ele>296</ele>
        <time>2016-03-23T13:42:35Z</time>
      </trkpt>
      <trkpt lat="44.48017" lon="1.67076">
        <ele>295</ele>
        <time>2016-03-23T13:42:41Z</time>
      </trkpt>
      <trkpt lat="44.48013" lon="1.67063">
        <ele>295</ele>
        <time>2016-03-23T13:42:46Z</time>
      </trkpt>
      <trkpt lat="44.4801" lon="1.67051">
        <ele>294</ele>
        <time>2016-03-23T13:42:52Z</time>
      </trkpt>
      <trkpt lat="44.48008" lon="1.67043">
        <ele>294</ele>
        <time>2016-03-23T13:42:55Z</time>
      </trkpt>
      <trkpt lat="44.48005" lon="1.67036">
        <ele>295</ele>
        <time>2016-03-23T13:43:00Z</time>
      </trkpt>
      <trkpt lat="44.48001" lon="1.67031">
        <ele>295</ele>
        <time>2016-03-23T13:43:07Z</time>
      </trkpt>
      <trkpt lat="44.47999" lon="1.67025">
        <ele>296</ele>
        <time>2016-03-23T13:43:10Z</time>
      </trkpt>
      <trkpt lat="44.47997" lon="1.67017">
        <ele>296</ele>
        <time>2016-03-23T13:43:15Z</time>
      </trkpt>
      <trkpt lat="44.47994" lon="1.67011">
        <ele>295</ele>
        <time>2016-03-23T13:43:18Z</time>
      </trkpt>
      <trkpt lat="44.47991" lon="1.67006">
        <ele>295</ele>
        <time>2016-03-23T13:43:23Z</time>
      </trkpt>
      <trkpt lat="44.47991" lon="1.67">
        <ele>296</ele>
        <time>2016-03-23T13:43:27Z</time>
      </trkpt>
      <trkpt lat="44.47989" lon="1.66994">
        <ele>296</ele>
        <time>2016-03-23T13:43:31Z</time>
      </trkpt>
      <trkpt lat="44.47986" lon="1.66988">
        <ele>296</ele>
        <time>2016-03-23T13:43:36Z</time>
      </trkpt>
      <trkpt lat="44.47984" lon="1.66982">
        <ele>297</ele>
        <time>2016-03-23T13:43:44Z</time>
      </trkpt>
      <trkpt lat="44.47983" lon="1.66976">
        <ele>297</ele>
        <time>2016-03-23T13:43:48Z</time>
      </trkpt>
      <trkpt lat="44.4798" lon="1.66969">
        <ele>297</ele>
        <time>2016-03-23T13:43:52Z</time>
      </trkpt>
      <trkpt lat="44.47979" lon="1.66963">
        <ele>297</ele>
        <time>2016-03-23T13:43:56Z</time>
      </trkpt>
      <trkpt lat="44.47976" lon="1.66957">
        <ele>297</ele>
        <time>2016-03-23T13:44:02Z</time>
      </trkpt>
      <trkpt lat="44.47973" lon="1.66952">
        <ele>296</ele>
        <time>2016-03-23T13:44:07Z</time>
      </trkpt>
      <trkpt lat="44.47972" lon="1.66946">
        <ele>296</ele>
        <time>2016-03-23T13:44:11Z</time>
      </trkpt>
      <trkpt lat="44.47969" lon="1.66939">
        <ele>295</ele>
        <time>2016-03-23T13:44:20Z</time>
      </trkpt>
      <trkpt lat="44.47967" lon="1.66933">
        <ele>293</ele>
        <time>2016-03-23T13:44:25Z</time>
      </trkpt>
      <trkpt lat="44.47963" lon="1.66928">
        <ele>292</ele>
        <time>2016-03-23T13:44:28Z</time>
      </trkpt>
      <trkpt lat="44.47962" lon="1.66921">
        <ele>291</ele>
        <time>2016-03-23T13:44:32Z</time>
      </trkpt>
      <trkpt lat="44.47963" lon="1.66915">
        <ele>290</ele>
        <time>2016-03-23T13:44:36Z</time>
      </trkpt>
      <trkpt lat="44.47959" lon="1.66912">
        <ele>290</ele>
        <time>2016-03-23T13:44:42Z</time>
      </trkpt>
      <trkpt lat="44.47958" lon="1.66907">
        <ele>291</ele>
        <time>2016-03-23T13:45:00Z</time>
      </trkpt>
      <trkpt lat="44.47958" lon="1.66907">
        <ele>292</ele>
        <time>2016-03-23T13:45:01Z</time>
      </trkpt>
      <trkpt lat="44.47957" lon="1.66904">
        <ele>292</ele>
        <time>2016-03-23T13:45:30Z</time>
      </trkpt>
      <trkpt lat="44.47957" lon="1.66904">
        <ele>293</ele>
        <time>2016-03-23T13:45:31Z</time>
      </trkpt>
      <trkpt lat="44.47957" lon="1.66904">
        <ele>294</ele>
        <time>2016-03-23T13:46:00Z</time>
      </trkpt>
      <trkpt lat="44.47957" lon="1.66904">
        <ele>295</ele>
        <time>2016-03-23T13:46:01Z</time>
      </trkpt>
      <trkpt lat="44.4799" lon="1.66981">
        <ele>304</ele>
        <time>2016-03-23T13:47:39Z</time>
      </trkpt>
      <trkpt lat="44.47993" lon="1.66997">
        <ele>303</ele>
        <time>2016-03-23T13:47:51Z</time>
      </trkpt>
      <trkpt lat="44.47998" lon="1.67017">
        <ele>301</ele>
        <time>2016-03-23T13:47:59Z</time>
      </trkpt>
      <trkpt lat="44.48" lon="1.67024">
        <ele>299</ele>
        <time>2016-03-23T13:48:06Z</time>
      </trkpt>
      <trkpt lat="44.48001" lon="1.67031">
        <ele>297</ele>
        <time>2016-03-23T13:48:10Z</time>
      </trkpt>
      <trkpt lat="44.48003" lon="1.67037">
        <ele>296</ele>
        <time>2016-03-23T13:48:13Z</time>
      </trkpt>
      <trkpt lat="44.48007" lon="1.67042">
        <ele>296</ele>
        <time>2016-03-23T13:48:17Z</time>
      </trkpt>
      <trkpt lat="44.4801" lon="1.67048">
        <ele>299</ele>
        <time>2016-03-23T13:48:22Z</time>
      </trkpt>
      <trkpt lat="44.4801" lon="1.67054">
        <ele>301</ele>
        <time>2016-03-23T13:48:25Z</time>
      </trkpt>
      <trkpt lat="44.48014" lon="1.6706">
        <ele>301</ele>
        <time>2016-03-23T13:48:35Z</time>
      </trkpt>
      <trkpt lat="44.48014" lon="1.67066">
        <ele>301</ele>
        <time>2016-03-23T13:48:39Z</time>
      </trkpt>
      <trkpt lat="44.48015" lon="1.67073">
        <ele>300</ele>
        <time>2016-03-23T13:48:43Z</time>
      </trkpt>
      <trkpt lat="44.48016" lon="1.67079">
        <ele>299</ele>
        <time>2016-03-23T13:48:46Z</time>
      </trkpt>
      <trkpt lat="44.48016" lon="1.67087">
        <ele>298</ele>
        <time>2016-03-23T13:48:49Z</time>
      </trkpt>
      <trkpt lat="44.48018" lon="1.67093">
        <ele>298</ele>
        <time>2016-03-23T13:48:54Z</time>
      </trkpt>
      <trkpt lat="44.48019" lon="1.671">
        <ele>299</ele>
        <time>2016-03-23T13:48:58Z</time>
      </trkpt>
      <trkpt lat="44.48022" lon="1.67106">
        <ele>300</ele>
        <time>2016-03-23T13:49:02Z</time>
      </trkpt>
      <trkpt lat="44.48022" lon="1.67113">
        <ele>300</ele>
        <time>2016-03-23T13:49:07Z</time>
      </trkpt>
      <trkpt lat="44.48024" lon="1.6712">
        <ele>300</ele>
        <time>2016-03-23T13:49:12Z</time>
      </trkpt>
      <trkpt lat="44.48024" lon="1.67127">
        <ele>299</ele>
        <time>2016-03-23T13:49:16Z</time>
      </trkpt>
      <trkpt lat="44.48025" lon="1.67134">
        <ele>298</ele>
        <time>2016-03-23T13:49:20Z</time>
      </trkpt>
      <trkpt lat="44.48026" lon="1.67142">
        <ele>296</ele>
        <time>2016-03-23T13:49:25Z</time>
      </trkpt>
      <trkpt lat="44.48026" lon="1.67149">
        <ele>296</ele>
        <time>2016-03-23T13:49:28Z</time>
      </trkpt>
      <trkpt lat="44.48027" lon="1.67155">
        <ele>296</ele>
        <time>2016-03-23T13:49:32Z</time>
      </trkpt>
      <trkpt lat="44.48027" lon="1.67161">
        <ele>297</ele>
        <time>2016-03-23T13:49:37Z</time>
      </trkpt>
      <trkpt lat="44.48027" lon="1.67168">
        <ele>297</ele>
        <time>2016-03-23T13:49:41Z</time>
      </trkpt>
      <trkpt lat="44.48028" lon="1.67176">
        <ele>298</ele>
        <time>2016-03-23T13:49:46Z</time>
      </trkpt>
      <trkpt lat="44.48028" lon="1.67184">
        <ele>299</ele>
        <time>2016-03-23T13:49:50Z</time>
      </trkpt>
      <trkpt lat="44.48028" lon="1.67193">
        <ele>299</ele>
        <time>2016-03-23T13:49:54Z</time>
      </trkpt>
      <trkpt lat="44.48027" lon="1.67198">
        <ele>300</ele>
        <time>2016-03-23T13:50:19Z</time>
      </trkpt>
      <trkpt lat="44.48027" lon="1.67198">
        <ele>301</ele>
        <time>2016-03-23T13:50:20Z</time>
      </trkpt>
      <trkpt lat="44.48026" lon="1.67205">
        <ele>302</ele>
        <time>2016-03-23T13:50:31Z</time>
      </trkpt>
      <trkpt lat="44.48026" lon="1.67213">
        <ele>302</ele>
        <time>2016-03-23T13:50:36Z</time>
      </trkpt>
      <trkpt lat="44.48024" lon="1.67219">
        <ele>303</ele>
        <time>2016-03-23T13:50:42Z</time>
      </trkpt>
      <trkpt lat="44.48024" lon="1.67226">
        <ele>303</ele>
        <time>2016-03-23T13:50:45Z</time>
      </trkpt>
      <trkpt lat="44.48022" lon="1.67233">
        <ele>303</ele>
        <time>2016-03-23T13:50:49Z</time>
      </trkpt>
      <trkpt lat="44.48021" lon="1.6724">
        <ele>304</ele>
        <time>2016-03-23T13:50:52Z</time>
      </trkpt>
      <trkpt lat="44.48019" lon="1.67246">
        <ele>304</ele>
        <time>2016-03-23T13:50:55Z</time>
      </trkpt>
      <trkpt lat="44.48018" lon="1.67253">
        <ele>304</ele>
        <time>2016-03-23T13:50:59Z</time>
      </trkpt>
      <trkpt lat="44.48016" lon="1.67261">
        <ele>304</ele>
        <time>2016-03-23T13:51:03Z</time>
      </trkpt>
      <trkpt lat="44.48016" lon="1.67269">
        <ele>304</ele>
        <time>2016-03-23T13:51:08Z</time>
      </trkpt>
      <trkpt lat="44.48014" lon="1.67275">
        <ele>305</ele>
        <time>2016-03-23T13:51:11Z</time>
      </trkpt>
      <trkpt lat="44.48013" lon="1.67281">
        <ele>305</ele>
        <time>2016-03-23T13:51:16Z</time>
      </trkpt>
      <trkpt lat="44.48011" lon="1.67288">
        <ele>305</ele>
        <time>2016-03-23T13:51:21Z</time>
      </trkpt>
      <trkpt lat="44.4801" lon="1.67295">
        <ele>305</ele>
        <time>2016-03-23T13:51:24Z</time>
      </trkpt>
      <trkpt lat="44.48009" lon="1.67303">
        <ele>304</ele>
        <time>2016-03-23T13:51:29Z</time>
      </trkpt>
      <trkpt lat="44.48008" lon="1.6731">
        <ele>304</ele>
        <time>2016-03-23T13:51:33Z</time>
      </trkpt>
      <trkpt lat="44.48006" lon="1.67316">
        <ele>303</ele>
        <time>2016-03-23T13:51:37Z</time>
      </trkpt>
      <trkpt lat="44.48003" lon="1.67322">
        <ele>302</ele>
        <time>2016-03-23T13:51:41Z</time>
      </trkpt>
      <trkpt lat="44.48005" lon="1.67327">
        <ele>303</ele>
        <time>2016-03-23T13:52:01Z</time>
      </trkpt>
      <trkpt lat="44.48004" lon="1.67336">
        <ele>303</ele>
        <time>2016-03-23T13:52:05Z</time>
      </trkpt>
      <trkpt lat="44.48004" lon="1.67342">
        <ele>305</ele>
        <time>2016-03-23T13:52:09Z</time>
      </trkpt>
      <trkpt lat="44.48005" lon="1.67351">
        <ele>305</ele>
        <time>2016-03-23T13:52:13Z</time>
      </trkpt>
      <trkpt lat="44.48003" lon="1.67357">
        <ele>306</ele>
        <time>2016-03-23T13:52:17Z</time>
      </trkpt>
      <trkpt lat="44.48001" lon="1.67364">
        <ele>306</ele>
        <time>2016-03-23T13:52:23Z</time>
      </trkpt>
      <trkpt lat="44.48" lon="1.6737">
        <ele>306</ele>
        <time>2016-03-23T13:52:27Z</time>
      </trkpt>
      <trkpt lat="44.47997" lon="1.67376">
        <ele>305</ele>
        <time>2016-03-23T13:52:31Z</time>
      </trkpt>
      <trkpt lat="44.47999" lon="1.67382">
        <ele>305</ele>
        <time>2016-03-23T13:52:33Z</time>
      </trkpt>
      <trkpt lat="44.47997" lon="1.67389">
        <ele>304</ele>
        <time>2016-03-23T13:52:38Z</time>
      </trkpt>
      <trkpt lat="44.47995" lon="1.67396">
        <ele>304</ele>
        <time>2016-03-23T13:52:42Z</time>
      </trkpt>
      <trkpt lat="44.47977" lon="1.67489">
        <ele>307</ele>
        <time>2016-03-23T13:53:37Z</time>
      </trkpt>
      <trkpt lat="44.47982" lon="1.67494">
        <ele>310</ele>
        <time>2016-03-23T13:53:40Z</time>
      </trkpt>
      <trkpt lat="44.47987" lon="1.675">
        <ele>313</ele>
        <time>2016-03-23T13:53:42Z</time>
      </trkpt>
      <trkpt lat="44.47991" lon="1.67505">
        <ele>317</ele>
        <time>2016-03-23T13:53:44Z</time>
      </trkpt>
      <trkpt lat="44.47988" lon="1.6751">
        <ele>321</ele>
        <time>2016-03-23T13:53:46Z</time>
      </trkpt>
      <trkpt lat="44.47993" lon="1.67514">
        <ele>322</ele>
        <time>2016-03-23T13:53:51Z</time>
      </trkpt>
      <trkpt lat="44.47987" lon="1.6752">
        <ele>325</ele>
        <time>2016-03-23T13:53:53Z</time>
      </trkpt>
      <trkpt lat="44.47982" lon="1.67523">
        <ele>327</ele>
        <time>2016-03-23T13:53:55Z</time>
      </trkpt>
      <trkpt lat="44.47986" lon="1.67527">
        <ele>328</ele>
        <time>2016-03-23T13:53:57Z</time>
      </trkpt>
      <trkpt lat="44.47979" lon="1.67534">
        <ele>328</ele>
        <time>2016-03-23T13:53:59Z</time>
      </trkpt>
      <trkpt lat="44.47986" lon="1.67537">
        <ele>329</ele>
        <time>2016-03-23T13:54:03Z</time>
      </trkpt>
      <trkpt lat="44.47984" lon="1.67544">
        <ele>329</ele>
        <time>2016-03-23T13:54:07Z</time>
      </trkpt>
      <trkpt lat="44.47988" lon="1.67546">
        <ele>329</ele>
        <time>2016-03-23T13:54:08Z</time>
      </trkpt>
      <trkpt lat="44.47995" lon="1.6755">
        <ele>329</ele>
        <time>2016-03-23T13:54:11Z</time>
      </trkpt>
      <trkpt lat="44.47994" lon="1.67558">
        <ele>330</ele>
        <time>2016-03-23T13:54:14Z</time>
      </trkpt>
      <trkpt lat="44.47996" lon="1.67564">
        <ele>328</ele>
        <time>2016-03-23T13:54:19Z</time>
      </trkpt>
      <trkpt lat="44.47995" lon="1.67572">
        <ele>327</ele>
        <time>2016-03-23T13:54:22Z</time>
      </trkpt>
      <trkpt lat="44.47994" lon="1.6758">
        <ele>325</ele>
        <time>2016-03-23T13:54:27Z</time>
      </trkpt>
      <trkpt lat="44.47996" lon="1.67586">
        <ele>325</ele>
        <time>2016-03-23T13:54:30Z</time>
      </trkpt>
      <trkpt lat="44.47997" lon="1.67594">
        <ele>323</ele>
        <time>2016-03-23T13:54:34Z</time>
      </trkpt>
      <trkpt lat="44.47998" lon="1.676">
        <ele>323</ele>
        <time>2016-03-23T13:54:38Z</time>
      </trkpt>
      <trkpt lat="44.47996" lon="1.67608">
        <ele>324</ele>
        <time>2016-03-23T13:54:43Z</time>
      </trkpt>
      <trkpt lat="44.47991" lon="1.67615">
        <ele>324</ele>
        <time>2016-03-23T13:54:47Z</time>
      </trkpt>
      <trkpt lat="44.47993" lon="1.67621">
        <ele>323</ele>
        <time>2016-03-23T13:54:50Z</time>
      </trkpt>
      <trkpt lat="44.47997" lon="1.67627">
        <ele>323</ele>
        <time>2016-03-23T13:54:55Z</time>
      </trkpt>
      <trkpt lat="44.48" lon="1.67633">
        <ele>323</ele>
        <time>2016-03-23T13:54:59Z</time>
      </trkpt>
      <trkpt lat="44.48002" lon="1.67641">
        <ele>322</ele>
        <time>2016-03-23T13:55:05Z</time>
      </trkpt>
      <trkpt lat="44.47999" lon="1.67646">
        <ele>321</ele>
        <time>2016-03-23T13:55:07Z</time>
      </trkpt>
      <trkpt lat="44.47996" lon="1.67653">
        <ele>321</ele>
        <time>2016-03-23T13:55:10Z</time>
      </trkpt>
      <trkpt lat="44.47993" lon="1.67661">
        <ele>321</ele>
        <time>2016-03-23T13:55:12Z</time>
      </trkpt>
      <trkpt lat="44.47997" lon="1.67659">
        <ele>322</ele>
        <time>2016-03-23T13:55:15Z</time>
      </trkpt>
      <trkpt lat="44.48001" lon="1.67663">
        <ele>322</ele>
        <time>2016-03-23T13:55:29Z</time>
      </trkpt>
      <trkpt lat="44.48002" lon="1.67671">
        <ele>322</ele>
        <time>2016-03-23T13:55:33Z</time>
      </trkpt>
      <trkpt lat="44.48006" lon="1.67675">
        <ele>322</ele>
        <time>2016-03-23T13:55:37Z</time>
      </trkpt>
      <trkpt lat="44.48011" lon="1.67674">
        <ele>322</ele>
        <time>2016-03-23T13:55:41Z</time>
      </trkpt>
      <trkpt lat="44.48016" lon="1.67676">
        <ele>322</ele>
        <time>2016-03-23T13:55:47Z</time>
      </trkpt>
      <trkpt lat="44.48019" lon="1.67671">
        <ele>321</ele>
        <time>2016-03-23T13:55:51Z</time>
      </trkpt>
      <trkpt lat="44.48023" lon="1.67666">
        <ele>320</ele>
        <time>2016-03-23T13:55:55Z</time>
      </trkpt>
      <trkpt lat="44.48025" lon="1.67661">
        <ele>320</ele>
        <time>2016-03-23T13:55:59Z</time>
      </trkpt>
      <trkpt lat="44.48029" lon="1.67665">
        <ele>319</ele>
        <time>2016-03-23T13:56:00Z</time>
      </trkpt>
      <trkpt lat="44.48029" lon="1.67658">
        <ele>319</ele>
        <time>2016-03-23T13:56:01Z</time>
      </trkpt>
      <trkpt lat="44.48035" lon="1.67659">
        <ele>318</ele>
        <time>2016-03-23T13:56:03Z</time>
      </trkpt>
      <trkpt lat="44.48039" lon="1.67652">
        <ele>318</ele>
        <time>2016-03-23T13:56:09Z</time>
      </trkpt>
      <trkpt lat="44.48045" lon="1.67654">
        <ele>318</ele>
        <time>2016-03-23T13:56:13Z</time>
      </trkpt>
      <trkpt lat="44.48047" lon="1.67648">
        <ele>318</ele>
        <time>2016-03-23T13:56:15Z</time>
      </trkpt>
      <trkpt lat="44.48052" lon="1.67645">
        <ele>318</ele>
        <time>2016-03-23T13:56:20Z</time>
      </trkpt>
      <trkpt lat="44.48057" lon="1.67642">
        <ele>318</ele>
        <time>2016-03-23T13:56:26Z</time>
      </trkpt>
      <trkpt lat="44.48061" lon="1.67638">
        <ele>319</ele>
        <time>2016-03-23T13:56:29Z</time>
      </trkpt>
      <trkpt lat="44.48073" lon="1.67617">
        <ele>318</ele>
        <time>2016-03-23T13:56:47Z</time>
      </trkpt>
      <trkpt lat="44.48076" lon="1.67611">
        <ele>319</ele>
        <time>2016-03-23T13:56:52Z</time>
      </trkpt>
      <trkpt lat="44.48072" lon="1.67609">
        <ele>320</ele>
        <time>2016-03-23T13:57:23Z</time>
      </trkpt>
      <trkpt lat="44.48072" lon="1.67609">
        <ele>321</ele>
        <time>2016-03-23T13:57:25Z</time>
      </trkpt>
      <trkpt lat="44.48075" lon="1.67603">
        <ele>322</ele>
        <time>2016-03-23T13:57:43Z</time>
      </trkpt>
      <trkpt lat="44.48081" lon="1.67575">
        <ele>322</ele>
        <time>2016-03-23T13:57:59Z</time>
      </trkpt>
      <trkpt lat="44.48084" lon="1.67571">
        <ele>322</ele>
        <time>2016-03-23T13:58:04Z</time>
      </trkpt>
      <trkpt lat="44.48087" lon="1.67565">
        <ele>322</ele>
        <time>2016-03-23T13:58:10Z</time>
      </trkpt>
      <trkpt lat="44.48089" lon="1.67558">
        <ele>321</ele>
        <time>2016-03-23T13:58:13Z</time>
      </trkpt>
      <trkpt lat="44.48088" lon="1.67551">
        <ele>322</ele>
        <time>2016-03-23T13:58:16Z</time>
      </trkpt>
      <trkpt lat="44.48093" lon="1.67548">
        <ele>321</ele>
        <time>2016-03-23T13:58:24Z</time>
      </trkpt>
      <trkpt lat="44.48096" lon="1.67542">
        <ele>320</ele>
        <time>2016-03-23T13:58:28Z</time>
      </trkpt>
      <trkpt lat="44.48097" lon="1.67535">
        <ele>320</ele>
        <time>2016-03-23T13:58:31Z</time>
      </trkpt>
      <trkpt lat="44.48098" lon="1.67527">
        <ele>320</ele>
        <time>2016-03-23T13:58:36Z</time>
      </trkpt>
      <trkpt lat="44.481" lon="1.67518">
        <ele>320</ele>
        <time>2016-03-23T13:58:40Z</time>
      </trkpt>
      <trkpt lat="44.481" lon="1.67511">
        <ele>322</ele>
        <time>2016-03-23T13:58:42Z</time>
      </trkpt>
      <trkpt lat="44.48101" lon="1.67504">
        <ele>323</ele>
        <time>2016-03-23T13:58:44Z</time>
      </trkpt>
      <trkpt lat="44.48103" lon="1.67496">
        <ele>325</ele>
        <time>2016-03-23T13:58:46Z</time>
      </trkpt>
      <trkpt lat="44.48104" lon="1.67489">
        <ele>326</ele>
        <time>2016-03-23T13:58:51Z</time>
      </trkpt>
      <trkpt lat="44.48105" lon="1.67482">
        <ele>326</ele>
        <time>2016-03-23T13:59:02Z</time>
      </trkpt>
      <trkpt lat="44.48108" lon="1.67476">
        <ele>326</ele>
        <time>2016-03-23T13:59:05Z</time>
      </trkpt>
      <trkpt lat="44.48111" lon="1.67469">
        <ele>325</ele>
        <time>2016-03-23T13:59:09Z</time>
      </trkpt>
      <trkpt lat="44.48116" lon="1.67465">
        <ele>324</ele>
        <time>2016-03-23T13:59:13Z</time>
      </trkpt>
      <trkpt lat="44.48119" lon="1.6746">
        <ele>323</ele>
        <time>2016-03-23T13:59:16Z</time>
      </trkpt>
      <trkpt lat="44.48124" lon="1.67458">
        <ele>323</ele>
        <time>2016-03-23T13:59:19Z</time>
      </trkpt>
      <trkpt lat="44.48127" lon="1.67452">
        <ele>322</ele>
        <time>2016-03-23T13:59:22Z</time>
      </trkpt>
      <trkpt lat="44.48132" lon="1.6745">
        <ele>323</ele>
        <time>2016-03-23T13:59:27Z</time>
      </trkpt>
      <trkpt lat="44.48137" lon="1.6745">
        <ele>323</ele>
        <time>2016-03-23T13:59:30Z</time>
      </trkpt>
      <trkpt lat="44.4814" lon="1.67445">
        <ele>323</ele>
        <time>2016-03-23T13:59:32Z</time>
      </trkpt>
      <trkpt lat="44.48142" lon="1.67451">
        <ele>323</ele>
        <time>2016-03-23T13:59:33Z</time>
      </trkpt>
      <trkpt lat="44.48149" lon="1.67454">
        <ele>324</ele>
        <time>2016-03-23T13:59:37Z</time>
      </trkpt>
      <trkpt lat="44.48153" lon="1.67452">
        <ele>324</ele>
        <time>2016-03-23T13:59:40Z</time>
      </trkpt>
      <trkpt lat="44.48157" lon="1.67448">
        <ele>325</ele>
        <time>2016-03-23T13:59:44Z</time>
      </trkpt>
      <trkpt lat="44.48164" lon="1.67448">
        <ele>324</ele>
        <time>2016-03-23T13:59:49Z</time>
      </trkpt>
      <trkpt lat="44.48168" lon="1.67444">
        <ele>324</ele>
        <time>2016-03-23T13:59:54Z</time>
      </trkpt>
      <trkpt lat="44.48172" lon="1.67442">
        <ele>323</ele>
        <time>2016-03-23T13:59:57Z</time>
      </trkpt>
      <trkpt lat="44.48177" lon="1.67441">
        <ele>321</ele>
        <time>2016-03-23T14:00:00Z</time>
      </trkpt>
      <trkpt lat="44.48183" lon="1.67441">
        <ele>320</ele>
        <time>2016-03-23T14:00:06Z</time>
      </trkpt>
      <trkpt lat="44.48188" lon="1.67445">
        <ele>319</ele>
        <time>2016-03-23T14:00:11Z</time>
      </trkpt>
      <trkpt lat="44.48192" lon="1.67442">
        <ele>319</ele>
        <time>2016-03-23T14:00:14Z</time>
      </trkpt>
      <trkpt lat="44.48196" lon="1.67446">
        <ele>318</ele>
        <time>2016-03-23T14:00:19Z</time>
      </trkpt>
      <trkpt lat="44.48201" lon="1.67446">
        <ele>317</ele>
        <time>2016-03-23T14:00:23Z</time>
      </trkpt>
      <trkpt lat="44.48207" lon="1.67443">
        <ele>316</ele>
        <time>2016-03-23T14:00:26Z</time>
      </trkpt>
      <trkpt lat="44.48212" lon="1.67442">
        <ele>316</ele>
        <time>2016-03-23T14:00:29Z</time>
      </trkpt>
      <trkpt lat="44.48209" lon="1.67436">
        <ele>316</ele>
        <time>2016-03-23T14:00:41Z</time>
      </trkpt>
      <trkpt lat="44.48214" lon="1.67431">
        <ele>315</ele>
        <time>2016-03-23T14:00:45Z</time>
      </trkpt>
      <trkpt lat="44.48217" lon="1.67425">
        <ele>314</ele>
        <time>2016-03-23T14:00:48Z</time>
      </trkpt>
      <trkpt lat="44.4822" lon="1.6742">
        <ele>314</ele>
        <time>2016-03-23T14:00:50Z</time>
      </trkpt>
      <trkpt lat="44.48227" lon="1.67416">
        <ele>314</ele>
        <time>2016-03-23T14:00:54Z</time>
      </trkpt>
      <trkpt lat="44.48253" lon="1.67399">
        <ele>314</ele>
        <time>2016-03-23T14:01:19Z</time>
      </trkpt>
      <trkpt lat="44.48254" lon="1.674">
        <ele>315</ele>
        <time>2016-03-23T14:01:20Z</time>
      </trkpt>
      <trkpt lat="44.48262" lon="1.67399">
        <ele>316</ele>
        <time>2016-03-23T14:01:24Z</time>
      </trkpt>
      <trkpt lat="44.48269" lon="1.67394">
        <ele>317</ele>
        <time>2016-03-23T14:01:27Z</time>
      </trkpt>
      <trkpt lat="44.48273" lon="1.67395">
        <ele>318</ele>
        <time>2016-03-23T14:01:30Z</time>
      </trkpt>
      <trkpt lat="44.48281" lon="1.67396">
        <ele>318</ele>
        <time>2016-03-23T14:01:33Z</time>
      </trkpt>
      <trkpt lat="44.48281" lon="1.67389">
        <ele>318</ele>
        <time>2016-03-23T14:01:39Z</time>
      </trkpt>
      <trkpt lat="44.48286" lon="1.67387">
        <ele>317</ele>
        <time>2016-03-23T14:01:53Z</time>
      </trkpt>
      <trkpt lat="44.48291" lon="1.67386">
        <ele>316</ele>
        <time>2016-03-23T14:01:59Z</time>
      </trkpt>
      <trkpt lat="44.48296" lon="1.67384">
        <ele>315</ele>
        <time>2016-03-23T14:02:01Z</time>
      </trkpt>
      <trkpt lat="44.48304" lon="1.67381">
        <ele>315</ele>
        <time>2016-03-23T14:02:04Z</time>
      </trkpt>
      <trkpt lat="44.48308" lon="1.67377">
        <ele>316</ele>
        <time>2016-03-23T14:02:06Z</time>
      </trkpt>
      <trkpt lat="44.48314" lon="1.67377">
        <ele>316</ele>
        <time>2016-03-23T14:02:11Z</time>
      </trkpt>
      <trkpt lat="44.48322" lon="1.67375">
        <ele>318</ele>
        <time>2016-03-23T14:02:15Z</time>
      </trkpt>
      <trkpt lat="44.48328" lon="1.67374">
        <ele>319</ele>
        <time>2016-03-23T14:02:19Z</time>
      </trkpt>
      <trkpt lat="44.48329" lon="1.67367">
        <ele>319</ele>
        <time>2016-03-23T14:02:22Z</time>
      </trkpt>
      <trkpt lat="44.48333" lon="1.6737">
        <ele>320</ele>
        <time>2016-03-23T14:02:24Z</time>
      </trkpt>
      <trkpt lat="44.48335" lon="1.67363">
        <ele>320</ele>
        <time>2016-03-23T14:02:29Z</time>
      </trkpt>
      <trkpt lat="44.48338" lon="1.67359">
        <ele>319</ele>
        <time>2016-03-23T14:02:36Z</time>
      </trkpt>
      <trkpt lat="44.48343" lon="1.67358">
        <ele>319</ele>
        <time>2016-03-23T14:02:39Z</time>
      </trkpt>
      <trkpt lat="44.48375" lon="1.67362">
        <ele>318</ele>
        <time>2016-03-23T14:03:05Z</time>
      </trkpt>
      <trkpt lat="44.48369" lon="1.67361">
        <ele>318</ele>
        <time>2016-03-23T14:03:07Z</time>
      </trkpt>
      <trkpt lat="44.48374" lon="1.67352">
        <ele>316</ele>
        <time>2016-03-23T14:03:13Z</time>
      </trkpt>
      <trkpt lat="44.48389" lon="1.67345">
        <ele>317</ele>
        <time>2016-03-23T14:03:22Z</time>
      </trkpt>
      <trkpt lat="44.48389" lon="1.67332">
        <ele>318</ele>
        <time>2016-03-23T14:03:26Z</time>
      </trkpt>
      <trkpt lat="44.48389" lon="1.67321">
        <ele>316</ele>
        <time>2016-03-23T14:03:27Z</time>
      </trkpt>
      <trkpt lat="44.48392" lon="1.67329">
        <ele>313</ele>
        <time>2016-03-23T14:03:29Z</time>
      </trkpt>
      <trkpt lat="44.48386" lon="1.67317">
        <ele>311</ele>
        <time>2016-03-23T14:03:31Z</time>
      </trkpt>
      <trkpt lat="44.48394" lon="1.6732">
        <ele>307</ele>
        <time>2016-03-23T14:03:32Z</time>
      </trkpt>
      <trkpt lat="44.48401" lon="1.67316">
        <ele>303</ele>
        <time>2016-03-23T14:03:38Z</time>
      </trkpt>
      <trkpt lat="44.48403" lon="1.67309">
        <ele>301</ele>
        <time>2016-03-23T14:03:39Z</time>
      </trkpt>
      <trkpt lat="44.48408" lon="1.67315">
        <ele>299</ele>
        <time>2016-03-23T14:03:41Z</time>
      </trkpt>
      <trkpt lat="44.48415" lon="1.67315">
        <ele>299</ele>
        <time>2016-03-23T14:03:50Z</time>
      </trkpt>
      <trkpt lat="44.48418" lon="1.6732">
        <ele>299</ele>
        <time>2016-03-23T14:03:53Z</time>
      </trkpt>
      <trkpt lat="44.48423" lon="1.67317">
        <ele>299</ele>
        <time>2016-03-23T14:03:56Z</time>
      </trkpt>
      <trkpt lat="44.48428" lon="1.67311">
        <ele>300</ele>
        <time>2016-03-23T14:03:59Z</time>
      </trkpt>
      <trkpt lat="44.48433" lon="1.67309">
        <ele>299</ele>
        <time>2016-03-23T14:04:04Z</time>
      </trkpt>
      <trkpt lat="44.48437" lon="1.67306">
        <ele>299</ele>
        <time>2016-03-23T14:04:07Z</time>
      </trkpt>
      <trkpt lat="44.48442" lon="1.6731">
        <ele>298</ele>
        <time>2016-03-23T14:04:11Z</time>
      </trkpt>
      <trkpt lat="44.48437" lon="1.67305">
        <ele>297</ele>
        <time>2016-03-23T14:04:16Z</time>
      </trkpt>
      <trkpt lat="44.48444" lon="1.67302">
        <ele>297</ele>
        <time>2016-03-23T14:04:19Z</time>
      </trkpt>
      <trkpt lat="44.48449" lon="1.67305">
        <ele>300</ele>
        <time>2016-03-23T14:04:21Z</time>
      </trkpt>
      <trkpt lat="44.48452" lon="1.67313">
        <ele>303</ele>
        <time>2016-03-23T14:04:24Z</time>
      </trkpt>
      <trkpt lat="44.48455" lon="1.67307">
        <ele>305</ele>
        <time>2016-03-23T14:04:25Z</time>
      </trkpt>
      <trkpt lat="44.48461" lon="1.67305">
        <ele>308</ele>
        <time>2016-03-23T14:04:31Z</time>
      </trkpt>
      <trkpt lat="44.48465" lon="1.67301">
        <ele>310</ele>
        <time>2016-03-23T14:04:34Z</time>
      </trkpt>
      <trkpt lat="44.4847" lon="1.67304">
        <ele>312</ele>
        <time>2016-03-23T14:04:36Z</time>
      </trkpt>
      <trkpt lat="44.48472" lon="1.67296">
        <ele>313</ele>
        <time>2016-03-23T14:04:42Z</time>
      </trkpt>
      <trkpt lat="44.48476" lon="1.67301">
        <ele>314</ele>
        <time>2016-03-23T14:04:48Z</time>
      </trkpt>
      <trkpt lat="44.48476" lon="1.67307">
        <ele>314</ele>
        <time>2016-03-23T14:04:53Z</time>
      </trkpt>
      <trkpt lat="44.48471" lon="1.67313">
        <ele>314</ele>
        <time>2016-03-23T14:04:56Z</time>
      </trkpt>
      <trkpt lat="44.48467" lon="1.67318">
        <ele>315</ele>
        <time>2016-03-23T14:04:58Z</time>
      </trkpt>
      <trkpt lat="44.48462" lon="1.67319">
        <ele>315</ele>
        <time>2016-03-23T14:05:02Z</time>
      </trkpt>
      <trkpt lat="44.48456" lon="1.67321">
        <ele>316</ele>
        <time>2016-03-23T14:05:10Z</time>
      </trkpt>
      <trkpt lat="44.48456" lon="1.67322">
        <ele>317</ele>
        <time>2016-03-23T14:05:45Z</time>
      </trkpt>
      <trkpt lat="44.48456" lon="1.67322">
        <ele>318</ele>
        <time>2016-03-23T14:05:46Z</time>
      </trkpt>
      <trkpt lat="44.48495" lon="1.673">
        <ele>316</ele>
        <time>2016-03-23T14:14:39Z</time>
      </trkpt>
      <trkpt lat="44.48497" lon="1.67292">
        <ele>315</ele>
        <time>2016-03-23T14:14:40Z</time>
      </trkpt>
      <trkpt lat="44.48501" lon="1.67298">
        <ele>314</ele>
        <time>2016-03-23T14:14:41Z</time>
      </trkpt>
      <trkpt lat="44.48507" lon="1.67299">
        <ele>314</ele>
        <time>2016-03-23T14:14:44Z</time>
      </trkpt>
      <trkpt lat="44.48512" lon="1.67295">
        <ele>315</ele>
        <time>2016-03-23T14:14:46Z</time>
      </trkpt>
      <trkpt lat="44.48517" lon="1.67294">
        <ele>316</ele>
        <time>2016-03-23T14:14:48Z</time>
      </trkpt>
      <trkpt lat="44.48522" lon="1.67296">
        <ele>316</ele>
        <time>2016-03-23T14:14:53Z</time>
      </trkpt>
      <trkpt lat="44.48528" lon="1.67298">
        <ele>317</ele>
        <time>2016-03-23T14:15:07Z</time>
      </trkpt>
      <trkpt lat="44.48534" lon="1.67306">
        <ele>316</ele>
        <time>2016-03-23T14:15:12Z</time>
      </trkpt>
      <trkpt lat="44.4854" lon="1.67309">
        <ele>316</ele>
        <time>2016-03-23T14:15:15Z</time>
      </trkpt>
      <trkpt lat="44.48547" lon="1.67312">
        <ele>315</ele>
        <time>2016-03-23T14:15:19Z</time>
      </trkpt>
      <trkpt lat="44.48552" lon="1.67313">
        <ele>314</ele>
        <time>2016-03-23T14:15:21Z</time>
      </trkpt>
      <trkpt lat="44.48557" lon="1.67314">
        <ele>313</ele>
        <time>2016-03-23T14:15:24Z</time>
      </trkpt>
      <trkpt lat="44.48562" lon="1.67314">
        <ele>312</ele>
        <time>2016-03-23T14:15:28Z</time>
      </trkpt>
      <trkpt lat="44.48567" lon="1.67316">
        <ele>312</ele>
        <time>2016-03-23T14:15:32Z</time>
      </trkpt>
      <trkpt lat="44.48572" lon="1.6732">
        <ele>313</ele>
        <time>2016-03-23T14:15:36Z</time>
      </trkpt>
      <trkpt lat="44.48577" lon="1.67323">
        <ele>314</ele>
        <time>2016-03-23T14:15:44Z</time>
      </trkpt>
      <trkpt lat="44.48583" lon="1.67324">
        <ele>315</ele>
        <time>2016-03-23T14:15:51Z</time>
      </trkpt>
      <trkpt lat="44.48589" lon="1.67327">
        <ele>317</ele>
        <time>2016-03-23T14:15:53Z</time>
      </trkpt>
      <trkpt lat="44.48596" lon="1.67329">
        <ele>317</ele>
        <time>2016-03-23T14:15:57Z</time>
      </trkpt>
      <trkpt lat="44.48602" lon="1.67331">
        <ele>318</ele>
        <time>2016-03-23T14:16:00Z</time>
      </trkpt>
      <trkpt lat="44.48608" lon="1.67331">
        <ele>318</ele>
        <time>2016-03-23T14:16:03Z</time>
      </trkpt>
      <trkpt lat="44.48613" lon="1.67337">
        <ele>317</ele>
        <time>2016-03-23T14:16:06Z</time>
      </trkpt>
      <trkpt lat="44.48617" lon="1.67338">
        <ele>318</ele>
        <time>2016-03-23T14:16:08Z</time>
      </trkpt>
      <trkpt lat="44.48624" lon="1.67339">
        <ele>319</ele>
        <time>2016-03-23T14:16:12Z</time>
      </trkpt>
      <trkpt lat="44.48628" lon="1.67343">
        <ele>321</ele>
        <time>2016-03-23T14:16:25Z</time>
      </trkpt>
      <trkpt lat="44.48633" lon="1.67344">
        <ele>324</ele>
        <time>2016-03-23T14:16:32Z</time>
      </trkpt>
      <trkpt lat="44.48636" lon="1.67352">
        <ele>326</ele>
        <time>2016-03-23T14:16:38Z</time>
      </trkpt>
      <trkpt lat="44.48641" lon="1.67351">
        <ele>327</ele>
        <time>2016-03-23T14:16:43Z</time>
      </trkpt>
      <trkpt lat="44.48647" lon="1.67351">
        <ele>328</ele>
        <time>2016-03-23T14:16:47Z</time>
      </trkpt>
      <trkpt lat="44.48724" lon="1.67363">
        <ele>329</ele>
        <time>2016-03-23T14:17:50Z</time>
      </trkpt>
      <trkpt lat="44.48725" lon="1.67362">
        <ele>330</ele>
        <time>2016-03-23T14:17:54Z</time>
      </trkpt>
      <trkpt lat="44.48731" lon="1.67356">
        <ele>330</ele>
        <time>2016-03-23T14:18:23Z</time>
      </trkpt>
      <trkpt lat="44.48737" lon="1.67354">
        <ele>331</ele>
        <time>2016-03-23T14:18:27Z</time>
      </trkpt>
      <trkpt lat="44.48741" lon="1.67353">
        <ele>331</ele>
        <time>2016-03-23T14:18:31Z</time>
      </trkpt>
      <trkpt lat="44.48748" lon="1.67351">
        <ele>330</ele>
        <time>2016-03-23T14:18:35Z</time>
      </trkpt>
      <trkpt lat="44.48753" lon="1.6735">
        <ele>328</ele>
        <time>2016-03-23T14:18:38Z</time>
      </trkpt>
      <trkpt lat="44.48761" lon="1.67347">
        <ele>327</ele>
        <time>2016-03-23T14:18:40Z</time>
      </trkpt>
      <trkpt lat="44.48792" lon="1.67333">
        <ele>326</ele>
        <time>2016-03-23T14:18:51Z</time>
      </trkpt>
      <trkpt lat="44.48798" lon="1.67334">
        <ele>326</ele>
        <time>2016-03-23T14:18:53Z</time>
      </trkpt>
      <trkpt lat="44.48804" lon="1.67333">
        <ele>325</ele>
        <time>2016-03-23T14:18:57Z</time>
      </trkpt>
      <trkpt lat="44.4881" lon="1.67326">
        <ele>327</ele>
        <time>2016-03-23T14:19:01Z</time>
      </trkpt>
      <trkpt lat="44.48814" lon="1.67322">
        <ele>328</ele>
        <time>2016-03-23T14:19:04Z</time>
      </trkpt>
      <trkpt lat="44.48818" lon="1.67319">
        <ele>329</ele>
        <time>2016-03-23T14:19:08Z</time>
      </trkpt>
      <trkpt lat="44.48823" lon="1.67315">
        <ele>330</ele>
        <time>2016-03-23T14:19:12Z</time>
      </trkpt>
      <trkpt lat="44.48829" lon="1.67313">
        <ele>332</ele>
        <time>2016-03-23T14:19:15Z</time>
      </trkpt>
      <trkpt lat="44.48834" lon="1.67315">
        <ele>333</ele>
        <time>2016-03-23T14:19:16Z</time>
      </trkpt>
      <trkpt lat="44.48837" lon="1.6731">
        <ele>334</ele>
        <time>2016-03-23T14:19:20Z</time>
      </trkpt>
      <trkpt lat="44.48839" lon="1.67304">
        <ele>335</ele>
        <time>2016-03-23T14:19:25Z</time>
      </trkpt>
      <trkpt lat="44.48845" lon="1.67299">
        <ele>335</ele>
        <time>2016-03-23T14:19:32Z</time>
      </trkpt>
      <trkpt lat="44.4885" lon="1.67293">
        <ele>336</ele>
        <time>2016-03-23T14:19:36Z</time>
      </trkpt>
      <trkpt lat="44.48855" lon="1.67291">
        <ele>336</ele>
        <time>2016-03-23T14:19:43Z</time>
      </trkpt>
      <trkpt lat="44.48859" lon="1.67288">
        <ele>335</ele>
        <time>2016-03-23T14:19:51Z</time>
      </trkpt>
      <trkpt lat="44.48865" lon="1.67286">
        <ele>334</ele>
        <time>2016-03-23T14:19:57Z</time>
      </trkpt>
      <trkpt lat="44.48871" lon="1.67285">
        <ele>334</ele>
        <time>2016-03-23T14:20:00Z</time>
      </trkpt>
      <trkpt lat="44.48874" lon="1.6728">
        <ele>332</ele>
        <time>2016-03-23T14:20:06Z</time>
      </trkpt>
      <trkpt lat="44.48878" lon="1.67276">
        <ele>330</ele>
        <time>2016-03-23T14:20:10Z</time>
      </trkpt>
      <trkpt lat="44.48882" lon="1.67272">
        <ele>329</ele>
        <time>2016-03-23T14:20:15Z</time>
      </trkpt>
      <trkpt lat="44.48886" lon="1.67268">
        <ele>328</ele>
        <time>2016-03-23T14:20:19Z</time>
      </trkpt>
      <trkpt lat="44.48884" lon="1.6726">
        <ele>327</ele>
        <time>2016-03-23T14:20:21Z</time>
      </trkpt>
      <trkpt lat="44.48893" lon="1.6726">
        <ele>326</ele>
        <time>2016-03-23T14:20:23Z</time>
      </trkpt>
      <trkpt lat="44.48896" lon="1.67254">
        <ele>326</ele>
        <time>2016-03-23T14:20:27Z</time>
      </trkpt>
      <trkpt lat="44.48901" lon="1.67249">
        <ele>326</ele>
        <time>2016-03-23T14:20:32Z</time>
      </trkpt>
      <trkpt lat="44.48903" lon="1.67255">
        <ele>326</ele>
        <time>2016-03-23T14:20:44Z</time>
      </trkpt>
      <trkpt lat="44.48902" lon="1.67258">
        <ele>325</ele>
        <time>2016-03-23T14:21:02Z</time>
      </trkpt>
      <trkpt lat="44.48902" lon="1.67258">
        <ele>325</ele>
        <time>2016-03-23T14:21:03Z</time>
      </trkpt>
      <trkpt lat="44.48902" lon="1.67259">
        <ele>324</ele>
        <time>2016-03-23T14:21:18Z</time>
      </trkpt>
      <trkpt lat="44.48902" lon="1.67259">
        <ele>322</ele>
        <time>2016-03-23T14:21:19Z</time>
      </trkpt>
      <trkpt lat="44.489" lon="1.67261">
        <ele>322</ele>
        <time>2016-03-23T14:21:43Z</time>
      </trkpt>
      <trkpt lat="44.489" lon="1.67261">
        <ele>322</ele>
        <time>2016-03-23T14:21:44Z</time>
      </trkpt>
      <trkpt lat="44.489" lon="1.67261">
        <ele>322</ele>
        <time>2016-03-23T14:22:09Z</time>
      </trkpt>
      <trkpt lat="44.48917" lon="1.67237">
        <ele>325</ele>
        <time>2016-03-23T14:30:17Z</time>
      </trkpt>
      <trkpt lat="44.48922" lon="1.67235">
        <ele>325</ele>
        <time>2016-03-23T14:30:31Z</time>
      </trkpt>
      <trkpt lat="44.48923" lon="1.67229">
        <ele>326</ele>
        <time>2016-03-23T14:30:46Z</time>
      </trkpt>
      <trkpt lat="44.48927" lon="1.67224">
        <ele>326</ele>
        <time>2016-03-23T14:31:00Z</time>
      </trkpt>
      <trkpt lat="44.48932" lon="1.67222">
        <ele>326</ele>
        <time>2016-03-23T14:31:03Z</time>
      </trkpt>
      <trkpt lat="44.48938" lon="1.67217">
        <ele>326</ele>
        <time>2016-03-23T14:31:05Z</time>
      </trkpt>
      <trkpt lat="44.48941" lon="1.6721">
        <ele>326</ele>
        <time>2016-03-23T14:31:06Z</time>
      </trkpt>
      <trkpt lat="44.48945" lon="1.67208">
        <ele>325</ele>
        <time>2016-03-23T14:31:11Z</time>
      </trkpt>
      <trkpt lat="44.48947" lon="1.67201">
        <ele>324</ele>
        <time>2016-03-23T14:31:12Z</time>
      </trkpt>
      <trkpt lat="44.48952" lon="1.67197">
        <ele>323</ele>
        <time>2016-03-23T14:31:15Z</time>
      </trkpt>
      <trkpt lat="44.48951" lon="1.6719">
        <ele>322</ele>
        <time>2016-03-23T14:31:18Z</time>
      </trkpt>
      <trkpt lat="44.48956" lon="1.6719">
        <ele>319</ele>
        <time>2016-03-23T14:31:26Z</time>
      </trkpt>
      <trkpt lat="44.4896" lon="1.67185">
        <ele>317</ele>
        <time>2016-03-23T14:31:29Z</time>
      </trkpt>
      <trkpt lat="44.48957" lon="1.6718">
        <ele>314</ele>
        <time>2016-03-23T14:31:36Z</time>
      </trkpt>
      <trkpt lat="44.48957" lon="1.67174">
        <ele>311</ele>
        <time>2016-03-23T14:31:40Z</time>
      </trkpt>
      <trkpt lat="44.48954" lon="1.67168">
        <ele>308</ele>
        <time>2016-03-23T14:31:44Z</time>
      </trkpt>
      <trkpt lat="44.48952" lon="1.67161">
        <ele>308</ele>
        <time>2016-03-23T14:31:48Z</time>
      </trkpt>
      <trkpt lat="44.48937" lon="1.67153">
        <ele>307</ele>
        <time>2016-03-23T14:32:06Z</time>
      </trkpt>
      <trkpt lat="44.48931" lon="1.67148">
        <ele>307</ele>
        <time>2016-03-23T14:32:09Z</time>
      </trkpt>
      <trkpt lat="44.48926" lon="1.67146">
        <ele>307</ele>
        <time>2016-03-23T14:32:16Z</time>
      </trkpt>
      <trkpt lat="44.48921" lon="1.67143">
        <ele>306</ele>
        <time>2016-03-23T14:32:18Z</time>
      </trkpt>
      <trkpt lat="44.48917" lon="1.67138">
        <ele>305</ele>
        <time>2016-03-23T14:32:22Z</time>
      </trkpt>
      <trkpt lat="44.48934" lon="1.67147">
        <ele>304</ele>
        <time>2016-03-23T14:32:24Z</time>
      </trkpt>
      <trkpt lat="44.48929" lon="1.67142">
        <ele>303</ele>
        <time>2016-03-23T14:32:25Z</time>
      </trkpt>
      <trkpt lat="44.48924" lon="1.67137">
        <ele>303</ele>
        <time>2016-03-23T14:32:26Z</time>
      </trkpt>
      <trkpt lat="44.48922" lon="1.67131">
        <ele>303</ele>
        <time>2016-03-23T14:32:28Z</time>
      </trkpt>
      <trkpt lat="44.48922" lon="1.67123">
        <ele>303</ele>
        <time>2016-03-23T14:32:33Z</time>
      </trkpt>
      <trkpt lat="44.48919" lon="1.67117">
        <ele>304</ele>
        <time>2016-03-23T14:32:36Z</time>
      </trkpt>
      <trkpt lat="44.48922" lon="1.67112">
        <ele>304</ele>
        <time>2016-03-23T14:32:38Z</time>
      </trkpt>
      <trkpt lat="44.48927" lon="1.67108">
        <ele>303</ele>
        <time>2016-03-23T14:32:44Z</time>
      </trkpt>
      <trkpt lat="44.48932" lon="1.67104">
        <ele>302</ele>
        <time>2016-03-23T14:32:51Z</time>
      </trkpt>
      <trkpt lat="44.48937" lon="1.67101">
        <ele>301</ele>
        <time>2016-03-23T14:32:55Z</time>
      </trkpt>
      <trkpt lat="44.48938" lon="1.67095">
        <ele>300</ele>
        <time>2016-03-23T14:33:05Z</time>
      </trkpt>
      <trkpt lat="44.48944" lon="1.67092">
        <ele>299</ele>
        <time>2016-03-23T14:33:06Z</time>
      </trkpt>
      <trkpt lat="44.48951" lon="1.67081">
        <ele>299</ele>
        <time>2016-03-23T14:33:08Z</time>
      </trkpt>
      <trkpt lat="44.48954" lon="1.67075">
        <ele>299</ele>
        <time>2016-03-23T14:33:12Z</time>
      </trkpt>
      <trkpt lat="44.48957" lon="1.67065">
        <ele>298</ele>
        <time>2016-03-23T14:33:19Z</time>
      </trkpt>
      <trkpt lat="44.48964" lon="1.67063">
        <ele>298</ele>
        <time>2016-03-23T14:33:27Z</time>
      </trkpt>
      <trkpt lat="44.48969" lon="1.67057">
        <ele>298</ele>
        <time>2016-03-23T14:33:33Z</time>
      </trkpt>
      <trkpt lat="44.48972" lon="1.67064">
        <ele>297</ele>
        <time>2016-03-23T14:33:36Z</time>
      </trkpt>
      <trkpt lat="44.48976" lon="1.67068">
        <ele>296</ele>
        <time>2016-03-23T14:33:37Z</time>
      </trkpt>
      <trkpt lat="44.48982" lon="1.67064">
        <ele>295</ele>
        <time>2016-03-23T14:33:41Z</time>
      </trkpt>
      <trkpt lat="44.48984" lon="1.67057">
        <ele>295</ele>
        <time>2016-03-23T14:33:44Z</time>
      </trkpt>
      <trkpt lat="44.48989" lon="1.67057">
        <ele>295</ele>
        <time>2016-03-23T14:33:47Z</time>
      </trkpt>
      <trkpt lat="44.48996" lon="1.67055">
        <ele>294</ele>
        <time>2016-03-23T14:33:52Z</time>
      </trkpt>
      <trkpt lat="44.49002" lon="1.6705">
        <ele>294</ele>
        <time>2016-03-23T14:33:54Z</time>
      </trkpt>
      <trkpt lat="44.49006" lon="1.67056">
        <ele>293</ele>
        <time>2016-03-23T14:34:01Z</time>
      </trkpt>
      <trkpt lat="44.4901" lon="1.67058">
        <ele>292</ele>
        <time>2016-03-23T14:34:06Z</time>
      </trkpt>
      <trkpt lat="44.49015" lon="1.67062">
        <ele>291</ele>
        <time>2016-03-23T14:34:11Z</time>
      </trkpt>
      <trkpt lat="44.49021" lon="1.67067">
        <ele>290</ele>
        <time>2016-03-23T14:34:17Z</time>
      </trkpt>
      <trkpt lat="44.49025" lon="1.67066">
        <ele>289</ele>
        <time>2016-03-23T14:34:21Z</time>
      </trkpt>
      <trkpt lat="44.49027" lon="1.67059">
        <ele>288</ele>
        <time>2016-03-23T14:34:27Z</time>
      </trkpt>
      <trkpt lat="44.49027" lon="1.67052">
        <ele>288</ele>
        <time>2016-03-23T14:34:31Z</time>
      </trkpt>
      <trkpt lat="44.49024" lon="1.67047">
        <ele>287</ele>
        <time>2016-03-23T14:34:35Z</time>
      </trkpt>
      <trkpt lat="44.49022" lon="1.67042">
        <ele>286</ele>
        <time>2016-03-23T14:34:39Z</time>
      </trkpt>
      <trkpt lat="44.49021" lon="1.67035">
        <ele>285</ele>
        <time>2016-03-23T14:34:44Z</time>
      </trkpt>
      <trkpt lat="44.49017" lon="1.67029">
        <ele>285</ele>
        <time>2016-03-23T14:34:49Z</time>
      </trkpt>
      <trkpt lat="44.49014" lon="1.67023">
        <ele>284</ele>
        <time>2016-03-23T14:34:54Z</time>
      </trkpt>
      <trkpt lat="44.49012" lon="1.67016">
        <ele>283</ele>
        <time>2016-03-23T14:34:58Z</time>
      </trkpt>
      <trkpt lat="44.49011" lon="1.6701">
        <ele>283</ele>
        <time>2016-03-23T14:35:01Z</time>
      </trkpt>
      <trkpt lat="44.4901" lon="1.67004">
        <ele>282</ele>
        <time>2016-03-23T14:35:03Z</time>
      </trkpt>
      <trkpt lat="44.49008" lon="1.67003">
        <ele>282</ele>
        <time>2016-03-23T14:35:42Z</time>
      </trkpt>
      <trkpt lat="44.49008" lon="1.67003">
        <ele>283</ele>
        <time>2016-03-23T14:35:43Z</time>
      </trkpt>
      <trkpt lat="44.49005" lon="1.67001">
        <ele>283</ele>
        <time>2016-03-23T14:36:16Z</time>
      </trkpt>
      <trkpt lat="44.49004" lon="1.67001">
        <ele>283</ele>
        <time>2016-03-23T14:36:18Z</time>
      </trkpt>
      <trkpt lat="44.49" lon="1.66994">
        <ele>283</ele>
        <time>2016-03-23T14:36:23Z</time>
      </trkpt>
      <trkpt lat="44.48995" lon="1.66991">
        <ele>282</ele>
        <time>2016-03-23T14:36:27Z</time>
      </trkpt>
      <trkpt lat="44.4899" lon="1.66987">
        <ele>281</ele>
        <time>2016-03-23T14:36:30Z</time>
      </trkpt>
      <trkpt lat="44.48984" lon="1.66982">
        <ele>281</ele>
        <time>2016-03-23T14:36:34Z</time>
      </trkpt>
      <trkpt lat="44.48979" lon="1.6698">
        <ele>280</ele>
        <time>2016-03-23T14:36:37Z</time>
      </trkpt>
      <trkpt lat="44.48975" lon="1.66975">
        <ele>280</ele>
        <time>2016-03-23T14:36:42Z</time>
      </trkpt>
      <trkpt lat="44.4897" lon="1.6697">
        <ele>280</ele>
        <time>2016-03-23T14:36:49Z</time>
      </trkpt>
      <trkpt lat="44.48929" lon="1.66959">
        <ele>275</ele>
        <time>2016-03-23T14:37:28Z</time>
      </trkpt>
      <trkpt lat="44.48931" lon="1.6696">
        <ele>270</ele>
        <time>2016-03-23T14:37:29Z</time>
      </trkpt>
      <trkpt lat="44.48929" lon="1.66953">
        <ele>265</ele>
        <time>2016-03-23T14:37:30Z</time>
      </trkpt>
      <trkpt lat="44.48923" lon="1.66945">
        <ele>261</ele>
        <time>2016-03-23T14:37:31Z</time>
      </trkpt>
      <trkpt lat="44.48918" lon="1.66941">
        <ele>258</ele>
        <time>2016-03-23T14:37:34Z</time>
      </trkpt>
      <trkpt lat="44.48913" lon="1.66941">
        <ele>260</ele>
        <time>2016-03-23T14:37:37Z</time>
      </trkpt>
      <trkpt lat="44.48909" lon="1.66934">
        <ele>262</ele>
        <time>2016-03-23T14:37:41Z</time>
      </trkpt>
      <trkpt lat="44.48905" lon="1.66932">
        <ele>265</ele>
        <time>2016-03-23T14:37:45Z</time>
      </trkpt>
      <trkpt lat="44.489" lon="1.66931">
        <ele>267</ele>
        <time>2016-03-23T14:37:48Z</time>
      </trkpt>
      <trkpt lat="44.48895" lon="1.6693">
        <ele>267</ele>
        <time>2016-03-23T14:37:52Z</time>
      </trkpt>
      <trkpt lat="44.4889" lon="1.66927">
        <ele>267</ele>
        <time>2016-03-23T14:37:57Z</time>
      </trkpt>
      <trkpt lat="44.48886" lon="1.66924">
        <ele>267</ele>
        <time>2016-03-23T14:38:01Z</time>
      </trkpt>
      <trkpt lat="44.48881" lon="1.66921">
        <ele>266</ele>
        <time>2016-03-23T14:38:07Z</time>
      </trkpt>
      <trkpt lat="44.4888" lon="1.66914">
        <ele>265</ele>
        <time>2016-03-23T14:38:13Z</time>
      </trkpt>
      <trkpt lat="44.4888" lon="1.66908">
        <ele>264</ele>
        <time>2016-03-23T14:38:16Z</time>
      </trkpt>
      <trkpt lat="44.48884" lon="1.66902">
        <ele>264</ele>
        <time>2016-03-23T14:38:22Z</time>
      </trkpt>
      <trkpt lat="44.48887" lon="1.66897">
        <ele>262</ele>
        <time>2016-03-23T14:38:27Z</time>
      </trkpt>
      <trkpt lat="44.48892" lon="1.66892">
        <ele>261</ele>
        <time>2016-03-23T14:38:31Z</time>
      </trkpt>
      <trkpt lat="44.48897" lon="1.6689">
        <ele>260</ele>
        <time>2016-03-23T14:38:37Z</time>
      </trkpt>
      <trkpt lat="44.48902" lon="1.6689">
        <ele>259</ele>
        <time>2016-03-23T14:38:42Z</time>
      </trkpt>
      <trkpt lat="44.48906" lon="1.66886">
        <ele>258</ele>
        <time>2016-03-23T14:38:44Z</time>
      </trkpt>
      <trkpt lat="44.4891" lon="1.66881">
        <ele>258</ele>
        <time>2016-03-23T14:38:47Z</time>
      </trkpt>
      <trkpt lat="44.48915" lon="1.66881">
        <ele>257</ele>
        <time>2016-03-23T14:38:53Z</time>
      </trkpt>
      <trkpt lat="44.4892" lon="1.66881">
        <ele>256</ele>
        <time>2016-03-23T14:38:55Z</time>
      </trkpt>
      <trkpt lat="44.48926" lon="1.66879">
        <ele>256</ele>
        <time>2016-03-23T14:38:59Z</time>
      </trkpt>
      <trkpt lat="44.48931" lon="1.66877">
        <ele>257</ele>
        <time>2016-03-23T14:39:02Z</time>
      </trkpt>
      <trkpt lat="44.48937" lon="1.66876">
        <ele>257</ele>
        <time>2016-03-23T14:39:05Z</time>
      </trkpt>
      <trkpt lat="44.48941" lon="1.66872">
        <ele>257</ele>
        <time>2016-03-23T14:39:11Z</time>
      </trkpt>
      <trkpt lat="44.48946" lon="1.66871">
        <ele>257</ele>
        <time>2016-03-23T14:39:14Z</time>
      </trkpt>
      <trkpt lat="44.48951" lon="1.66868">
        <ele>257</ele>
        <time>2016-03-23T14:39:17Z</time>
      </trkpt>
      <trkpt lat="44.48956" lon="1.66866">
        <ele>257</ele>
        <time>2016-03-23T14:39:21Z</time>
      </trkpt>
      <trkpt lat="44.4896" lon="1.66863">
        <ele>257</ele>
        <time>2016-03-23T14:39:25Z</time>
      </trkpt>
      <trkpt lat="44.48967" lon="1.66861">
        <ele>257</ele>
        <time>2016-03-23T14:39:31Z</time>
      </trkpt>
      <trkpt lat="44.48972" lon="1.66861">
        <ele>257</ele>
        <time>2016-03-23T14:39:34Z</time>
      </trkpt>
      <trkpt lat="44.48977" lon="1.6686">
        <ele>257</ele>
        <time>2016-03-23T14:39:36Z</time>
      </trkpt>
      <trkpt lat="44.48983" lon="1.66858">
        <ele>257</ele>
        <time>2016-03-23T14:39:42Z</time>
      </trkpt>
      <trkpt lat="44.48991" lon="1.66858">
        <ele>257</ele>
        <time>2016-03-23T14:39:46Z</time>
      </trkpt>
      <trkpt lat="44.48997" lon="1.66858">
        <ele>256</ele>
        <time>2016-03-23T14:39:50Z</time>
      </trkpt>
      <trkpt lat="44.49001" lon="1.6686">
        <ele>254</ele>
        <time>2016-03-23T14:39:58Z</time>
      </trkpt>
      <trkpt lat="44.49008" lon="1.66858">
        <ele>253</ele>
        <time>2016-03-23T14:40:04Z</time>
      </trkpt>
      <trkpt lat="44.49015" lon="1.66857">
        <ele>252</ele>
        <time>2016-03-23T14:40:09Z</time>
      </trkpt>
      <trkpt lat="44.4902" lon="1.66857">
        <ele>251</ele>
        <time>2016-03-23T14:40:12Z</time>
      </trkpt>
      <trkpt lat="44.49026" lon="1.6686">
        <ele>251</ele>
        <time>2016-03-23T14:40:17Z</time>
      </trkpt>
      <trkpt lat="44.49031" lon="1.66859">
        <ele>250</ele>
        <time>2016-03-23T14:40:20Z</time>
      </trkpt>
      <trkpt lat="44.49036" lon="1.66862">
        <ele>249</ele>
        <time>2016-03-23T14:40:23Z</time>
      </trkpt>
      <trkpt lat="44.49041" lon="1.66868">
        <ele>249</ele>
        <time>2016-03-23T14:40:28Z</time>
      </trkpt>
      <trkpt lat="44.49046" lon="1.66868">
        <ele>248</ele>
        <time>2016-03-23T14:40:31Z</time>
      </trkpt>
      <trkpt lat="44.49052" lon="1.66872">
        <ele>249</ele>
        <time>2016-03-23T14:40:35Z</time>
      </trkpt>
      <trkpt lat="44.49058" lon="1.66875">
        <ele>249</ele>
        <time>2016-03-23T14:40:38Z</time>
      </trkpt>
      <trkpt lat="44.49064" lon="1.66877">
        <ele>249</ele>
        <time>2016-03-23T14:40:42Z</time>
      </trkpt>
      <trkpt lat="44.49069" lon="1.66878">
        <ele>248</ele>
        <time>2016-03-23T14:40:46Z</time>
      </trkpt>
      <trkpt lat="44.49074" lon="1.66882">
        <ele>247</ele>
        <time>2016-03-23T14:40:52Z</time>
      </trkpt>
      <trkpt lat="44.49079" lon="1.66885">
        <ele>246</ele>
        <time>2016-03-23T14:40:55Z</time>
      </trkpt>
      <trkpt lat="44.49085" lon="1.66887">
        <ele>245</ele>
        <time>2016-03-23T14:41:01Z</time>
      </trkpt>
      <trkpt lat="44.49091" lon="1.66888">
        <ele>245</ele>
        <time>2016-03-23T14:41:03Z</time>
      </trkpt>
      <trkpt lat="44.49094" lon="1.66893">
        <ele>245</ele>
        <time>2016-03-23T14:41:05Z</time>
      </trkpt>
      <trkpt lat="44.491" lon="1.66894">
        <ele>245</ele>
        <time>2016-03-23T14:41:11Z</time>
      </trkpt>
      <trkpt lat="44.49104" lon="1.66897">
        <ele>245</ele>
        <time>2016-03-23T14:41:13Z</time>
      </trkpt>
      <trkpt lat="44.49109" lon="1.66896">
        <ele>245</ele>
        <time>2016-03-23T14:41:17Z</time>
      </trkpt>
      <trkpt lat="44.49114" lon="1.66897">
        <ele>246</ele>
        <time>2016-03-23T14:41:19Z</time>
      </trkpt>
      <trkpt lat="44.49119" lon="1.66902">
        <ele>246</ele>
        <time>2016-03-23T14:41:24Z</time>
      </trkpt>
      <trkpt lat="44.49125" lon="1.66904">
        <ele>246</ele>
        <time>2016-03-23T14:41:28Z</time>
      </trkpt>
      <trkpt lat="44.4913" lon="1.66905">
        <ele>246</ele>
        <time>2016-03-23T14:41:38Z</time>
      </trkpt>
      <trkpt lat="44.49136" lon="1.66906">
        <ele>245</ele>
        <time>2016-03-23T14:41:41Z</time>
      </trkpt>
      <trkpt lat="44.49144" lon="1.66902">
        <ele>243</ele>
        <time>2016-03-23T14:41:44Z</time>
      </trkpt>
      <trkpt lat="44.49148" lon="1.66905">
        <ele>243</ele>
        <time>2016-03-23T14:41:48Z</time>
      </trkpt>
      <trkpt lat="44.49187" lon="1.66886">
        <ele>241</ele>
        <time>2016-03-23T14:42:19Z</time>
      </trkpt>
      <trkpt lat="44.49188" lon="1.66885">
        <ele>240</ele>
        <time>2016-03-23T14:42:20Z</time>
      </trkpt>
      <trkpt lat="44.49191" lon="1.6689">
        <ele>239</ele>
        <time>2016-03-23T14:42:39Z</time>
      </trkpt>
      <trkpt lat="44.49196" lon="1.66892">
        <ele>238</ele>
        <time>2016-03-23T14:42:44Z</time>
      </trkpt>
      <trkpt lat="44.492" lon="1.66892">
        <ele>236</ele>
        <time>2016-03-23T14:42:49Z</time>
      </trkpt>
      <trkpt lat="44.49205" lon="1.66888">
        <ele>235</ele>
        <time>2016-03-23T14:42:55Z</time>
      </trkpt>
      <trkpt lat="44.4921" lon="1.66886">
        <ele>234</ele>
        <time>2016-03-23T14:42:59Z</time>
      </trkpt>
      <trkpt lat="44.49215" lon="1.66887">
        <ele>233</ele>
        <time>2016-03-23T14:43:04Z</time>
      </trkpt>
      <trkpt lat="44.49219" lon="1.66892">
        <ele>233</ele>
        <time>2016-03-23T14:43:08Z</time>
      </trkpt>
      <trkpt lat="44.49225" lon="1.66892">
        <ele>234</ele>
        <time>2016-03-23T14:43:12Z</time>
      </trkpt>
      <trkpt lat="44.49223" lon="1.669">
        <ele>234</ele>
        <time>2016-03-23T14:43:14Z</time>
      </trkpt>
      <trkpt lat="44.49226" lon="1.66903">
        <ele>234</ele>
        <time>2016-03-23T14:43:15Z</time>
      </trkpt>
      <trkpt lat="44.4923" lon="1.66908">
        <ele>234</ele>
        <time>2016-03-23T14:43:21Z</time>
      </trkpt>
      <trkpt lat="44.49234" lon="1.66906">
        <ele>234</ele>
        <time>2016-03-23T14:43:30Z</time>
      </trkpt>
      <trkpt lat="44.49238" lon="1.66912">
        <ele>233</ele>
        <time>2016-03-23T14:43:47Z</time>
      </trkpt>
      <trkpt lat="44.4924" lon="1.66911">
        <ele>232</ele>
        <time>2016-03-23T14:44:02Z</time>
      </trkpt>
      <trkpt lat="44.4924" lon="1.66911">
        <ele>231</ele>
        <time>2016-03-23T14:44:03Z</time>
      </trkpt>
      <trkpt lat="44.49239" lon="1.66896">
        <ele>230</ele>
        <time>2016-03-23T14:44:20Z</time>
      </trkpt>
      <trkpt lat="44.49237" lon="1.66889">
        <ele>229</ele>
        <time>2016-03-23T14:44:22Z</time>
      </trkpt>
      <trkpt lat="44.49238" lon="1.66879">
        <ele>229</ele>
        <time>2016-03-23T14:44:24Z</time>
      </trkpt>
      <trkpt lat="44.49242" lon="1.66873">
        <ele>229</ele>
        <time>2016-03-23T14:44:26Z</time>
      </trkpt>
      <trkpt lat="44.49244" lon="1.66864">
        <ele>229</ele>
        <time>2016-03-23T14:44:29Z</time>
      </trkpt>
      <trkpt lat="44.49247" lon="1.66858">
        <ele>229</ele>
        <time>2016-03-23T14:44:31Z</time>
      </trkpt>
      <trkpt lat="44.49246" lon="1.66851">
        <ele>229</ele>
        <time>2016-03-23T14:44:36Z</time>
      </trkpt>
      <trkpt lat="44.49248" lon="1.66844">
        <ele>229</ele>
        <time>2016-03-23T14:44:40Z</time>
      </trkpt>
      <trkpt lat="44.49252" lon="1.66834">
        <ele>229</ele>
        <time>2016-03-23T14:44:42Z</time>
      </trkpt>
      <trkpt lat="44.49254" lon="1.66827">
        <ele>229</ele>
        <time>2016-03-23T14:44:53Z</time>
      </trkpt>
      <trkpt lat="44.4925" lon="1.66826">
        <ele>229</ele>
        <time>2016-03-23T14:45:12Z</time>
      </trkpt>
      <trkpt lat="44.49251" lon="1.66825">
        <ele>230</ele>
        <time>2016-03-23T14:45:13Z</time>
      </trkpt>
      <trkpt lat="44.49255" lon="1.66829">
        <ele>230</ele>
        <time>2016-03-23T14:45:45Z</time>
      </trkpt>
      <trkpt lat="44.49261" lon="1.66833">
        <ele>230</ele>
        <time>2016-03-23T14:45:48Z</time>
      </trkpt>
      <trkpt lat="44.49265" lon="1.66838">
        <ele>229</ele>
        <time>2016-03-23T14:45:50Z</time>
      </trkpt>
      <trkpt lat="44.49269" lon="1.66843">
        <ele>230</ele>
        <time>2016-03-23T14:45:52Z</time>
      </trkpt>
      <trkpt lat="44.49274" lon="1.66842">
        <ele>230</ele>
        <time>2016-03-23T14:45:57Z</time>
      </trkpt>
      <trkpt lat="44.4928" lon="1.66841">
        <ele>229</ele>
        <time>2016-03-23T14:46:01Z</time>
      </trkpt>
      <trkpt lat="44.49285" lon="1.66844">
        <ele>230</ele>
        <time>2016-03-23T14:46:04Z</time>
      </trkpt>
      <trkpt lat="44.4929" lon="1.66845">
        <ele>231</ele>
        <time>2016-03-23T14:46:08Z</time>
      </trkpt>
      <trkpt lat="44.49295" lon="1.66847">
        <ele>230</ele>
        <time>2016-03-23T14:46:13Z</time>
      </trkpt>
      <trkpt lat="44.49299" lon="1.66848">
        <ele>230</ele>
        <time>2016-03-23T14:46:16Z</time>
      </trkpt>
      <trkpt lat="44.49304" lon="1.66849">
        <ele>232</ele>
        <time>2016-03-23T14:46:19Z</time>
      </trkpt>
      <trkpt lat="44.49308" lon="1.66847">
        <ele>232</ele>
        <time>2016-03-23T14:46:22Z</time>
      </trkpt>
      <trkpt lat="44.49313" lon="1.66849">
        <ele>233</ele>
        <time>2016-03-23T14:46:25Z</time>
      </trkpt>
      <trkpt lat="44.49318" lon="1.66851">
        <ele>234</ele>
        <time>2016-03-23T14:46:29Z</time>
      </trkpt>
      <trkpt lat="44.49323" lon="1.66852">
        <ele>235</ele>
        <time>2016-03-23T14:46:35Z</time>
      </trkpt>
      <trkpt lat="44.49328" lon="1.66851">
        <ele>236</ele>
        <time>2016-03-23T14:46:40Z</time>
      </trkpt>
      <trkpt lat="44.49333" lon="1.6685">
        <ele>237</ele>
        <time>2016-03-23T14:46:45Z</time>
      </trkpt>
      <trkpt lat="44.49337" lon="1.66849">
        <ele>238</ele>
        <time>2016-03-23T14:46:50Z</time>
      </trkpt>
      <trkpt lat="44.49342" lon="1.66846">
        <ele>237</ele>
        <time>2016-03-23T14:46:56Z</time>
      </trkpt>
      <trkpt lat="44.49347" lon="1.66846">
        <ele>236</ele>
        <time>2016-03-23T14:47:02Z</time>
      </trkpt>
      <trkpt lat="44.49351" lon="1.66844">
        <ele>235</ele>
        <time>2016-03-23T14:47:08Z</time>
      </trkpt>
      <trkpt lat="44.49356" lon="1.66842">
        <ele>234</ele>
        <time>2016-03-23T14:47:12Z</time>
      </trkpt>
      <trkpt lat="44.49361" lon="1.66843">
        <ele>234</ele>
        <time>2016-03-23T14:47:19Z</time>
      </trkpt>
      <trkpt lat="44.49364" lon="1.66843">
        <ele>235</ele>
        <time>2016-03-23T14:47:32Z</time>
      </trkpt>
      <trkpt lat="44.49366" lon="1.66829">
        <ele>238</ele>
        <time>2016-03-23T14:48:14Z</time>
      </trkpt>
      <trkpt lat="44.49367" lon="1.66827">
        <ele>242</ele>
        <time>2016-03-23T14:48:15Z</time>
      </trkpt>
      <trkpt lat="44.49376" lon="1.66822">
        <ele>246</ele>
        <time>2016-03-23T14:48:16Z</time>
      </trkpt>
      <trkpt lat="44.49382" lon="1.66819">
        <ele>250</ele>
        <time>2016-03-23T14:48:18Z</time>
      </trkpt>
      <trkpt lat="44.49386" lon="1.66815">
        <ele>254</ele>
        <time>2016-03-23T14:48:22Z</time>
      </trkpt>
      <trkpt lat="44.4939" lon="1.66813">
        <ele>255</ele>
        <time>2016-03-23T14:48:27Z</time>
      </trkpt>
      <trkpt lat="44.49389" lon="1.66806">
        <ele>256</ele>
        <time>2016-03-23T14:48:32Z</time>
      </trkpt>
      <trkpt lat="44.49393" lon="1.66799">
        <ele>256</ele>
        <time>2016-03-23T14:48:38Z</time>
      </trkpt>
      <trkpt lat="44.49398" lon="1.66795">
        <ele>255</ele>
        <time>2016-03-23T14:48:41Z</time>
      </trkpt>
      <trkpt lat="44.49404" lon="1.6679">
        <ele>254</ele>
        <time>2016-03-23T14:48:45Z</time>
      </trkpt>
      <trkpt lat="44.49407" lon="1.66785">
        <ele>254</ele>
        <time>2016-03-23T14:48:49Z</time>
      </trkpt>
      <trkpt lat="44.49406" lon="1.66779">
        <ele>254</ele>
        <time>2016-03-23T14:48:57Z</time>
      </trkpt>
      <trkpt lat="44.49407" lon="1.66778">
        <ele>256</ele>
        <time>2016-03-23T14:49:18Z</time>
      </trkpt>
      <trkpt lat="44.49407" lon="1.66778">
        <ele>256</ele>
        <time>2016-03-23T14:49:19Z</time>
      </trkpt>
      <trkpt lat="44.49413" lon="1.66771">
        <ele>257</ele>
        <time>2016-03-23T14:49:24Z</time>
      </trkpt>
      <trkpt lat="44.49413" lon="1.66764">
        <ele>258</ele>
        <time>2016-03-23T14:49:31Z</time>
      </trkpt>
      <trkpt lat="44.49415" lon="1.66765">
        <ele>259</ele>
        <time>2016-03-23T14:50:12Z</time>
      </trkpt>
      <trkpt lat="44.49415" lon="1.66765">
        <ele>259</ele>
        <time>2016-03-23T14:50:13Z</time>
      </trkpt>
      <trkpt lat="44.49415" lon="1.66765">
        <ele>260</ele>
        <time>2016-03-23T14:50:14Z</time>
      </trkpt>
      <trkpt lat="44.49424" lon="1.66747">
        <ele>256</ele>
        <time>2016-03-23T14:50:47Z</time>
      </trkpt>
      <trkpt lat="44.49428" lon="1.66741">
        <ele>254</ele>
        <time>2016-03-23T14:50:52Z</time>
      </trkpt>
      <trkpt lat="44.49432" lon="1.66734">
        <ele>252</ele>
        <time>2016-03-23T14:50:57Z</time>
      </trkpt>
      <trkpt lat="44.49434" lon="1.66724">
        <ele>252</ele>
        <time>2016-03-23T14:51:08Z</time>
      </trkpt>
      <trkpt lat="44.49438" lon="1.66715">
        <ele>253</ele>
        <time>2016-03-23T14:51:10Z</time>
      </trkpt>
      <trkpt lat="44.49441" lon="1.66706">
        <ele>254</ele>
        <time>2016-03-23T14:51:13Z</time>
      </trkpt>
      <trkpt lat="44.49443" lon="1.667">
        <ele>257</ele>
        <time>2016-03-23T14:51:19Z</time>
      </trkpt>
      <trkpt lat="44.49446" lon="1.66695">
        <ele>258</ele>
        <time>2016-03-23T14:51:21Z</time>
      </trkpt>
      <trkpt lat="44.49448" lon="1.66689">
        <ele>258</ele>
        <time>2016-03-23T14:51:25Z</time>
      </trkpt>
      <trkpt lat="44.4945" lon="1.66683">
        <ele>259</ele>
        <time>2016-03-23T14:51:28Z</time>
      </trkpt>
      <trkpt lat="44.49451" lon="1.66677">
        <ele>259</ele>
        <time>2016-03-23T14:51:32Z</time>
      </trkpt>
      <trkpt lat="44.49455" lon="1.66672">
        <ele>259</ele>
        <time>2016-03-23T14:51:35Z</time>
      </trkpt>
      <trkpt lat="44.49456" lon="1.66665">
        <ele>260</ele>
        <time>2016-03-23T14:51:39Z</time>
      </trkpt>
      <trkpt lat="44.4946" lon="1.66658">
        <ele>261</ele>
        <time>2016-03-23T14:51:45Z</time>
      </trkpt>
      <trkpt lat="44.49462" lon="1.66652">
        <ele>263</ele>
        <time>2016-03-23T14:51:49Z</time>
      </trkpt>
      <trkpt lat="44.49453" lon="1.66633">
        <ele>263</ele>
        <time>2016-03-23T14:52:12Z</time>
      </trkpt>
      <trkpt lat="44.49461" lon="1.66626">
        <ele>264</ele>
        <time>2016-03-23T14:52:13Z</time>
      </trkpt>
      <trkpt lat="44.4947" lon="1.66629">
        <ele>263</ele>
        <time>2016-03-23T14:52:18Z</time>
      </trkpt>
      <trkpt lat="44.49479" lon="1.66626">
        <ele>261</ele>
        <time>2016-03-23T14:52:19Z</time>
      </trkpt>
      <trkpt lat="44.49474" lon="1.66629">
        <ele>261</ele>
        <time>2016-03-23T14:52:21Z</time>
      </trkpt>
      <trkpt lat="44.4947" lon="1.66628">
        <ele>262</ele>
        <time>2016-03-23T14:52:24Z</time>
      </trkpt>
      <trkpt lat="44.49465" lon="1.6663">
        <ele>261</ele>
        <time>2016-03-23T14:52:31Z</time>
      </trkpt>
      <trkpt lat="44.49462" lon="1.66632">
        <ele>262</ele>
        <time>2016-03-23T14:52:52Z</time>
      </trkpt>
      <trkpt lat="44.49462" lon="1.66632">
        <ele>263</ele>
        <time>2016-03-23T14:52:53Z</time>
      </trkpt>
      <trkpt lat="44.49468" lon="1.66637">
        <ele>261</ele>
        <time>2016-03-23T14:53:21Z</time>
      </trkpt>
      <trkpt lat="44.49473" lon="1.66642">
        <ele>260</ele>
        <time>2016-03-23T14:53:23Z</time>
      </trkpt>
      <trkpt lat="44.49495" lon="1.66697">
        <ele>266</ele>
        <time>2016-03-23T14:53:42Z</time>
      </trkpt>
      <trkpt lat="44.49497" lon="1.66703">
        <ele>266</ele>
        <time>2016-03-23T14:53:46Z</time>
      </trkpt>
      <trkpt lat="44.49501" lon="1.66707">
        <ele>267</ele>
        <time>2016-03-23T14:53:48Z</time>
      </trkpt>
      <trkpt lat="44.49504" lon="1.66712">
        <ele>268</ele>
        <time>2016-03-23T14:53:51Z</time>
      </trkpt>
      <trkpt lat="44.49505" lon="1.66719">
        <ele>269</ele>
        <time>2016-03-23T14:53:55Z</time>
      </trkpt>
      <trkpt lat="44.49511" lon="1.66725">
        <ele>270</ele>
        <time>2016-03-23T14:53:59Z</time>
      </trkpt>
      <trkpt lat="44.49514" lon="1.6673">
        <ele>272</ele>
        <time>2016-03-23T14:54:02Z</time>
      </trkpt>
      <trkpt lat="44.49516" lon="1.66736">
        <ele>273</ele>
        <time>2016-03-23T14:54:06Z</time>
      </trkpt>
      <trkpt lat="44.49522" lon="1.6674">
        <ele>274</ele>
        <time>2016-03-23T14:54:10Z</time>
      </trkpt>
      <trkpt lat="44.49525" lon="1.66745">
        <ele>274</ele>
        <time>2016-03-23T14:54:15Z</time>
      </trkpt>
      <trkpt lat="44.49524" lon="1.66751">
        <ele>273</ele>
        <time>2016-03-23T14:54:21Z</time>
      </trkpt>
      <trkpt lat="44.4953" lon="1.66758">
        <ele>272</ele>
        <time>2016-03-23T14:54:23Z</time>
      </trkpt>
      <trkpt lat="44.49535" lon="1.66759">
        <ele>271</ele>
        <time>2016-03-23T14:54:26Z</time>
      </trkpt>
      <trkpt lat="44.49541" lon="1.66761">
        <ele>270</ele>
        <time>2016-03-23T14:54:31Z</time>
      </trkpt>
      <trkpt lat="44.49543" lon="1.66766">
        <ele>270</ele>
        <time>2016-03-23T14:54:36Z</time>
      </trkpt>
      <trkpt lat="44.4955" lon="1.66776">
        <ele>272</ele>
        <time>2016-03-23T14:54:41Z</time>
      </trkpt>
      <trkpt lat="44.49554" lon="1.66781">
        <ele>273</ele>
        <time>2016-03-23T14:54:45Z</time>
      </trkpt>
      <trkpt lat="44.49558" lon="1.66783">
        <ele>274</ele>
        <time>2016-03-23T14:54:50Z</time>
      </trkpt>
      <trkpt lat="44.49562" lon="1.66786">
        <ele>276</ele>
        <time>2016-03-23T14:54:52Z</time>
      </trkpt>
      <trkpt lat="44.49565" lon="1.6679">
        <ele>279</ele>
        <time>2016-03-23T14:54:59Z</time>
      </trkpt>
      <trkpt lat="44.4957" lon="1.66794">
        <ele>281</ele>
        <time>2016-03-23T14:55:07Z</time>
      </trkpt>
      <trkpt lat="44.49575" lon="1.66796">
        <ele>283</ele>
        <time>2016-03-23T14:55:10Z</time>
      </trkpt>
      <trkpt lat="44.49582" lon="1.66798">
        <ele>285</ele>
        <time>2016-03-23T14:55:14Z</time>
      </trkpt>
      <trkpt lat="44.49587" lon="1.66799">
        <ele>286</ele>
        <time>2016-03-23T14:55:19Z</time>
      </trkpt>
      <trkpt lat="44.49592" lon="1.66802">
        <ele>287</ele>
        <time>2016-03-23T14:55:24Z</time>
      </trkpt>
      <trkpt lat="44.49598" lon="1.66805">
        <ele>288</ele>
        <time>2016-03-23T14:55:29Z</time>
      </trkpt>
      <trkpt lat="44.49604" lon="1.668">
        <ele>288</ele>
        <time>2016-03-23T14:55:32Z</time>
      </trkpt>
      <trkpt lat="44.49608" lon="1.66799">
        <ele>289</ele>
        <time>2016-03-23T14:55:35Z</time>
      </trkpt>
      <trkpt lat="44.49613" lon="1.66799">
        <ele>290</ele>
        <time>2016-03-23T14:55:39Z</time>
      </trkpt>
      <trkpt lat="44.49619" lon="1.66799">
        <ele>291</ele>
        <time>2016-03-23T14:55:45Z</time>
      </trkpt>
      <trkpt lat="44.49625" lon="1.66798">
        <ele>291</ele>
        <time>2016-03-23T14:55:50Z</time>
      </trkpt>
      <trkpt lat="44.4963" lon="1.66796">
        <ele>291</ele>
        <time>2016-03-23T14:55:55Z</time>
      </trkpt>
      <trkpt lat="44.49635" lon="1.66795">
        <ele>291</ele>
        <time>2016-03-23T14:55:59Z</time>
      </trkpt>
      <trkpt lat="44.4964" lon="1.66794">
        <ele>292</ele>
        <time>2016-03-23T14:56:03Z</time>
      </trkpt>
      <trkpt lat="44.49645" lon="1.66792">
        <ele>292</ele>
        <time>2016-03-23T14:56:07Z</time>
      </trkpt>
      <trkpt lat="44.4965" lon="1.66792">
        <ele>293</ele>
        <time>2016-03-23T14:56:12Z</time>
      </trkpt>
      <trkpt lat="44.49654" lon="1.66791">
        <ele>293</ele>
        <time>2016-03-23T14:56:18Z</time>
      </trkpt>
      <trkpt lat="44.49659" lon="1.66787">
        <ele>293</ele>
        <time>2016-03-23T14:56:24Z</time>
      </trkpt>
      <trkpt lat="44.49664" lon="1.66787">
        <ele>293</ele>
        <time>2016-03-23T14:56:29Z</time>
      </trkpt>
      <trkpt lat="44.4967" lon="1.66784">
        <ele>293</ele>
        <time>2016-03-23T14:56:34Z</time>
      </trkpt>
      <trkpt lat="44.49675" lon="1.66782">
        <ele>293</ele>
        <time>2016-03-23T14:56:38Z</time>
      </trkpt>
      <trkpt lat="44.49681" lon="1.66781">
        <ele>293</ele>
        <time>2016-03-23T14:56:42Z</time>
      </trkpt>
      <trkpt lat="44.49685" lon="1.66778">
        <ele>294</ele>
        <time>2016-03-23T14:56:48Z</time>
      </trkpt>
      <trkpt lat="44.4969" lon="1.66775">
        <ele>294</ele>
        <time>2016-03-23T14:56:53Z</time>
      </trkpt>
      <trkpt lat="44.49695" lon="1.66774">
        <ele>295</ele>
        <time>2016-03-23T14:56:56Z</time>
      </trkpt>
      <trkpt lat="44.49701" lon="1.66773">
        <ele>296</ele>
        <time>2016-03-23T14:56:59Z</time>
      </trkpt>
      <trkpt lat="44.49707" lon="1.66772">
        <ele>297</ele>
        <time>2016-03-23T14:57:05Z</time>
      </trkpt>
      <trkpt lat="44.49712" lon="1.66771">
        <ele>298</ele>
        <time>2016-03-23T14:57:09Z</time>
      </trkpt>
      <trkpt lat="44.49716" lon="1.66771">
        <ele>299</ele>
        <time>2016-03-23T14:57:13Z</time>
      </trkpt>
      <trkpt lat="44.49721" lon="1.66771">
        <ele>300</ele>
        <time>2016-03-23T14:57:18Z</time>
      </trkpt>
      <trkpt lat="44.49726" lon="1.66772">
        <ele>300</ele>
        <time>2016-03-23T14:57:21Z</time>
      </trkpt>
      <trkpt lat="44.49731" lon="1.66775">
        <ele>301</ele>
        <time>2016-03-23T14:57:32Z</time>
      </trkpt>
      <trkpt lat="44.49736" lon="1.66776">
        <ele>301</ele>
        <time>2016-03-23T14:57:45Z</time>
      </trkpt>
      <trkpt lat="44.49741" lon="1.66779">
        <ele>301</ele>
        <time>2016-03-23T14:57:48Z</time>
      </trkpt>
      <trkpt lat="44.49745" lon="1.6678">
        <ele>301</ele>
        <time>2016-03-23T14:57:58Z</time>
      </trkpt>
      <trkpt lat="44.4975" lon="1.66781">
        <ele>300</ele>
        <time>2016-03-23T14:58:02Z</time>
      </trkpt>
      <trkpt lat="44.49754" lon="1.66786">
        <ele>300</ele>
        <time>2016-03-23T14:58:08Z</time>
      </trkpt>
      <trkpt lat="44.49759" lon="1.66787">
        <ele>300</ele>
        <time>2016-03-23T14:58:14Z</time>
      </trkpt>
      <trkpt lat="44.49764" lon="1.66791">
        <ele>299</ele>
        <time>2016-03-23T14:58:19Z</time>
      </trkpt>
      <trkpt lat="44.49768" lon="1.66794">
        <ele>299</ele>
        <time>2016-03-23T14:58:25Z</time>
      </trkpt>
      <trkpt lat="44.49772" lon="1.66798">
        <ele>299</ele>
        <time>2016-03-23T14:58:30Z</time>
      </trkpt>
      <trkpt lat="44.49777" lon="1.66801">
        <ele>299</ele>
        <time>2016-03-23T14:58:34Z</time>
      </trkpt>
      <trkpt lat="44.4978" lon="1.66806">
        <ele>300</ele>
        <time>2016-03-23T14:58:39Z</time>
      </trkpt>
      <trkpt lat="44.49787" lon="1.66809">
        <ele>301</ele>
        <time>2016-03-23T14:58:45Z</time>
      </trkpt>
      <trkpt lat="44.49814" lon="1.66818">
        <ele>303</ele>
        <time>2016-03-23T14:59:10Z</time>
      </trkpt>
      <trkpt lat="44.49819" lon="1.6682">
        <ele>304</ele>
        <time>2016-03-23T14:59:15Z</time>
      </trkpt>
      <trkpt lat="44.49824" lon="1.6682">
        <ele>306</ele>
        <time>2016-03-23T14:59:20Z</time>
      </trkpt>
      <trkpt lat="44.49829" lon="1.66821">
        <ele>308</ele>
        <time>2016-03-23T14:59:24Z</time>
      </trkpt>
      <trkpt lat="44.49834" lon="1.66823">
        <ele>309</ele>
        <time>2016-03-23T14:59:30Z</time>
      </trkpt>
      <trkpt lat="44.49839" lon="1.66827">
        <ele>309</ele>
        <time>2016-03-23T14:59:37Z</time>
      </trkpt>
      <trkpt lat="44.49845" lon="1.66825">
        <ele>310</ele>
        <time>2016-03-23T14:59:43Z</time>
      </trkpt>
      <trkpt lat="44.4985" lon="1.66824">
        <ele>310</ele>
        <time>2016-03-23T14:59:48Z</time>
      </trkpt>
      <trkpt lat="44.49855" lon="1.66823">
        <ele>310</ele>
        <time>2016-03-23T14:59:55Z</time>
      </trkpt>
      <trkpt lat="44.4986" lon="1.66821">
        <ele>310</ele>
        <time>2016-03-23T15:00:00Z</time>
      </trkpt>
      <trkpt lat="44.49864" lon="1.6682">
        <ele>310</ele>
        <time>2016-03-23T15:00:10Z</time>
      </trkpt>
      <trkpt lat="44.49869" lon="1.66818">
        <ele>310</ele>
        <time>2016-03-23T15:00:13Z</time>
      </trkpt>
      <trkpt lat="44.49874" lon="1.66816">
        <ele>310</ele>
        <time>2016-03-23T15:00:19Z</time>
      </trkpt>
      <trkpt lat="44.49879" lon="1.66817">
        <ele>311</ele>
        <time>2016-03-23T15:00:24Z</time>
      </trkpt>
      <trkpt lat="44.49884" lon="1.66817">
        <ele>311</ele>
        <time>2016-03-23T15:00:32Z</time>
      </trkpt>
      <trkpt lat="44.49889" lon="1.66819">
        <ele>312</ele>
        <time>2016-03-23T15:00:36Z</time>
      </trkpt>
      <trkpt lat="44.49894" lon="1.6682">
        <ele>312</ele>
        <time>2016-03-23T15:00:40Z</time>
      </trkpt>
      <trkpt lat="44.49898" lon="1.66822">
        <ele>312</ele>
        <time>2016-03-23T15:00:45Z</time>
      </trkpt>
      <trkpt lat="44.49902" lon="1.66826">
        <ele>312</ele>
        <time>2016-03-23T15:00:51Z</time>
      </trkpt>
      <trkpt lat="44.49907" lon="1.6683">
        <ele>313</ele>
        <time>2016-03-23T15:00:57Z</time>
      </trkpt>
      <trkpt lat="44.49912" lon="1.66831">
        <ele>313</ele>
        <time>2016-03-23T15:01:02Z</time>
      </trkpt>
      <trkpt lat="44.49915" lon="1.66836">
        <ele>313</ele>
        <time>2016-03-23T15:01:10Z</time>
      </trkpt>
      <trkpt lat="44.49921" lon="1.66839">
        <ele>313</ele>
        <time>2016-03-23T15:01:15Z</time>
      </trkpt>
      <trkpt lat="44.49926" lon="1.66839">
        <ele>314</ele>
        <time>2016-03-23T15:01:23Z</time>
      </trkpt>
      <trkpt lat="44.4993" lon="1.66843">
        <ele>316</ele>
        <time>2016-03-23T15:01:45Z</time>
      </trkpt>
      <trkpt lat="44.49934" lon="1.66847">
        <ele>317</ele>
        <time>2016-03-23T15:01:50Z</time>
      </trkpt>
      <trkpt lat="44.49939" lon="1.66849">
        <ele>319</ele>
        <time>2016-03-23T15:01:55Z</time>
      </trkpt>
      <trkpt lat="44.49942" lon="1.66854">
        <ele>320</ele>
        <time>2016-03-23T15:02:00Z</time>
      </trkpt>
      <trkpt lat="44.49945" lon="1.66859">
        <ele>321</ele>
        <time>2016-03-23T15:02:04Z</time>
      </trkpt>
      <trkpt lat="44.49949" lon="1.66863">
        <ele>322</ele>
        <time>2016-03-23T15:02:07Z</time>
      </trkpt>
      <trkpt lat="44.4995" lon="1.6687">
        <ele>322</ele>
        <time>2016-03-23T15:02:13Z</time>
      </trkpt>
      <trkpt lat="44.49952" lon="1.66876">
        <ele>322</ele>
        <time>2016-03-23T15:02:20Z</time>
      </trkpt>
      <trkpt lat="44.49955" lon="1.66881">
        <ele>322</ele>
        <time>2016-03-23T15:02:25Z</time>
      </trkpt>
      <trkpt lat="44.49958" lon="1.66888">
        <ele>322</ele>
        <time>2016-03-23T15:02:30Z</time>
      </trkpt>
      <trkpt lat="44.49962" lon="1.66893">
        <ele>322</ele>
        <time>2016-03-23T15:02:34Z</time>
      </trkpt>
      <trkpt lat="44.49963" lon="1.669">
        <ele>322</ele>
        <time>2016-03-23T15:02:37Z</time>
      </trkpt>
      <trkpt lat="44.49965" lon="1.66905">
        <ele>322</ele>
        <time>2016-03-23T15:02:40Z</time>
      </trkpt>
      <trkpt lat="44.49968" lon="1.66911">
        <ele>322</ele>
        <time>2016-03-23T15:02:44Z</time>
      </trkpt>
      <trkpt lat="44.49971" lon="1.66918">
        <ele>322</ele>
        <time>2016-03-23T15:02:47Z</time>
      </trkpt>
      <trkpt lat="44.49974" lon="1.66924">
        <ele>323</ele>
        <time>2016-03-23T15:02:52Z</time>
      </trkpt>
      <trkpt lat="44.49978" lon="1.66931">
        <ele>323</ele>
        <time>2016-03-23T15:02:57Z</time>
      </trkpt>
      <trkpt lat="44.49979" lon="1.66937">
        <ele>324</ele>
        <time>2016-03-23T15:03:00Z</time>
      </trkpt>
      <trkpt lat="44.49981" lon="1.66943">
        <ele>324</ele>
        <time>2016-03-23T15:03:05Z</time>
      </trkpt>
      <trkpt lat="44.49983" lon="1.66949">
        <ele>324</ele>
        <time>2016-03-23T15:03:09Z</time>
      </trkpt>
      <trkpt lat="44.49986" lon="1.66956">
        <ele>324</ele>
        <time>2016-03-23T15:03:13Z</time>
      </trkpt>
      <trkpt lat="44.49989" lon="1.66962">
        <ele>325</ele>
        <time>2016-03-23T15:03:17Z</time>
      </trkpt>
      <trkpt lat="44.49991" lon="1.66969">
        <ele>324</ele>
        <time>2016-03-23T15:03:21Z</time>
      </trkpt>
      <trkpt lat="44.49994" lon="1.66975">
        <ele>324</ele>
        <time>2016-03-23T15:03:25Z</time>
      </trkpt>
      <trkpt lat="44.49996" lon="1.66982">
        <ele>324</ele>
        <time>2016-03-23T15:03:31Z</time>
      </trkpt>
      <trkpt lat="44.50003" lon="1.67">
        <ele>324</ele>
        <time>2016-03-23T15:03:43Z</time>
      </trkpt>
      <trkpt lat="44.50022" lon="1.67033">
        <ele>323</ele>
        <time>2016-03-23T15:04:10Z</time>
      </trkpt>
      <trkpt lat="44.5002" lon="1.67033">
        <ele>323</ele>
        <time>2016-03-23T15:04:11Z</time>
      </trkpt>
      <trkpt lat="44.50024" lon="1.6704">
        <ele>324</ele>
        <time>2016-03-23T15:04:14Z</time>
      </trkpt>
      <trkpt lat="44.50028" lon="1.67042">
        <ele>325</ele>
        <time>2016-03-23T15:04:18Z</time>
      </trkpt>
      <trkpt lat="44.50032" lon="1.67049">
        <ele>326</ele>
        <time>2016-03-23T15:04:23Z</time>
      </trkpt>
      <trkpt lat="44.50036" lon="1.67053">
        <ele>326</ele>
        <time>2016-03-23T15:04:27Z</time>
      </trkpt>
      <trkpt lat="44.50039" lon="1.67059">
        <ele>327</ele>
        <time>2016-03-23T15:04:31Z</time>
      </trkpt>
      <trkpt lat="44.50042" lon="1.67064">
        <ele>327</ele>
        <time>2016-03-23T15:04:35Z</time>
      </trkpt>
      <trkpt lat="44.50045" lon="1.67069">
        <ele>327</ele>
        <time>2016-03-23T15:04:39Z</time>
      </trkpt>
      <trkpt lat="44.50047" lon="1.67075">
        <ele>326</ele>
        <time>2016-03-23T15:04:43Z</time>
      </trkpt>
      <trkpt lat="44.5005" lon="1.67081">
        <ele>326</ele>
        <time>2016-03-23T15:04:47Z</time>
      </trkpt>
      <trkpt lat="44.50052" lon="1.67087">
        <ele>325</ele>
        <time>2016-03-23T15:04:51Z</time>
      </trkpt>
      <trkpt lat="44.50056" lon="1.67094">
        <ele>325</ele>
        <time>2016-03-23T15:04:54Z</time>
      </trkpt>
      <trkpt lat="44.50058" lon="1.671">
        <ele>324</ele>
        <time>2016-03-23T15:04:59Z</time>
      </trkpt>
      <trkpt lat="44.5006" lon="1.67106">
        <ele>324</ele>
        <time>2016-03-23T15:05:02Z</time>
      </trkpt>
      <trkpt lat="44.50063" lon="1.67112">
        <ele>324</ele>
        <time>2016-03-23T15:05:06Z</time>
      </trkpt>
      <trkpt lat="44.50066" lon="1.67116">
        <ele>323</ele>
        <time>2016-03-23T15:05:10Z</time>
      </trkpt>
      <trkpt lat="44.5007" lon="1.67122">
        <ele>322</ele>
        <time>2016-03-23T15:05:14Z</time>
      </trkpt>
      <trkpt lat="44.50073" lon="1.67128">
        <ele>322</ele>
        <time>2016-03-23T15:05:18Z</time>
      </trkpt>
      <trkpt lat="44.50076" lon="1.67133">
        <ele>321</ele>
        <time>2016-03-23T15:05:22Z</time>
      </trkpt>
      <trkpt lat="44.5008" lon="1.67137">
        <ele>321</ele>
        <time>2016-03-23T15:05:26Z</time>
      </trkpt>
      <trkpt lat="44.5008" lon="1.67144">
        <ele>320</ele>
        <time>2016-03-23T15:05:33Z</time>
      </trkpt>
      <trkpt lat="44.50082" lon="1.67151">
        <ele>320</ele>
        <time>2016-03-23T15:05:37Z</time>
      </trkpt>
      <trkpt lat="44.50087" lon="1.67154">
        <ele>319</ele>
        <time>2016-03-23T15:05:40Z</time>
      </trkpt>
      <trkpt lat="44.5009" lon="1.67159">
        <ele>319</ele>
        <time>2016-03-23T15:05:44Z</time>
      </trkpt>
      <trkpt lat="44.50091" lon="1.67165">
        <ele>318</ele>
        <time>2016-03-23T15:05:48Z</time>
      </trkpt>
      <trkpt lat="44.50094" lon="1.67173">
        <ele>318</ele>
        <time>2016-03-23T15:05:52Z</time>
      </trkpt>
      <trkpt lat="44.50099" lon="1.67175">
        <ele>317</ele>
        <time>2016-03-23T15:05:59Z</time>
      </trkpt>
      <trkpt lat="44.50099" lon="1.67184">
        <ele>316</ele>
        <time>2016-03-23T15:06:05Z</time>
      </trkpt>
      <trkpt lat="44.50102" lon="1.67189">
        <ele>316</ele>
        <time>2016-03-23T15:06:09Z</time>
      </trkpt>
      <trkpt lat="44.50105" lon="1.67196">
        <ele>315</ele>
        <time>2016-03-23T15:06:13Z</time>
      </trkpt>
      <trkpt lat="44.50108" lon="1.67201">
        <ele>314</ele>
        <time>2016-03-23T15:06:18Z</time>
      </trkpt>
      <trkpt lat="44.50111" lon="1.67208">
        <ele>313</ele>
        <time>2016-03-23T15:06:23Z</time>
      </trkpt>
      <trkpt lat="44.50114" lon="1.67216">
        <ele>313</ele>
        <time>2016-03-23T15:06:28Z</time>
      </trkpt>
      <trkpt lat="44.50117" lon="1.67223">
        <ele>313</ele>
        <time>2016-03-23T15:06:31Z</time>
      </trkpt>
      <trkpt lat="44.50119" lon="1.67229">
        <ele>313</ele>
        <time>2016-03-23T15:06:34Z</time>
      </trkpt>
      <trkpt lat="44.50121" lon="1.67235">
        <ele>313</ele>
        <time>2016-03-23T15:06:39Z</time>
      </trkpt>
      <trkpt lat="44.50123" lon="1.67247">
        <ele>313</ele>
        <time>2016-03-23T15:06:46Z</time>
      </trkpt>
      <trkpt lat="44.50124" lon="1.67254">
        <ele>314</ele>
        <time>2016-03-23T15:06:50Z</time>
      </trkpt>
      <trkpt lat="44.50128" lon="1.67259">
        <ele>314</ele>
        <time>2016-03-23T15:06:55Z</time>
      </trkpt>
      <trkpt lat="44.50131" lon="1.67265">
        <ele>314</ele>
        <time>2016-03-23T15:06:59Z</time>
      </trkpt>
      <trkpt lat="44.50135" lon="1.67268">
        <ele>314</ele>
        <time>2016-03-23T15:07:03Z</time>
      </trkpt>
      <trkpt lat="44.50138" lon="1.67274">
        <ele>315</ele>
        <time>2016-03-23T15:07:07Z</time>
      </trkpt>
      <trkpt lat="44.50141" lon="1.67281">
        <ele>315</ele>
        <time>2016-03-23T15:07:10Z</time>
      </trkpt>
      <trkpt lat="44.50143" lon="1.67288">
        <ele>316</ele>
        <time>2016-03-23T15:07:16Z</time>
      </trkpt>
      <trkpt lat="44.50147" lon="1.67294">
        <ele>317</ele>
        <time>2016-03-23T15:07:21Z</time>
      </trkpt>
      <trkpt lat="44.50148" lon="1.67301">
        <ele>317</ele>
        <time>2016-03-23T15:07:25Z</time>
      </trkpt>
      <trkpt lat="44.50151" lon="1.67306">
        <ele>317</ele>
        <time>2016-03-23T15:07:29Z</time>
      </trkpt>
      <trkpt lat="44.50154" lon="1.67312">
        <ele>317</ele>
        <time>2016-03-23T15:07:34Z</time>
      </trkpt>
      <trkpt lat="44.50155" lon="1.6732">
        <ele>317</ele>
        <time>2016-03-23T15:07:38Z</time>
      </trkpt>
      <trkpt lat="44.50159" lon="1.67326">
        <ele>317</ele>
        <time>2016-03-23T15:07:42Z</time>
      </trkpt>
      <trkpt lat="44.5016" lon="1.67332">
        <ele>317</ele>
        <time>2016-03-23T15:07:45Z</time>
      </trkpt>
      <trkpt lat="44.50164" lon="1.67339">
        <ele>317</ele>
        <time>2016-03-23T15:07:50Z</time>
      </trkpt>
      <trkpt lat="44.50166" lon="1.67345">
        <ele>317</ele>
        <time>2016-03-23T15:07:55Z</time>
      </trkpt>
      <trkpt lat="44.50171" lon="1.67351">
        <ele>317</ele>
        <time>2016-03-23T15:08:02Z</time>
      </trkpt>
      <trkpt lat="44.50174" lon="1.67355">
        <ele>317</ele>
        <time>2016-03-23T15:08:05Z</time>
      </trkpt>
      <trkpt lat="44.50177" lon="1.67359">
        <ele>317</ele>
        <time>2016-03-23T15:08:08Z</time>
      </trkpt>
      <trkpt lat="44.50181" lon="1.67364">
        <ele>318</ele>
        <time>2016-03-23T15:08:12Z</time>
      </trkpt>
      <trkpt lat="44.50185" lon="1.6737">
        <ele>318</ele>
        <time>2016-03-23T15:08:38Z</time>
      </trkpt>
      <trkpt lat="44.50187" lon="1.67376">
        <ele>319</ele>
        <time>2016-03-23T15:08:42Z</time>
      </trkpt>
      <trkpt lat="44.50193" lon="1.67381">
        <ele>320</ele>
        <time>2016-03-23T15:08:50Z</time>
      </trkpt>
      <trkpt lat="44.50196" lon="1.67388">
        <ele>320</ele>
        <time>2016-03-23T15:09:00Z</time>
      </trkpt>
      <trkpt lat="44.50201" lon="1.67388">
        <ele>320</ele>
        <time>2016-03-23T15:09:03Z</time>
      </trkpt>
      <trkpt lat="44.50205" lon="1.67394">
        <ele>321</ele>
        <time>2016-03-23T15:09:09Z</time>
      </trkpt>
      <trkpt lat="44.50208" lon="1.67399">
        <ele>321</ele>
        <time>2016-03-23T15:09:13Z</time>
      </trkpt>
      <trkpt lat="44.50212" lon="1.67402">
        <ele>321</ele>
        <time>2016-03-23T15:09:17Z</time>
      </trkpt>
      <trkpt lat="44.50216" lon="1.67405">
        <ele>321</ele>
        <time>2016-03-23T15:09:21Z</time>
      </trkpt>
      <trkpt lat="44.5022" lon="1.6741">
        <ele>320</ele>
        <time>2016-03-23T15:09:25Z</time>
      </trkpt>
      <trkpt lat="44.50223" lon="1.67415">
        <ele>319</ele>
        <time>2016-03-23T15:09:29Z</time>
      </trkpt>
      <trkpt lat="44.50229" lon="1.67417">
        <ele>319</ele>
        <time>2016-03-23T15:09:31Z</time>
      </trkpt>
      <trkpt lat="44.5023" lon="1.67424">
        <ele>318</ele>
        <time>2016-03-23T15:09:38Z</time>
      </trkpt>
      <trkpt lat="44.50234" lon="1.6743">
        <ele>318</ele>
        <time>2016-03-23T15:09:45Z</time>
      </trkpt>
      <trkpt lat="44.50237" lon="1.67435">
        <ele>317</ele>
        <time>2016-03-23T15:09:48Z</time>
      </trkpt>
      <trkpt lat="44.50238" lon="1.67442">
        <ele>317</ele>
        <time>2016-03-23T15:09:53Z</time>
      </trkpt>
      <trkpt lat="44.50242" lon="1.67446">
        <ele>316</ele>
        <time>2016-03-23T15:09:57Z</time>
      </trkpt>
      <trkpt lat="44.50247" lon="1.67447">
        <ele>318</ele>
        <time>2016-03-23T15:10:08Z</time>
      </trkpt>
      <trkpt lat="44.50252" lon="1.67455">
        <ele>321</ele>
        <time>2016-03-23T15:10:10Z</time>
      </trkpt>
      <trkpt lat="44.50254" lon="1.67461">
        <ele>324</ele>
        <time>2016-03-23T15:10:12Z</time>
      </trkpt>
      <trkpt lat="44.50258" lon="1.67465">
        <ele>328</ele>
        <time>2016-03-23T15:10:19Z</time>
      </trkpt>
      <trkpt lat="44.50263" lon="1.67469">
        <ele>332</ele>
        <time>2016-03-23T15:10:25Z</time>
      </trkpt>
      <trkpt lat="44.50267" lon="1.67474">
        <ele>333</ele>
        <time>2016-03-23T15:10:28Z</time>
      </trkpt>
      <trkpt lat="44.50271" lon="1.67478">
        <ele>335</ele>
        <time>2016-03-23T15:10:32Z</time>
      </trkpt>
      <trkpt lat="44.50269" lon="1.67484">
        <ele>336</ele>
        <time>2016-03-23T15:10:39Z</time>
      </trkpt>
      <trkpt lat="44.50272" lon="1.6749">
        <ele>336</ele>
        <time>2016-03-23T15:10:44Z</time>
      </trkpt>
      <trkpt lat="44.50275" lon="1.67495">
        <ele>337</ele>
        <time>2016-03-23T15:10:53Z</time>
      </trkpt>
      <trkpt lat="44.50279" lon="1.67499">
        <ele>337</ele>
        <time>2016-03-23T15:11:00Z</time>
      </trkpt>
      <trkpt lat="44.50284" lon="1.67498">
        <ele>336</ele>
        <time>2016-03-23T15:11:05Z</time>
      </trkpt>
      <trkpt lat="44.50289" lon="1.67493">
        <ele>336</ele>
        <time>2016-03-23T15:11:10Z</time>
      </trkpt>
      <trkpt lat="44.50287" lon="1.67489">
        <ele>334</ele>
        <time>2016-03-23T15:11:49Z</time>
      </trkpt>
      <trkpt lat="44.50287" lon="1.67489">
        <ele>333</ele>
        <time>2016-03-23T15:11:50Z</time>
      </trkpt>
      <trkpt lat="44.50287" lon="1.67489">
        <ele>331</ele>
        <time>2016-03-23T15:12:18Z</time>
      </trkpt>
      <trkpt lat="44.50287" lon="1.67489">
        <ele>330</ele>
        <time>2016-03-23T15:12:18Z</time>
      </trkpt>
      <trkpt lat="44.50269" lon="1.67528">
        <ele>346</ele>
        <time>2016-03-23T15:18:43Z</time>
      </trkpt>
      <trkpt lat="44.50264" lon="1.67566">
        <ele>344</ele>
        <time>2016-03-23T15:19:06Z</time>
      </trkpt>
      <trkpt lat="44.50268" lon="1.6756">
        <ele>341</ele>
        <time>2016-03-23T15:19:08Z</time>
      </trkpt>
      <trkpt lat="44.50266" lon="1.67567">
        <ele>338</ele>
        <time>2016-03-23T15:19:12Z</time>
      </trkpt>
      <trkpt lat="44.50266" lon="1.67574">
        <ele>335</ele>
        <time>2016-03-23T15:19:16Z</time>
      </trkpt>
      <trkpt lat="44.50264" lon="1.67581">
        <ele>333</ele>
        <time>2016-03-23T15:19:21Z</time>
      </trkpt>
      <trkpt lat="44.50263" lon="1.67587">
        <ele>332</ele>
        <time>2016-03-23T15:19:26Z</time>
      </trkpt>
      <trkpt lat="44.5026" lon="1.67594">
        <ele>332</ele>
        <time>2016-03-23T15:19:29Z</time>
      </trkpt>
      <trkpt lat="44.5026" lon="1.67594">
        <ele>332</ele>
        <time>2016-03-23T15:19:54Z</time>
      </trkpt>
      <trkpt lat="44.50259" lon="1.67598">
        <ele>332</ele>
        <time>2016-03-23T15:19:55Z</time>
      </trkpt>
      <trkpt lat="44.50259" lon="1.67606">
        <ele>331</ele>
        <time>2016-03-23T15:20:00Z</time>
      </trkpt>
      <trkpt lat="44.50259" lon="1.67613">
        <ele>331</ele>
        <time>2016-03-23T15:20:04Z</time>
      </trkpt>
      <trkpt lat="44.50256" lon="1.6762">
        <ele>331</ele>
        <time>2016-03-23T15:20:09Z</time>
      </trkpt>
      <trkpt lat="44.50255" lon="1.67626">
        <ele>332</ele>
        <time>2016-03-23T15:20:12Z</time>
      </trkpt>
      <trkpt lat="44.50256" lon="1.67633">
        <ele>332</ele>
        <time>2016-03-23T15:20:19Z</time>
      </trkpt>
      <trkpt lat="44.50256" lon="1.67642">
        <ele>332</ele>
        <time>2016-03-23T15:20:27Z</time>
      </trkpt>
      <trkpt lat="44.50254" lon="1.67655">
        <ele>332</ele>
        <time>2016-03-23T15:20:33Z</time>
      </trkpt>
      <trkpt lat="44.50252" lon="1.67662">
        <ele>332</ele>
        <time>2016-03-23T15:20:39Z</time>
      </trkpt>
      <trkpt lat="44.50251" lon="1.67672">
        <ele>332</ele>
        <time>2016-03-23T15:20:45Z</time>
      </trkpt>
      <trkpt lat="44.5025" lon="1.67679">
        <ele>333</ele>
        <time>2016-03-23T15:20:49Z</time>
      </trkpt>
      <trkpt lat="44.5025" lon="1.67687">
        <ele>334</ele>
        <time>2016-03-23T15:20:54Z</time>
      </trkpt>
      <trkpt lat="44.50249" lon="1.67693">
        <ele>335</ele>
        <time>2016-03-23T15:20:59Z</time>
      </trkpt>
      <trkpt lat="44.50249" lon="1.67701">
        <ele>336</ele>
        <time>2016-03-23T15:21:03Z</time>
      </trkpt>
      <trkpt lat="44.50248" lon="1.67713">
        <ele>337</ele>
        <time>2016-03-23T15:21:08Z</time>
      </trkpt>
      <trkpt lat="44.50246" lon="1.6772">
        <ele>338</ele>
        <time>2016-03-23T15:21:13Z</time>
      </trkpt>
      <trkpt lat="44.50246" lon="1.67727">
        <ele>338</ele>
        <time>2016-03-23T15:21:17Z</time>
      </trkpt>
      <trkpt lat="44.50245" lon="1.67734">
        <ele>339</ele>
        <time>2016-03-23T15:21:21Z</time>
      </trkpt>
      <trkpt lat="44.50244" lon="1.67741">
        <ele>339</ele>
        <time>2016-03-23T15:21:25Z</time>
      </trkpt>
      <trkpt lat="44.50243" lon="1.67748">
        <ele>339</ele>
        <time>2016-03-23T15:21:28Z</time>
      </trkpt>
      <trkpt lat="44.50242" lon="1.67755">
        <ele>339</ele>
        <time>2016-03-23T15:21:32Z</time>
      </trkpt>
      <trkpt lat="44.50241" lon="1.67763">
        <ele>339</ele>
        <time>2016-03-23T15:21:35Z</time>
      </trkpt>
      <trkpt lat="44.50241" lon="1.67769">
        <ele>340</ele>
        <time>2016-03-23T15:21:39Z</time>
      </trkpt>
      <trkpt lat="44.5024" lon="1.67777">
        <ele>340</ele>
        <time>2016-03-23T15:21:43Z</time>
      </trkpt>
      <trkpt lat="44.50237" lon="1.67785">
        <ele>340</ele>
        <time>2016-03-23T15:21:47Z</time>
      </trkpt>
      <trkpt lat="44.50238" lon="1.67794">
        <ele>341</ele>
        <time>2016-03-23T15:21:52Z</time>
      </trkpt>
      <trkpt lat="44.50238" lon="1.67802">
        <ele>341</ele>
        <time>2016-03-23T15:21:58Z</time>
      </trkpt>
      <trkpt lat="44.5024" lon="1.67809">
        <ele>340</ele>
        <time>2016-03-23T15:22:04Z</time>
      </trkpt>
      <trkpt lat="44.5024" lon="1.67817">
        <ele>340</ele>
        <time>2016-03-23T15:22:10Z</time>
      </trkpt>
      <trkpt lat="44.50239" lon="1.67825">
        <ele>339</ele>
        <time>2016-03-23T15:22:14Z</time>
      </trkpt>
      <trkpt lat="44.50239" lon="1.67832">
        <ele>338</ele>
        <time>2016-03-23T15:22:18Z</time>
      </trkpt>
      <trkpt lat="44.50238" lon="1.67838">
        <ele>337</ele>
        <time>2016-03-23T15:22:22Z</time>
      </trkpt>
      <trkpt lat="44.50238" lon="1.67844">
        <ele>337</ele>
        <time>2016-03-23T15:22:26Z</time>
      </trkpt>
      <trkpt lat="44.50236" lon="1.67851">
        <ele>337</ele>
        <time>2016-03-23T15:22:30Z</time>
      </trkpt>
      <trkpt lat="44.50236" lon="1.67859">
        <ele>336</ele>
        <time>2016-03-23T15:22:35Z</time>
      </trkpt>
      <trkpt lat="44.50237" lon="1.67866">
        <ele>336</ele>
        <time>2016-03-23T15:22:39Z</time>
      </trkpt>
      <trkpt lat="44.50236" lon="1.67873">
        <ele>336</ele>
        <time>2016-03-23T15:22:45Z</time>
      </trkpt>
      <trkpt lat="44.50237" lon="1.67879">
        <ele>335</ele>
        <time>2016-03-23T15:22:59Z</time>
      </trkpt>
      <trkpt lat="44.50237" lon="1.67878">
        <ele>334</ele>
        <time>2016-03-23T15:23:15Z</time>
      </trkpt>
      <trkpt lat="44.50237" lon="1.67878">
        <ele>334</ele>
        <time>2016-03-23T15:23:16Z</time>
      </trkpt>
      <trkpt lat="44.50242" lon="1.67881">
        <ele>332</ele>
        <time>2016-03-23T15:23:30Z</time>
      </trkpt>
      <trkpt lat="44.50244" lon="1.67888">
        <ele>332</ele>
        <time>2016-03-23T15:23:34Z</time>
      </trkpt>
      <trkpt lat="44.50246" lon="1.67896">
        <ele>331</ele>
        <time>2016-03-23T15:23:39Z</time>
      </trkpt>
      <trkpt lat="44.50248" lon="1.67902">
        <ele>330</ele>
        <time>2016-03-23T15:23:44Z</time>
      </trkpt>
      <trkpt lat="44.50252" lon="1.67914">
        <ele>329</ele>
        <time>2016-03-23T15:23:50Z</time>
      </trkpt>
      <trkpt lat="44.50259" lon="1.67936">
        <ele>329</ele>
        <time>2016-03-23T15:23:58Z</time>
      </trkpt>
      <trkpt lat="44.50254" lon="1.67937">
        <ele>329</ele>
        <time>2016-03-23T15:23:59Z</time>
      </trkpt>
      <trkpt lat="44.50257" lon="1.67942">
        <ele>327</ele>
        <time>2016-03-23T15:24:04Z</time>
      </trkpt>
      <trkpt lat="44.50261" lon="1.67947">
        <ele>327</ele>
        <time>2016-03-23T15:24:07Z</time>
      </trkpt>
      <trkpt lat="44.50264" lon="1.67953">
        <ele>326</ele>
        <time>2016-03-23T15:24:13Z</time>
      </trkpt>
      <trkpt lat="44.50267" lon="1.67958">
        <ele>324</ele>
        <time>2016-03-23T15:24:17Z</time>
      </trkpt>
      <trkpt lat="44.50271" lon="1.67963">
        <ele>324</ele>
        <time>2016-03-23T15:24:21Z</time>
      </trkpt>
      <trkpt lat="44.50271" lon="1.6797">
        <ele>325</ele>
        <time>2016-03-23T15:24:25Z</time>
      </trkpt>
      <trkpt lat="44.50274" lon="1.67975">
        <ele>325</ele>
        <time>2016-03-23T15:24:29Z</time>
      </trkpt>
      <trkpt lat="44.50279" lon="1.67979">
        <ele>325</ele>
        <time>2016-03-23T15:24:34Z</time>
      </trkpt>
      <trkpt lat="44.50283" lon="1.67984">
        <ele>325</ele>
        <time>2016-03-23T15:24:38Z</time>
      </trkpt>
      <trkpt lat="44.50285" lon="1.6799">
        <ele>324</ele>
        <time>2016-03-23T15:24:44Z</time>
      </trkpt>
      <trkpt lat="44.50288" lon="1.67995">
        <ele>324</ele>
        <time>2016-03-23T15:24:48Z</time>
      </trkpt>
      <trkpt lat="44.50292" lon="1.67999">
        <ele>323</ele>
        <time>2016-03-23T15:24:54Z</time>
      </trkpt>
      <trkpt lat="44.50297" lon="1.68001">
        <ele>323</ele>
        <time>2016-03-23T15:24:59Z</time>
      </trkpt>
      <trkpt lat="44.50301" lon="1.68007">
        <ele>322</ele>
        <time>2016-03-23T15:25:05Z</time>
      </trkpt>
      <trkpt lat="44.50305" lon="1.68007">
        <ele>322</ele>
        <time>2016-03-23T15:25:10Z</time>
      </trkpt>
      <trkpt lat="44.50309" lon="1.6801">
        <ele>322</ele>
        <time>2016-03-23T15:25:14Z</time>
      </trkpt>
      <trkpt lat="44.5031" lon="1.68013">
        <ele>322</ele>
        <time>2016-03-23T15:25:17Z</time>
      </trkpt>
      <trkpt lat="44.50319" lon="1.6803">
        <ele>322</ele>
        <time>2016-03-23T15:25:31Z</time>
      </trkpt>
      <trkpt lat="44.50322" lon="1.68035">
        <ele>321</ele>
        <time>2016-03-23T15:25:35Z</time>
      </trkpt>
      <trkpt lat="44.50326" lon="1.6804">
        <ele>321</ele>
        <time>2016-03-23T15:25:40Z</time>
      </trkpt>
      <trkpt lat="44.50329" lon="1.68046">
        <ele>321</ele>
        <time>2016-03-23T15:25:44Z</time>
      </trkpt>
      <trkpt lat="44.50332" lon="1.68051">
        <ele>321</ele>
        <time>2016-03-23T15:25:49Z</time>
      </trkpt>
      <trkpt lat="44.50334" lon="1.68057">
        <ele>321</ele>
        <time>2016-03-23T15:25:53Z</time>
      </trkpt>
      <trkpt lat="44.50339" lon="1.6806">
        <ele>321</ele>
        <time>2016-03-23T15:25:59Z</time>
      </trkpt>
      <trkpt lat="44.50343" lon="1.68066">
        <ele>321</ele>
        <time>2016-03-23T15:26:03Z</time>
      </trkpt>
      <trkpt lat="44.50345" lon="1.68072">
        <ele>321</ele>
        <time>2016-03-23T15:26:08Z</time>
      </trkpt>
      <trkpt lat="44.50348" lon="1.68078">
        <ele>321</ele>
        <time>2016-03-23T15:26:13Z</time>
      </trkpt>
      <trkpt lat="44.50353" lon="1.68082">
        <ele>321</ele>
        <time>2016-03-23T15:26:18Z</time>
      </trkpt>
      <trkpt lat="44.50356" lon="1.68088">
        <ele>321</ele>
        <time>2016-03-23T15:26:24Z</time>
      </trkpt>
      <trkpt lat="44.50359" lon="1.68094">
        <ele>320</ele>
        <time>2016-03-23T15:26:30Z</time>
      </trkpt>
      <trkpt lat="44.50361" lon="1.68099">
        <ele>319</ele>
        <time>2016-03-23T15:26:34Z</time>
      </trkpt>
      <trkpt lat="44.50365" lon="1.68103">
        <ele>319</ele>
        <time>2016-03-23T15:26:38Z</time>
      </trkpt>
      <trkpt lat="44.50369" lon="1.68107">
        <ele>318</ele>
        <time>2016-03-23T15:26:44Z</time>
      </trkpt>
      <trkpt lat="44.50372" lon="1.68113">
        <ele>318</ele>
        <time>2016-03-23T15:26:49Z</time>
      </trkpt>
      <trkpt lat="44.50373" lon="1.68107">
        <ele>317</ele>
        <time>2016-03-23T15:26:56Z</time>
      </trkpt>
      <trkpt lat="44.50376" lon="1.68112">
        <ele>317</ele>
        <time>2016-03-23T15:27:06Z</time>
      </trkpt>
      <trkpt lat="44.5038" lon="1.68119">
        <ele>317</ele>
        <time>2016-03-23T15:27:11Z</time>
      </trkpt>
      <trkpt lat="44.50382" lon="1.68126">
        <ele>316</ele>
        <time>2016-03-23T15:27:15Z</time>
      </trkpt>
      <trkpt lat="44.50384" lon="1.68132">
        <ele>316</ele>
        <time>2016-03-23T15:27:19Z</time>
      </trkpt>
      <trkpt lat="44.50386" lon="1.68138">
        <ele>316</ele>
        <time>2016-03-23T15:27:24Z</time>
      </trkpt>
      <trkpt lat="44.50387" lon="1.68144">
        <ele>316</ele>
        <time>2016-03-23T15:27:28Z</time>
      </trkpt>
      <trkpt lat="44.50391" lon="1.6815">
        <ele>315</ele>
        <time>2016-03-23T15:27:33Z</time>
      </trkpt>
      <trkpt lat="44.50393" lon="1.68156">
        <ele>315</ele>
        <time>2016-03-23T15:27:37Z</time>
      </trkpt>
      <trkpt lat="44.50395" lon="1.68162">
        <ele>315</ele>
        <time>2016-03-23T15:27:41Z</time>
      </trkpt>
      <trkpt lat="44.50398" lon="1.68167">
        <ele>314</ele>
        <time>2016-03-23T15:27:45Z</time>
      </trkpt>
      <trkpt lat="44.50401" lon="1.68173">
        <ele>315</ele>
        <time>2016-03-23T15:27:49Z</time>
      </trkpt>
      <trkpt lat="44.50404" lon="1.68178">
        <ele>315</ele>
        <time>2016-03-23T15:27:54Z</time>
      </trkpt>
      <trkpt lat="44.50406" lon="1.68184">
        <ele>315</ele>
        <time>2016-03-23T15:27:58Z</time>
      </trkpt>
      <trkpt lat="44.50409" lon="1.68191">
        <ele>315</ele>
        <time>2016-03-23T15:28:03Z</time>
      </trkpt>
      <trkpt lat="44.50412" lon="1.68197">
        <ele>315</ele>
        <time>2016-03-23T15:28:08Z</time>
      </trkpt>
      <trkpt lat="44.50413" lon="1.68204">
        <ele>315</ele>
        <time>2016-03-23T15:28:12Z</time>
      </trkpt>
      <trkpt lat="44.50417" lon="1.68209">
        <ele>315</ele>
        <time>2016-03-23T15:28:17Z</time>
      </trkpt>
      <trkpt lat="44.50419" lon="1.68215">
        <ele>315</ele>
        <time>2016-03-23T15:28:23Z</time>
      </trkpt>
      <trkpt lat="44.50422" lon="1.68221">
        <ele>315</ele>
        <time>2016-03-23T15:28:28Z</time>
      </trkpt>
      <trkpt lat="44.50424" lon="1.68227">
        <ele>315</ele>
        <time>2016-03-23T15:28:33Z</time>
      </trkpt>
      <trkpt lat="44.50425" lon="1.68233">
        <ele>314</ele>
        <time>2016-03-23T15:28:38Z</time>
      </trkpt>
      <trkpt lat="44.50426" lon="1.6824">
        <ele>313</ele>
        <time>2016-03-23T15:28:43Z</time>
      </trkpt>
      <trkpt lat="44.5046" lon="1.68292">
        <ele>315</ele>
        <time>2016-03-23T15:29:22Z</time>
      </trkpt>
      <trkpt lat="44.50464" lon="1.68299">
        <ele>316</ele>
        <time>2016-03-23T15:29:25Z</time>
      </trkpt>
      <trkpt lat="44.50467" lon="1.68304">
        <ele>317</ele>
        <time>2016-03-23T15:29:33Z</time>
      </trkpt>
      <trkpt lat="44.50471" lon="1.68309">
        <ele>319</ele>
        <time>2016-03-23T15:29:41Z</time>
      </trkpt>
      <trkpt lat="44.50473" lon="1.68317">
        <ele>320</ele>
        <time>2016-03-23T15:29:45Z</time>
      </trkpt>
      <trkpt lat="44.50477" lon="1.68322">
        <ele>320</ele>
        <time>2016-03-23T15:29:51Z</time>
      </trkpt>
      <trkpt lat="44.50481" lon="1.68326">
        <ele>320</ele>
        <time>2016-03-23T15:29:56Z</time>
      </trkpt>
      <trkpt lat="44.50485" lon="1.6833">
        <ele>320</ele>
        <time>2016-03-23T15:30:01Z</time>
      </trkpt>
      <trkpt lat="44.50488" lon="1.68335">
        <ele>320</ele>
        <time>2016-03-23T15:30:06Z</time>
      </trkpt>
      <trkpt lat="44.50491" lon="1.68341">
        <ele>320</ele>
        <time>2016-03-23T15:30:11Z</time>
      </trkpt>
      <trkpt lat="44.50494" lon="1.68344">
        <ele>320</ele>
        <time>2016-03-23T15:30:16Z</time>
      </trkpt>
      <trkpt lat="44.50497" lon="1.68349">
        <ele>320</ele>
        <time>2016-03-23T15:30:21Z</time>
      </trkpt>
      <trkpt lat="44.505" lon="1.68356">
        <ele>320</ele>
        <time>2016-03-23T15:30:26Z</time>
      </trkpt>
      <trkpt lat="44.505" lon="1.68364">
        <ele>320</ele>
        <time>2016-03-23T15:30:31Z</time>
      </trkpt>
      <trkpt lat="44.50503" lon="1.68345">
        <ele>319</ele>
        <time>2016-03-23T15:30:36Z</time>
      </trkpt>
      <trkpt lat="44.50504" lon="1.68338">
        <ele>318</ele>
        <time>2016-03-23T15:30:41Z</time>
      </trkpt>
      <trkpt lat="44.50505" lon="1.68344">
        <ele>316</ele>
        <time>2016-03-23T15:30:54Z</time>
      </trkpt>
      <trkpt lat="44.5051" lon="1.68349">
        <ele>315</ele>
        <time>2016-03-23T15:30:57Z</time>
      </trkpt>
      <trkpt lat="44.50514" lon="1.68355">
        <ele>315</ele>
        <time>2016-03-23T15:31:02Z</time>
      </trkpt>
      <trkpt lat="44.50518" lon="1.6836">
        <ele>315</ele>
        <time>2016-03-23T15:31:06Z</time>
      </trkpt>
      <trkpt lat="44.5052" lon="1.68367">
        <ele>316</ele>
        <time>2016-03-23T15:31:10Z</time>
      </trkpt>
      <trkpt lat="44.50524" lon="1.68371">
        <ele>317</ele>
        <time>2016-03-23T15:31:15Z</time>
      </trkpt>
      <trkpt lat="44.50529" lon="1.68369">
        <ele>318</ele>
        <time>2016-03-23T15:31:18Z</time>
      </trkpt>
      <trkpt lat="44.50531" lon="1.68375">
        <ele>318</ele>
        <time>2016-03-23T15:31:23Z</time>
      </trkpt>
      <trkpt lat="44.50534" lon="1.68381">
        <ele>318</ele>
        <time>2016-03-23T15:31:29Z</time>
      </trkpt>
      <trkpt lat="44.50536" lon="1.68387">
        <ele>319</ele>
        <time>2016-03-23T15:31:39Z</time>
      </trkpt>
      <trkpt lat="44.50532" lon="1.68389">
        <ele>319</ele>
        <time>2016-03-23T15:31:48Z</time>
      </trkpt>
      <trkpt lat="44.50531" lon="1.68396">
        <ele>320</ele>
        <time>2016-03-23T15:32:16Z</time>
      </trkpt>
      <trkpt lat="44.50528" lon="1.684">
        <ele>320</ele>
        <time>2016-03-23T15:32:21Z</time>
      </trkpt>
      <trkpt lat="44.50523" lon="1.68402">
        <ele>320</ele>
        <time>2016-03-23T15:32:27Z</time>
      </trkpt>
      <trkpt lat="44.50518" lon="1.68404">
        <ele>320</ele>
        <time>2016-03-23T15:32:32Z</time>
      </trkpt>
      <trkpt lat="44.50513" lon="1.68405">
        <ele>321</ele>
        <time>2016-03-23T15:32:36Z</time>
      </trkpt>
      <trkpt lat="44.50509" lon="1.68409">
        <ele>321</ele>
        <time>2016-03-23T15:32:41Z</time>
      </trkpt>
      <trkpt lat="44.50504" lon="1.68413">
        <ele>322</ele>
        <time>2016-03-23T15:32:46Z</time>
      </trkpt>
      <trkpt lat="44.50499" lon="1.68414">
        <ele>322</ele>
        <time>2016-03-23T15:32:53Z</time>
      </trkpt>
      <trkpt lat="44.50493" lon="1.68415">
        <ele>323</ele>
        <time>2016-03-23T15:32:57Z</time>
      </trkpt>
      <trkpt lat="44.50489" lon="1.68417">
        <ele>323</ele>
        <time>2016-03-23T15:33:01Z</time>
      </trkpt>
      <trkpt lat="44.50485" lon="1.68421">
        <ele>323</ele>
        <time>2016-03-23T15:33:04Z</time>
      </trkpt>
      <trkpt lat="44.5048" lon="1.68423">
        <ele>322</ele>
        <time>2016-03-23T15:33:10Z</time>
      </trkpt>
      <trkpt lat="44.50476" lon="1.68426">
        <ele>322</ele>
        <time>2016-03-23T15:33:14Z</time>
      </trkpt>
      <trkpt lat="44.50471" lon="1.68428">
        <ele>322</ele>
        <time>2016-03-23T15:33:17Z</time>
      </trkpt>
      <trkpt lat="44.50466" lon="1.6843">
        <ele>323</ele>
        <time>2016-03-23T15:33:22Z</time>
      </trkpt>
      <trkpt lat="44.50461" lon="1.68432">
        <ele>323</ele>
        <time>2016-03-23T15:33:25Z</time>
      </trkpt>
      <trkpt lat="44.50457" lon="1.68433">
        <ele>324</ele>
        <time>2016-03-23T15:33:29Z</time>
      </trkpt>
      <trkpt lat="44.50452" lon="1.68435">
        <ele>324</ele>
        <time>2016-03-23T15:33:34Z</time>
      </trkpt>
      <trkpt lat="44.50438" lon="1.68441">
        <ele>326</ele>
        <time>2016-03-23T15:33:52Z</time>
      </trkpt>
      <trkpt lat="44.50434" lon="1.68447">
        <ele>326</ele>
        <time>2016-03-23T15:33:59Z</time>
      </trkpt>
      <trkpt lat="44.5043" lon="1.68446">
        <ele>326</ele>
        <time>2016-03-23T15:34:01Z</time>
      </trkpt>
      <trkpt lat="44.50425" lon="1.68449">
        <ele>326</ele>
        <time>2016-03-23T15:34:04Z</time>
      </trkpt>
      <trkpt lat="44.50419" lon="1.68449">
        <ele>326</ele>
        <time>2016-03-23T15:34:10Z</time>
      </trkpt>
      <trkpt lat="44.50415" lon="1.68453">
        <ele>325</ele>
        <time>2016-03-23T15:34:14Z</time>
      </trkpt>
      <trkpt lat="44.50411" lon="1.68457">
        <ele>325</ele>
        <time>2016-03-23T15:34:18Z</time>
      </trkpt>
      <trkpt lat="44.50407" lon="1.68459">
        <ele>324</ele>
        <time>2016-03-23T15:34:23Z</time>
      </trkpt>
      <trkpt lat="44.50402" lon="1.68461">
        <ele>324</ele>
        <time>2016-03-23T15:34:25Z</time>
      </trkpt>
      <trkpt lat="44.50396" lon="1.68463">
        <ele>324</ele>
        <time>2016-03-23T15:34:30Z</time>
      </trkpt>
      <trkpt lat="44.50392" lon="1.68464">
        <ele>325</ele>
        <time>2016-03-23T15:34:34Z</time>
      </trkpt>
      <trkpt lat="44.50387" lon="1.68463">
        <ele>326</ele>
        <time>2016-03-23T15:34:38Z</time>
      </trkpt>
      <trkpt lat="44.50382" lon="1.68465">
        <ele>327</ele>
        <time>2016-03-23T15:34:42Z</time>
      </trkpt>
      <trkpt lat="44.50377" lon="1.68465">
        <ele>329</ele>
        <time>2016-03-23T15:34:45Z</time>
      </trkpt>
      <trkpt lat="44.50371" lon="1.68468">
        <ele>330</ele>
        <time>2016-03-23T15:34:49Z</time>
      </trkpt>
      <trkpt lat="44.50365" lon="1.6847">
        <ele>333</ele>
        <time>2016-03-23T15:34:53Z</time>
      </trkpt>
      <trkpt lat="44.5036" lon="1.68472">
        <ele>335</ele>
        <time>2016-03-23T15:34:57Z</time>
      </trkpt>
      <trkpt lat="44.50356" lon="1.68476">
        <ele>337</ele>
        <time>2016-03-23T15:35:02Z</time>
      </trkpt>
      <trkpt lat="44.50351" lon="1.68477">
        <ele>338</ele>
        <time>2016-03-23T15:35:09Z</time>
      </trkpt>
      <trkpt lat="44.50346" lon="1.68478">
        <ele>338</ele>
        <time>2016-03-23T15:35:12Z</time>
      </trkpt>
      <trkpt lat="44.50341" lon="1.68478">
        <ele>337</ele>
        <time>2016-03-23T15:35:18Z</time>
      </trkpt>
      <trkpt lat="44.50337" lon="1.6848">
        <ele>336</ele>
        <time>2016-03-23T15:35:22Z</time>
      </trkpt>
      <trkpt lat="44.50332" lon="1.68482">
        <ele>336</ele>
        <time>2016-03-23T15:35:25Z</time>
      </trkpt>
      <trkpt lat="44.50327" lon="1.68484">
        <ele>337</ele>
        <time>2016-03-23T15:35:29Z</time>
      </trkpt>
      <trkpt lat="44.50322" lon="1.68483">
        <ele>338</ele>
        <time>2016-03-23T15:35:34Z</time>
      </trkpt>
      <trkpt lat="44.50317" lon="1.68485">
        <ele>339</ele>
        <time>2016-03-23T15:35:38Z</time>
      </trkpt>
      <trkpt lat="44.50312" lon="1.68483">
        <ele>340</ele>
        <time>2016-03-23T15:35:41Z</time>
      </trkpt>
      <trkpt lat="44.50307" lon="1.68483">
        <ele>342</ele>
        <time>2016-03-23T15:35:45Z</time>
      </trkpt>
      <trkpt lat="44.50303" lon="1.68483">
        <ele>344</ele>
        <time>2016-03-23T15:35:48Z</time>
      </trkpt>
      <trkpt lat="44.50298" lon="1.68486">
        <ele>344</ele>
        <time>2016-03-23T15:35:58Z</time>
      </trkpt>
      <trkpt lat="44.50293" lon="1.68485">
        <ele>344</ele>
        <time>2016-03-23T15:36:01Z</time>
      </trkpt>
      <trkpt lat="44.50288" lon="1.68485">
        <ele>345</ele>
        <time>2016-03-23T15:36:06Z</time>
      </trkpt>
      <trkpt lat="44.50283" lon="1.68489">
        <ele>343</ele>
        <time>2016-03-23T15:36:19Z</time>
      </trkpt>
      <trkpt lat="44.50278" lon="1.6849">
        <ele>340</ele>
        <time>2016-03-23T15:36:27Z</time>
      </trkpt>
      <trkpt lat="44.50274" lon="1.68485">
        <ele>339</ele>
        <time>2016-03-23T15:36:30Z</time>
      </trkpt>
      <trkpt lat="44.50271" lon="1.68492">
        <ele>337</ele>
        <time>2016-03-23T15:36:34Z</time>
      </trkpt>
      <trkpt lat="44.50263" lon="1.68487">
        <ele>335</ele>
        <time>2016-03-23T15:36:42Z</time>
      </trkpt>
      <trkpt lat="44.50256" lon="1.68489">
        <ele>334</ele>
        <time>2016-03-23T15:36:54Z</time>
      </trkpt>
      <trkpt lat="44.50251" lon="1.68487">
        <ele>334</ele>
        <time>2016-03-23T15:36:58Z</time>
      </trkpt>
      <trkpt lat="44.50246" lon="1.6849">
        <ele>333</ele>
        <time>2016-03-23T15:37:03Z</time>
      </trkpt>
      <trkpt lat="44.5024" lon="1.6849">
        <ele>331</ele>
        <time>2016-03-23T15:37:11Z</time>
      </trkpt>
      <trkpt lat="44.50235" lon="1.6849">
        <ele>329</ele>
        <time>2016-03-23T15:37:16Z</time>
      </trkpt>
      <trkpt lat="44.5023" lon="1.68488">
        <ele>327</ele>
        <time>2016-03-23T15:37:22Z</time>
      </trkpt>
      <trkpt lat="44.50225" lon="1.68486">
        <ele>326</ele>
        <time>2016-03-23T15:37:26Z</time>
      </trkpt>
      <trkpt lat="44.5022" lon="1.68486">
        <ele>324</ele>
        <time>2016-03-23T15:37:31Z</time>
      </trkpt>
      <trkpt lat="44.50214" lon="1.68487">
        <ele>324</ele>
        <time>2016-03-23T15:37:36Z</time>
      </trkpt>
      <trkpt lat="44.50209" lon="1.68489">
        <ele>322</ele>
        <time>2016-03-23T15:37:43Z</time>
      </trkpt>
      <trkpt lat="44.50204" lon="1.68491">
        <ele>321</ele>
        <time>2016-03-23T15:37:49Z</time>
      </trkpt>
      <trkpt lat="44.502" lon="1.68494">
        <ele>318</ele>
        <time>2016-03-23T15:38:00Z</time>
      </trkpt>
      <trkpt lat="44.50196" lon="1.68497">
        <ele>316</ele>
        <time>2016-03-23T15:38:03Z</time>
      </trkpt>
      <trkpt lat="44.50192" lon="1.68501">
        <ele>314</ele>
        <time>2016-03-23T15:38:07Z</time>
      </trkpt>
      <trkpt lat="44.50188" lon="1.68506">
        <ele>312</ele>
        <time>2016-03-23T15:38:11Z</time>
      </trkpt>
      <trkpt lat="44.50183" lon="1.6851">
        <ele>311</ele>
        <time>2016-03-23T15:38:16Z</time>
      </trkpt>
      <trkpt lat="44.5018" lon="1.68515">
        <ele>311</ele>
        <time>2016-03-23T15:38:20Z</time>
      </trkpt>
      <trkpt lat="44.50176" lon="1.6852">
        <ele>311</ele>
        <time>2016-03-23T15:38:24Z</time>
      </trkpt>
      <trkpt lat="44.50174" lon="1.68526">
        <ele>311</ele>
        <time>2016-03-23T15:38:29Z</time>
      </trkpt>
      <trkpt lat="44.50171" lon="1.68533">
        <ele>311</ele>
        <time>2016-03-23T15:38:39Z</time>
      </trkpt>
      <trkpt lat="44.50169" lon="1.68541">
        <ele>309</ele>
        <time>2016-03-23T15:38:44Z</time>
      </trkpt>
      <trkpt lat="44.50166" lon="1.68546">
        <ele>307</ele>
        <time>2016-03-23T15:38:50Z</time>
      </trkpt>
      <trkpt lat="44.50162" lon="1.68549">
        <ele>305</ele>
        <time>2016-03-23T15:38:56Z</time>
      </trkpt>
      <trkpt lat="44.50158" lon="1.68553">
        <ele>302</ele>
        <time>2016-03-23T15:39:01Z</time>
      </trkpt>
      <trkpt lat="44.50153" lon="1.68558">
        <ele>301</ele>
        <time>2016-03-23T15:39:06Z</time>
      </trkpt>
      <trkpt lat="44.50148" lon="1.68563">
        <ele>300</ele>
        <time>2016-03-23T15:39:13Z</time>
      </trkpt>
      <trkpt lat="44.50145" lon="1.68567">
        <ele>298</ele>
        <time>2016-03-23T15:39:18Z</time>
      </trkpt>
      <trkpt lat="44.50141" lon="1.68572">
        <ele>298</ele>
        <time>2016-03-23T15:39:21Z</time>
      </trkpt>
      <trkpt lat="44.50138" lon="1.68576">
        <ele>298</ele>
        <time>2016-03-23T15:39:25Z</time>
      </trkpt>
      <trkpt lat="44.50135" lon="1.68582">
        <ele>297</ele>
        <time>2016-03-23T15:39:29Z</time>
      </trkpt>
      <trkpt lat="44.50132" lon="1.68587">
        <ele>297</ele>
        <time>2016-03-23T15:39:31Z</time>
      </trkpt>
      <trkpt lat="44.50129" lon="1.68594">
        <ele>298</ele>
        <time>2016-03-23T15:39:38Z</time>
      </trkpt>
      <trkpt lat="44.50126" lon="1.68599">
        <ele>298</ele>
        <time>2016-03-23T15:39:42Z</time>
      </trkpt>
      <trkpt lat="44.50123" lon="1.68604">
        <ele>298</ele>
        <time>2016-03-23T15:39:46Z</time>
      </trkpt>
      <trkpt lat="44.50121" lon="1.6861">
        <ele>297</ele>
        <time>2016-03-23T15:39:51Z</time>
      </trkpt>
      <trkpt lat="44.50118" lon="1.68616">
        <ele>297</ele>
        <time>2016-03-23T15:39:54Z</time>
      </trkpt>
      <trkpt lat="44.50116" lon="1.68622">
        <ele>297</ele>
        <time>2016-03-23T15:40:01Z</time>
      </trkpt>
      <trkpt lat="44.50115" lon="1.68619">
        <ele>297</ele>
        <time>2016-03-23T15:40:28Z</time>
      </trkpt>
      <trkpt lat="44.50115" lon="1.68619">
        <ele>297</ele>
        <time>2016-03-23T15:40:29Z</time>
      </trkpt>
      <trkpt lat="44.50116" lon="1.68621">
        <ele>297</ele>
        <time>2016-03-23T15:40:50Z</time>
      </trkpt>
      <trkpt lat="44.50116" lon="1.68621">
        <ele>297</ele>
        <time>2016-03-23T15:40:51Z</time>
      </trkpt>
      <trkpt lat="44.50116" lon="1.6862">
        <ele>298</ele>
        <time>2016-03-23T15:41:11Z</time>
      </trkpt>
      <trkpt lat="44.50116" lon="1.6862">
        <ele>298</ele>
        <time>2016-03-23T15:41:14Z</time>
      </trkpt>
      <trkpt lat="44.50105" lon="1.68645">
        <ele>295</ele>
        <time>2016-03-23T15:41:45Z</time>
      </trkpt>
      <trkpt lat="44.50102" lon="1.6865">
        <ele>294</ele>
        <time>2016-03-23T15:41:48Z</time>
      </trkpt>
      <trkpt lat="44.50098" lon="1.68656">
        <ele>294</ele>
        <time>2016-03-23T15:41:53Z</time>
      </trkpt>
      <trkpt lat="44.50095" lon="1.68662">
        <ele>295</ele>
        <time>2016-03-23T15:41:57Z</time>
      </trkpt>
      <trkpt lat="44.50095" lon="1.68668">
        <ele>294</ele>
        <time>2016-03-23T15:42:03Z</time>
      </trkpt>
      <trkpt lat="44.50091" lon="1.68672">
        <ele>293</ele>
        <time>2016-03-23T15:42:07Z</time>
      </trkpt>
      <trkpt lat="44.50087" lon="1.68676">
        <ele>292</ele>
        <time>2016-03-23T15:42:12Z</time>
      </trkpt>
      <trkpt lat="44.50083" lon="1.68679">
        <ele>291</ele>
        <time>2016-03-23T15:42:16Z</time>
      </trkpt>
      <trkpt lat="44.50079" lon="1.68678">
        <ele>290</ele>
        <time>2016-03-23T15:42:23Z</time>
      </trkpt>
      <trkpt lat="44.50073" lon="1.68679">
        <ele>289</ele>
        <time>2016-03-23T15:42:30Z</time>
      </trkpt>
      <trkpt lat="44.50068" lon="1.68682">
        <ele>288</ele>
        <time>2016-03-23T15:42:34Z</time>
      </trkpt>
      <trkpt lat="44.50058" lon="1.68724">
        <ele>287</ele>
        <time>2016-03-23T15:42:59Z</time>
      </trkpt>
      <trkpt lat="44.50056" lon="1.68728">
        <ele>286</ele>
        <time>2016-03-23T15:43:00Z</time>
      </trkpt>
      <trkpt lat="44.50054" lon="1.68735">
        <ele>286</ele>
        <time>2016-03-23T15:43:07Z</time>
      </trkpt>
      <trkpt lat="44.50049" lon="1.68734">
        <ele>285</ele>
        <time>2016-03-23T15:43:15Z</time>
      </trkpt>
      <trkpt lat="44.50046" lon="1.68739">
        <ele>283</ele>
        <time>2016-03-23T15:43:19Z</time>
      </trkpt>
      <trkpt lat="44.50042" lon="1.68742">
        <ele>282</ele>
        <time>2016-03-23T15:43:27Z</time>
      </trkpt>
      <trkpt lat="44.50037" lon="1.68744">
        <ele>280</ele>
        <time>2016-03-23T15:43:31Z</time>
      </trkpt>
      <trkpt lat="44.50033" lon="1.68749">
        <ele>277</ele>
        <time>2016-03-23T15:43:38Z</time>
      </trkpt>
      <trkpt lat="44.50029" lon="1.68753">
        <ele>276</ele>
        <time>2016-03-23T15:43:43Z</time>
      </trkpt>
      <trkpt lat="44.50024" lon="1.68757">
        <ele>274</ele>
        <time>2016-03-23T15:43:48Z</time>
      </trkpt>
      <trkpt lat="44.50021" lon="1.68763">
        <ele>273</ele>
        <time>2016-03-23T15:43:53Z</time>
      </trkpt>
      <trkpt lat="44.50016" lon="1.68766">
        <ele>272</ele>
        <time>2016-03-23T15:43:58Z</time>
      </trkpt>
      <trkpt lat="44.50012" lon="1.68769">
        <ele>271</ele>
        <time>2016-03-23T15:44:02Z</time>
      </trkpt>
      <trkpt lat="44.50007" lon="1.68773">
        <ele>270</ele>
        <time>2016-03-23T15:44:05Z</time>
      </trkpt>
      <trkpt lat="44.50003" lon="1.68777">
        <ele>270</ele>
        <time>2016-03-23T15:44:09Z</time>
      </trkpt>
      <trkpt lat="44.49999" lon="1.68781">
        <ele>271</ele>
        <time>2016-03-23T15:44:12Z</time>
      </trkpt>
      <trkpt lat="44.49997" lon="1.68787">
        <ele>270</ele>
        <time>2016-03-23T15:44:20Z</time>
      </trkpt>
      <trkpt lat="44.49992" lon="1.68792">
        <ele>270</ele>
        <time>2016-03-23T15:44:30Z</time>
      </trkpt>
      <trkpt lat="44.49989" lon="1.68797">
        <ele>270</ele>
        <time>2016-03-23T15:44:37Z</time>
      </trkpt>
      <trkpt lat="44.49985" lon="1.68801">
        <ele>269</ele>
        <time>2016-03-23T15:44:42Z</time>
      </trkpt>
      <trkpt lat="44.49983" lon="1.68807">
        <ele>269</ele>
        <time>2016-03-23T15:44:50Z</time>
      </trkpt>
      <trkpt lat="44.49978" lon="1.68814">
        <ele>269</ele>
        <time>2016-03-23T15:44:54Z</time>
      </trkpt>
      <trkpt lat="44.49974" lon="1.68819">
        <ele>270</ele>
        <time>2016-03-23T15:44:57Z</time>
      </trkpt>
      <trkpt lat="44.49973" lon="1.68826">
        <ele>271</ele>
        <time>2016-03-23T15:45:14Z</time>
      </trkpt>
      <trkpt lat="44.49973" lon="1.68834">
        <ele>272</ele>
        <time>2016-03-23T15:45:18Z</time>
      </trkpt>
      <trkpt lat="44.49973" lon="1.6884">
        <ele>272</ele>
        <time>2016-03-23T15:45:27Z</time>
      </trkpt>
      <trkpt lat="44.49973" lon="1.68847">
        <ele>271</ele>
        <time>2016-03-23T15:45:40Z</time>
      </trkpt>
      <trkpt lat="44.49976" lon="1.6885">
        <ele>270</ele>
        <time>2016-03-23T15:46:01Z</time>
      </trkpt>
    </trkseg>
  </trk>
</gpx>